<?xml version='1.0' encoding='UTF-8'?><gpx version="1.1" creator="JPX - https://github.com/jenetics/jpx" xmlns="http://www.topografix.com/GPX/1/1"><trk><trkseg><trkpt lat="42.36899911010567" lon="13.967392200407089"><ele>295.0</ele><time>2026-03-22T09:58:28.999Z</time></trkpt><trkpt lat="42.368984759831484" lon="13.967476742546985"><ele>295.0</ele><time>2026-03-22T09:58:29.999Z</time></trkpt><trkpt lat="42.36887990471914" lon="13.967542858488576"><ele>295.0</ele><time>2026-03-22T09:58:31.999Z</time></trkpt><trkpt lat="42.36880678043792" lon="13.967519607898723"><ele>295.0</ele><time>2026-03-22T09:58:32.999Z</time></trkpt><trkpt lat="42.368704726575594" lon="13.967464373188193"><ele>295.0</ele><time>2026-03-22T09:58:33.999Z</time></trkpt><trkpt lat="42.368580590445866" lon="13.967471923399918"><ele>294.0</ele><time>2026-03-22T09:58:34.999Z</time></trkpt><trkpt lat="42.36845763368476" lon="13.967470463001195"><ele>293.0</ele><time>2026-03-22T09:58:35.999Z</time></trkpt><trkpt lat="42.36832093794105" lon="13.96749006439759"><ele>292.0</ele><time>2026-03-22T09:58:36.999Z</time></trkpt><trkpt lat="42.36818390894625" lon="13.967541785782409"><ele>291.0</ele><time>2026-03-22T09:58:37.999Z</time></trkpt><trkpt lat="42.36805561502458" lon="13.967596704579638"><ele>288.0</ele><time>2026-03-22T09:58:38.999Z</time></trkpt><trkpt lat="42.367937957024154" lon="13.967612926767288"><ele>285.0</ele><time>2026-03-22T09:58:39.999Z</time></trkpt><trkpt lat="42.36782178581398" lon="13.967627629921552"><ele>282.0</ele><time>2026-03-22T09:58:40.999Z</time></trkpt><trkpt lat="42.36769256625264" lon="13.967665074403088"><ele>279.0</ele><time>2026-03-22T09:58:41.999Z</time></trkpt><trkpt lat="42.36757614706872" lon="13.967677764571649"><ele>279.0</ele><time>2026-03-22T09:58:42.999Z</time></trkpt><trkpt lat="42.36744364547485" lon="13.967734571287766"><ele>279.0</ele><time>2026-03-22T09:58:43.999Z</time></trkpt><trkpt lat="42.36731944173099" lon="13.967806989803766"><ele>279.0</ele><time>2026-03-22T09:58:44.999Z</time></trkpt><trkpt lat="42.36720836663846" lon="13.967871870767498"><ele>279.0</ele><time>2026-03-22T09:58:45.999Z</time></trkpt><trkpt lat="42.36709846572166" lon="13.967930472925312"><ele>276.75</ele><time>2026-03-22T09:58:46.999Z</time></trkpt><trkpt lat="42.36699495668426" lon="13.967995378142112"><ele>274.5</ele><time>2026-03-22T09:58:47.999Z</time></trkpt><trkpt lat="42.36687982027016" lon="13.968039251862866"><ele>272.25</ele><time>2026-03-22T09:58:48.999Z</time></trkpt><trkpt lat="42.36675605538413" lon="13.968091665457285"><ele>270.0</ele><time>2026-03-22T09:58:49.999Z</time></trkpt><trkpt lat="42.36664405587537" lon="13.968136953817288"><ele>270.0</ele><time>2026-03-22T09:58:50.999Z</time></trkpt><trkpt lat="42.36654079854737" lon="13.968182279213387"><ele>270.0</ele><time>2026-03-22T09:58:51.999Z</time></trkpt><trkpt lat="42.36644351011397" lon="13.968232397416116"><ele>270.0</ele><time>2026-03-22T09:58:52.999Z</time></trkpt><trkpt lat="42.366355263821276" lon="13.968292408609187"><ele>270.0</ele><time>2026-03-22T09:58:53.999Z</time></trkpt><trkpt lat="42.36626677577898" lon="13.968348796027351"><ele>270.0</ele><time>2026-03-22T09:58:54.999Z</time></trkpt><trkpt lat="42.36617374758273" lon="13.968400233405998"><ele>267.25</ele><time>2026-03-22T09:58:55.999Z</time></trkpt><trkpt lat="42.36607324675088" lon="13.96845410538816"><ele>264.5</ele><time>2026-03-22T09:58:56.999Z</time></trkpt><trkpt lat="42.36595783873472" lon="13.968428882085673"><ele>261.75</ele><time>2026-03-22T09:58:57.999Z</time></trkpt><trkpt lat="42.36584266764481" lon="13.968437057497296"><ele>259.0</ele><time>2026-03-22T09:58:58.999Z</time></trkpt><trkpt lat="42.36571218990575" lon="13.968431185483306"><ele>259.0</ele><time>2026-03-22T09:58:59.999Z</time></trkpt><trkpt lat="42.36558277454297" lon="13.968406458981622"><ele>259.0</ele><time>2026-03-22T09:59:00.999Z</time></trkpt><trkpt lat="42.365448660781894" lon="13.96837689905894"><ele>259.0</ele><time>2026-03-22T09:59:01.999Z</time></trkpt><trkpt lat="42.365306428956444" lon="13.968350530818164"><ele>259.0</ele><time>2026-03-22T09:59:02.999Z</time></trkpt><trkpt lat="42.365176205566264" lon="13.968333889994886"><ele>258.25</ele><time>2026-03-22T09:59:03.999Z</time></trkpt><trkpt lat="42.36505829262219" lon="13.96830596937816"><ele>257.5</ele><time>2026-03-22T09:59:04.999Z</time></trkpt><trkpt lat="42.36495384875817" lon="13.968264875735814"><ele>256.75</ele><time>2026-03-22T09:59:05.999Z</time></trkpt><trkpt lat="42.36484241170185" lon="13.968201354737605"><ele>256.0</ele><time>2026-03-22T09:59:06.999Z</time></trkpt><trkpt lat="42.36474217740926" lon="13.968122229207324"><ele>253.75</ele><time>2026-03-22T09:59:07.999Z</time></trkpt><trkpt lat="42.36464958696246" lon="13.968021962626127"><ele>251.5</ele><time>2026-03-22T09:59:08.999Z</time></trkpt><trkpt lat="42.3645646478577" lon="13.967927201324141"><ele>249.25</ele><time>2026-03-22T09:59:09.999Z</time></trkpt><trkpt lat="42.36449646836716" lon="13.9677972324729"><ele>247.0</ele><time>2026-03-22T09:59:10.999Z</time></trkpt><trkpt lat="42.364438343717815" lon="13.967674748375744"><ele>247.0</ele><time>2026-03-22T09:59:11.999Z</time></trkpt><trkpt lat="42.36438647848249" lon="13.967556364635776"><ele>247.0</ele><time>2026-03-22T09:59:12.999Z</time></trkpt><trkpt lat="42.36434295930979" lon="13.967448375855989"><ele>247.0</ele><time>2026-03-22T09:59:13.999Z</time></trkpt><trkpt lat="42.36430941735742" lon="13.967328291183906"><ele>247.0</ele><time>2026-03-22T09:59:14.999Z</time></trkpt><trkpt lat="42.36426681114472" lon="13.967207203589538"><ele>247.0</ele><time>2026-03-22T09:59:15.999Z</time></trkpt><trkpt lat="42.364201523397604" lon="13.967108647426292"><ele>247.75</ele><time>2026-03-22T09:59:16.999Z</time></trkpt><trkpt lat="42.3641050761573" lon="13.967038551008335"><ele>248.5</ele><time>2026-03-22T09:59:17.999Z</time></trkpt><trkpt lat="42.36397949273358" lon="13.966988121174147"><ele>249.25</ele><time>2026-03-22T09:59:18.999Z</time></trkpt><trkpt lat="42.363842509369384" lon="13.966972382853818"><ele>250.0</ele><time>2026-03-22T09:59:19.999Z</time></trkpt><trkpt lat="42.36370376104281" lon="13.96699436024134"><ele>247.25</ele><time>2026-03-22T09:59:20.999Z</time></trkpt><trkpt lat="42.363560954842654" lon="13.96699357130056"><ele>244.5</ele><time>2026-03-22T09:59:21.999Z</time></trkpt><trkpt lat="42.36341671417589" lon="13.967018990261868"><ele>241.75</ele><time>2026-03-22T09:59:22.999Z</time></trkpt><trkpt lat="42.363276012976904" lon="13.967066291564763"><ele>239.0</ele><time>2026-03-22T09:59:23.999Z</time></trkpt><trkpt lat="42.363143005878094" lon="13.967091233024872"><ele>237.5</ele><time>2026-03-22T09:59:24.999Z</time></trkpt><trkpt lat="42.363007863266816" lon="13.967101286088356"><ele>236.0</ele><time>2026-03-22T09:59:25.999Z</time></trkpt><trkpt lat="42.36286391309412" lon="13.96713148631126"><ele>234.5</ele><time>2026-03-22T09:59:26.999Z</time></trkpt><trkpt lat="42.3627162361037" lon="13.967167040973782"><ele>233.0</ele><time>2026-03-22T09:59:27.999Z</time></trkpt><trkpt lat="42.36257284509226" lon="13.967203105312944"><ele>233.0</ele><time>2026-03-22T09:59:28.999Z</time></trkpt><trkpt lat="42.362452048310764" lon="13.967214686796677"><ele>233.0</ele><time>2026-03-22T09:59:29.999Z</time></trkpt><trkpt lat="42.362322779830734" lon="13.967222160114595"><ele>233.0</ele><time>2026-03-22T09:59:30.999Z</time></trkpt><trkpt lat="42.36219716237061" lon="13.967275169767323"><ele>233.0</ele><time>2026-03-22T09:59:31.999Z</time></trkpt><trkpt lat="42.36207939525621" lon="13.967296614346767"><ele>231.0</ele><time>2026-03-22T09:59:32.999Z</time></trkpt><trkpt lat="42.36196324270001" lon="13.967370807821515"><ele>229.0</ele><time>2026-03-22T09:59:33.999Z</time></trkpt><trkpt lat="42.36184738502197" lon="13.967440103124677"><ele>227.0</ele><time>2026-03-22T09:59:34.999Z</time></trkpt><trkpt lat="42.36172860185305" lon="13.9675237203117"><ele>225.0</ele><time>2026-03-22T09:59:35.999Z</time></trkpt><trkpt lat="42.36161012303289" lon="13.96758891699784"><ele>224.0</ele><time>2026-03-22T09:59:36.999Z</time></trkpt><trkpt lat="42.36148854799953" lon="13.967635901457413"><ele>223.0</ele><time>2026-03-22T09:59:37.999Z</time></trkpt><trkpt lat="42.361361311141955" lon="13.967678854917814"><ele>222.0</ele><time>2026-03-22T09:59:38.999Z</time></trkpt><trkpt lat="42.36123583576207" lon="13.967779479877409"><ele>221.0</ele><time>2026-03-22T09:59:39.999Z</time></trkpt><trkpt lat="42.36111174791492" lon="13.967881900525793"><ele>220.0</ele><time>2026-03-22T09:59:40.999Z</time></trkpt><trkpt lat="42.360980240663345" lon="13.967963311250493"><ele>219.0</ele><time>2026-03-22T09:59:41.999Z</time></trkpt><trkpt lat="42.360868409037735" lon="13.968042225971404"><ele>218.0</ele><time>2026-03-22T09:59:42.999Z</time></trkpt><trkpt lat="42.36076794632659" lon="13.968140675629144"><ele>217.0</ele><time>2026-03-22T09:59:43.999Z</time></trkpt><trkpt lat="42.36065156269519" lon="13.968224825896547"><ele>213.75</ele><time>2026-03-22T09:59:44.999Z</time></trkpt><trkpt lat="42.360530489818885" lon="13.968316876329723"><ele>210.5</ele><time>2026-03-22T09:59:45.999Z</time></trkpt><trkpt lat="42.36042236206579" lon="13.968411326622341"><ele>207.25</ele><time>2026-03-22T09:59:46.999Z</time></trkpt><trkpt lat="42.36032303998154" lon="13.968500285305568"><ele>204.0</ele><time>2026-03-22T09:59:47.999Z</time></trkpt><trkpt lat="42.360248118896656" lon="13.96860554513759"><ele>202.25</ele><time>2026-03-22T09:59:48.999Z</time></trkpt><trkpt lat="42.36018605811911" lon="13.968716215142686"><ele>200.5</ele><time>2026-03-22T09:59:49.999Z</time></trkpt><trkpt lat="42.360159322274505" lon="13.968859375749945"><ele>198.75</ele><time>2026-03-22T09:59:50.999Z</time></trkpt><trkpt lat="42.360202848070934" lon="13.969031639725676"><ele>197.0</ele><time>2026-03-22T09:59:51.999Z</time></trkpt><trkpt lat="42.36024493480038" lon="13.969193443532111"><ele>196.0</ele><time>2026-03-22T09:59:52.999Z</time></trkpt><trkpt lat="42.360284350495256" lon="13.969353044273046"><ele>195.0</ele><time>2026-03-22T09:59:53.999Z</time></trkpt><trkpt lat="42.36033840586709" lon="13.969519151325683"><ele>194.0</ele><time>2026-03-22T09:59:54.999Z</time></trkpt><trkpt lat="42.360394079506925" lon="13.969680377137841"><ele>193.0</ele><time>2026-03-22T09:59:55.999Z</time></trkpt><trkpt lat="42.3604480355271" lon="13.969841472523441"><ele>193.0</ele><time>2026-03-22T09:59:56.999Z</time></trkpt><trkpt lat="42.36048807986568" lon="13.969989491647334"><ele>193.0</ele><time>2026-03-22T09:59:57.999Z</time></trkpt><trkpt lat="42.36050582700485" lon="13.970128245489006"><ele>193.0</ele><time>2026-03-22T09:59:58.999Z</time></trkpt><trkpt lat="42.360523825192125" lon="13.970252731502182"><ele>193.0</ele><time>2026-03-22T09:59:59.999Z</time></trkpt><trkpt lat="42.36053796364085" lon="13.97037084747011"><ele>193.0</ele><time>2026-03-22T10:00:00.999Z</time></trkpt><trkpt lat="42.36055182276927" lon="13.970480730446878"><ele>193.4</ele><time>2026-03-22T10:00:01.999Z</time></trkpt><trkpt lat="42.360567521113786" lon="13.970573768803899"><ele>193.8</ele><time>2026-03-22T10:00:02.999Z</time></trkpt><trkpt lat="42.36060272138519" lon="13.97072578270404"><ele>194.2</ele><time>2026-03-22T10:00:04.999Z</time></trkpt><trkpt lat="42.360618064782365" lon="13.970817694500894"><ele>194.6</ele><time>2026-03-22T10:00:06.999Z</time></trkpt><trkpt lat="42.3606002994885" lon="13.97065922932331"><ele>195.0</ele><time>2026-03-22T10:00:09.999Z</time></trkpt><trkpt lat="42.36057024060408" lon="13.970533213380183"><ele>195.0</ele><time>2026-03-22T10:00:10.999Z</time></trkpt><trkpt lat="42.36055423211612" lon="13.970419578886082"><ele>195.0</ele><time>2026-03-22T10:00:11.999Z</time></trkpt><trkpt lat="42.36052974417806" lon="13.970326645542523"><ele>195.0</ele><time>2026-03-22T10:00:13.999Z</time></trkpt><trkpt lat="42.36027693703049" lon="13.970415648333026"><ele>195.0</ele><time>2026-03-22T10:00:16.999Z</time></trkpt><trkpt lat="42.360183343992055" lon="13.970440588476995"><ele>193.8</ele><time>2026-03-22T10:00:17.999Z</time></trkpt><trkpt lat="42.3600992020729" lon="13.970484908337742"><ele>192.6</ele><time>2026-03-22T10:00:18.999Z</time></trkpt><trkpt lat="42.36000915778027" lon="13.970553755547606"><ele>191.39999999999998</ele><time>2026-03-22T10:00:19.999Z</time></trkpt><trkpt lat="42.3599223052798" lon="13.970631902771913"><ele>190.2</ele><time>2026-03-22T10:00:20.999Z</time></trkpt><trkpt lat="42.35983053311399" lon="13.970708595991232"><ele>189.0</ele><time>2026-03-22T10:00:21.999Z</time></trkpt><trkpt lat="42.35973201695399" lon="13.97079018974891"><ele>188.39999999999998</ele><time>2026-03-22T10:00:22.999Z</time></trkpt><trkpt lat="42.359634500812696" lon="13.970870964075695"><ele>187.8</ele><time>2026-03-22T10:00:23.999Z</time></trkpt><trkpt lat="42.359535320332604" lon="13.970949589230981"><ele>187.2</ele><time>2026-03-22T10:00:24.999Z</time></trkpt><trkpt lat="42.35943966421679" lon="13.971030751664255"><ele>186.60000000000002</ele><time>2026-03-22T10:00:25.999Z</time></trkpt><trkpt lat="42.35935004547869" lon="13.971106584196301"><ele>186.0</ele><time>2026-03-22T10:00:26.999Z</time></trkpt><trkpt lat="42.359264064401614" lon="13.971177928779088"><ele>186.0</ele><time>2026-03-22T10:00:27.999Z</time></trkpt><trkpt lat="42.359182018693765" lon="13.971243644075805"><ele>186.0</ele><time>2026-03-22T10:00:28.999Z</time></trkpt><trkpt lat="42.35910833861668" lon="13.971299344473534"><ele>186.0</ele><time>2026-03-22T10:00:29.999Z</time></trkpt><trkpt lat="42.35905353992394" lon="13.971362455981733"><ele>186.0</ele><time>2026-03-22T10:00:30.999Z</time></trkpt><trkpt lat="42.35902244340632" lon="13.971528269602375"><ele>186.0</ele><time>2026-03-22T10:00:32.999Z</time></trkpt><trkpt lat="42.35902956985319" lon="13.971635307412505"><ele>185.83333333333334</ele><time>2026-03-22T10:00:33.999Z</time></trkpt><trkpt lat="42.35901616360207" lon="13.971729294799928"><ele>185.66666666666666</ele><time>2026-03-22T10:00:34.999Z</time></trkpt><trkpt lat="42.35895929501029" lon="13.971815319503149"><ele>185.5</ele><time>2026-03-22T10:00:35.999Z</time></trkpt><trkpt lat="42.358898179785875" lon="13.971866038912646"><ele>185.33333333333331</ele><time>2026-03-22T10:00:36.999Z</time></trkpt><trkpt lat="42.35893826535481" lon="13.972002679507812"><ele>185.16666666666666</ele><time>2026-03-22T10:00:38.999Z</time></trkpt><trkpt lat="42.358986480008994" lon="13.972137459683657"><ele>185.0</ele><time>2026-03-22T10:00:39.999Z</time></trkpt><trkpt lat="42.3590116145083" lon="13.972297963492284"><ele>185.0</ele><time>2026-03-22T10:00:40.999Z</time></trkpt><trkpt lat="42.35900512665511" lon="13.972473940136465"><ele>185.0</ele><time>2026-03-22T10:00:41.999Z</time></trkpt><trkpt lat="42.359013295447056" lon="13.972638679637113"><ele>185.0</ele><time>2026-03-22T10:00:42.999Z</time></trkpt><trkpt lat="42.35901669896814" lon="13.972830190415882"><ele>185.0</ele><time>2026-03-22T10:00:43.999Z</time></trkpt><trkpt lat="42.35902073069697" lon="13.973009478818584"><ele>185.0</ele><time>2026-03-22T10:00:44.999Z</time></trkpt><trkpt lat="42.35902572716391" lon="13.973162033834885"><ele>185.0</ele><time>2026-03-22T10:00:45.999Z</time></trkpt><trkpt lat="42.35906946096584" lon="13.973284205819724"><ele>185.0</ele><time>2026-03-22T10:00:46.999Z</time></trkpt><trkpt lat="42.35911162862026" lon="13.973397797102816"><ele>185.0</ele><time>2026-03-22T10:00:47.999Z</time></trkpt><trkpt lat="42.359134173023534" lon="13.973518531385517"><ele>185.0</ele><time>2026-03-22T10:00:48.999Z</time></trkpt><trkpt lat="42.359124214313546" lon="13.973642201104939"><ele>185.0</ele><time>2026-03-22T10:00:49.999Z</time></trkpt><trkpt lat="42.35910341926061" lon="13.973722985606864"><ele>185.0</ele><time>2026-03-22T10:00:50.999Z</time></trkpt><trkpt lat="42.3590525929238" lon="13.973832337749112"><ele>185.0</ele><time>2026-03-22T10:00:52.999Z</time></trkpt><trkpt lat="42.35901843721553" lon="13.973926986917801"><ele>185.0</ele><time>2026-03-22T10:00:55.999Z</time></trkpt><trkpt lat="42.35905940833613" lon="13.973848249363765"><ele>185.0</ele><time>2026-03-22T10:01:55.999Z</time></trkpt><trkpt lat="42.35908340902403" lon="13.973708352132856"><ele>185.0</ele><time>2026-03-22T10:01:57.999Z</time></trkpt><trkpt lat="42.35911213640368" lon="13.97358321284281"><ele>185.0</ele><time>2026-03-22T10:01:58.999Z</time></trkpt><trkpt lat="42.35911023413979" lon="13.973458227346379"><ele>185.0</ele><time>2026-03-22T10:01:59.999Z</time></trkpt><trkpt lat="42.359097138801346" lon="13.973366708194298"><ele>185.0</ele><time>2026-03-22T10:02:00.999Z</time></trkpt><trkpt lat="42.359069364756" lon="13.97326264154522"><ele>185.0</ele><time>2026-03-22T10:02:01.999Z</time></trkpt><trkpt lat="42.35902614772254" lon="13.973129939136552"><ele>185.0</ele><time>2026-03-22T10:02:02.999Z</time></trkpt><trkpt lat="42.35900112328983" lon="13.972960940876561"><ele>185.0</ele><time>2026-03-22T10:02:03.999Z</time></trkpt><trkpt lat="42.358999596945" lon="13.97279229783017"><ele>185.0</ele><time>2026-03-22T10:02:04.999Z</time></trkpt><trkpt lat="42.35901074179381" lon="13.972608032104349"><ele>185.0</ele><time>2026-03-22T10:02:05.999Z</time></trkpt><trkpt lat="42.35900834131411" lon="13.972407713061905"><ele>185.0</ele><time>2026-03-22T10:02:06.999Z</time></trkpt><trkpt lat="42.358993015684575" lon="13.972208329439505"><ele>185.0</ele><time>2026-03-22T10:02:07.999Z</time></trkpt><trkpt lat="42.35897960430566" lon="13.972022665270652"><ele>185.0</ele><time>2026-03-22T10:02:08.999Z</time></trkpt><trkpt lat="42.358957784900625" lon="13.971864436277263"><ele>185.0</ele><time>2026-03-22T10:02:09.999Z</time></trkpt><trkpt lat="42.35896296473913" lon="13.97176649927234"><ele>185.0</ele><time>2026-03-22T10:02:10.999Z</time></trkpt><trkpt lat="42.35901211899016" lon="13.971661559031759"><ele>185.0</ele><time>2026-03-22T10:02:11.999Z</time></trkpt><trkpt lat="42.35906660766167" lon="13.97152313655393"><ele>185.25</ele><time>2026-03-22T10:02:12.999Z</time></trkpt><trkpt lat="42.3590525992995" lon="13.971389376383778"><ele>185.5</ele><time>2026-03-22T10:02:13.999Z</time></trkpt><trkpt lat="42.35916147322817" lon="13.971241560417447"><ele>185.75</ele><time>2026-03-22T10:02:15.999Z</time></trkpt><trkpt lat="42.359257650819366" lon="13.971159536443505"><ele>186.0</ele><time>2026-03-22T10:02:16.999Z</time></trkpt><trkpt lat="42.3593588748195" lon="13.971090847526087"><ele>186.0</ele><time>2026-03-22T10:02:17.999Z</time></trkpt><trkpt lat="42.35947070172604" lon="13.971009330429649"><ele>186.0</ele><time>2026-03-22T10:02:18.999Z</time></trkpt><trkpt lat="42.35957546458382" lon="13.9709171014025"><ele>186.0</ele><time>2026-03-22T10:02:19.999Z</time></trkpt><trkpt lat="42.35968084711523" lon="13.970831242866117"><ele>186.0</ele><time>2026-03-22T10:02:20.999Z</time></trkpt><trkpt lat="42.359784173903535" lon="13.970753015451123"><ele>186.75</ele><time>2026-03-22T10:02:21.999Z</time></trkpt><trkpt lat="42.359889527195364" lon="13.970670420279594"><ele>187.5</ele><time>2026-03-22T10:02:22.999Z</time></trkpt><trkpt lat="42.359998612730145" lon="13.970579128194627"><ele>188.25</ele><time>2026-03-22T10:02:23.999Z</time></trkpt><trkpt lat="42.36010879185031" lon="13.970492057575333"><ele>189.0</ele><time>2026-03-22T10:02:24.999Z</time></trkpt><trkpt lat="42.36021878858045" lon="13.970415639366305"><ele>189.0</ele><time>2026-03-22T10:02:25.999Z</time></trkpt><trkpt lat="42.36033609891856" lon="13.970368374774862"><ele>189.0</ele><time>2026-03-22T10:02:26.999Z</time></trkpt><trkpt lat="42.360455042265635" lon="13.970356352352837"><ele>189.0</ele><time>2026-03-22T10:02:27.999Z</time></trkpt><trkpt lat="42.36054702011033" lon="13.970354604581326"><ele>189.0</ele><time>2026-03-22T10:02:28.999Z</time></trkpt><trkpt lat="42.36060729840374" lon="13.970301279687016"><ele>189.0</ele><time>2026-03-22T10:02:30.999Z</time></trkpt><trkpt lat="42.36054065545616" lon="13.970132541310699"><ele>189.79999999999998</ele><time>2026-03-22T10:02:32.999Z</time></trkpt><trkpt lat="42.36051822298603" lon="13.970021537840813"><ele>190.6</ele><time>2026-03-22T10:02:33.999Z</time></trkpt><trkpt lat="42.360489226153334" lon="13.969894919746306"><ele>191.4</ele><time>2026-03-22T10:02:34.999Z</time></trkpt><trkpt lat="42.36044800512198" lon="13.96979277416068"><ele>192.2</ele><time>2026-03-22T10:02:35.999Z</time></trkpt><trkpt lat="42.36040333491602" lon="13.969658061582544"><ele>193.0</ele><time>2026-03-22T10:02:36.999Z</time></trkpt><trkpt lat="42.36035851721855" lon="13.969506663545394"><ele>193.0</ele><time>2026-03-22T10:02:37.999Z</time></trkpt><trkpt lat="42.360308762777606" lon="13.969355619189747"><ele>193.0</ele><time>2026-03-22T10:02:38.999Z</time></trkpt><trkpt lat="42.36026150984862" lon="13.969203682860039"><ele>193.0</ele><time>2026-03-22T10:02:39.999Z</time></trkpt><trkpt lat="42.36021635134756" lon="13.96904609562682"><ele>193.0</ele><time>2026-03-22T10:02:40.999Z</time></trkpt><trkpt lat="42.36020676278372" lon="13.96888454922961"><ele>193.8</ele><time>2026-03-22T10:02:41.999Z</time></trkpt><trkpt lat="42.36020288351517" lon="13.968728761477685"><ele>194.60000000000002</ele><time>2026-03-22T10:02:42.999Z</time></trkpt><trkpt lat="42.3602358134658" lon="13.968615950696828"><ele>195.39999999999998</ele><time>2026-03-22T10:02:43.999Z</time></trkpt><trkpt lat="42.36031938127621" lon="13.968549485806843"><ele>196.2</ele><time>2026-03-22T10:02:44.999Z</time></trkpt><trkpt lat="42.36042169672247" lon="13.968464825305398"><ele>197.0</ele><time>2026-03-22T10:02:45.999Z</time></trkpt><trkpt lat="42.360531918053375" lon="13.968369353376586"><ele>202.0</ele><time>2026-03-22T10:02:46.999Z</time></trkpt><trkpt lat="42.36063648603621" lon="13.968280677438642"><ele>207.0</ele><time>2026-03-22T10:02:47.999Z</time></trkpt><trkpt lat="42.36074088686918" lon="13.968189618930948"><ele>212.0</ele><time>2026-03-22T10:02:48.999Z</time></trkpt><trkpt lat="42.36085527814884" lon="13.968097871275456"><ele>217.0</ele><time>2026-03-22T10:02:49.999Z</time></trkpt><trkpt lat="42.360972718207755" lon="13.968019570020324"><ele>217.0</ele><time>2026-03-22T10:02:50.999Z</time></trkpt><trkpt lat="42.36109470189222" lon="13.967932123399843"><ele>217.0</ele><time>2026-03-22T10:02:51.999Z</time></trkpt><trkpt lat="42.3612164467277" lon="13.967848838142068"><ele>217.0</ele><time>2026-03-22T10:02:52.999Z</time></trkpt><trkpt lat="42.36134347670973" lon="13.967756153837625"><ele>217.0</ele><time>2026-03-22T10:02:53.999Z</time></trkpt><trkpt lat="42.36146324893852" lon="13.967691744752168"><ele>218.0</ele><time>2026-03-22T10:02:54.999Z</time></trkpt><trkpt lat="42.36159040070552" lon="13.967644038214287"><ele>219.0</ele><time>2026-03-22T10:02:55.999Z</time></trkpt><trkpt lat="42.361715536208855" lon="13.96757558939626"><ele>220.0</ele><time>2026-03-22T10:02:56.999Z</time></trkpt><trkpt lat="42.36183166079857" lon="13.967499695262793"><ele>221.0</ele><time>2026-03-22T10:02:57.999Z</time></trkpt><trkpt lat="42.36196175121129" lon="13.967435436901045"><ele>222.0</ele><time>2026-03-22T10:02:58.999Z</time></trkpt><trkpt lat="42.36207648970632" lon="13.967324246999356"><ele>223.0</ele><time>2026-03-22T10:02:59.999Z</time></trkpt><trkpt lat="42.36221812652909" lon="13.967292302460423"><ele>224.0</ele><time>2026-03-22T10:03:00.999Z</time></trkpt><trkpt lat="42.36234245690075" lon="13.967263853784319"><ele>225.0</ele><time>2026-03-22T10:03:01.999Z</time></trkpt><trkpt lat="42.362464583570976" lon="13.967258629300407"><ele>227.0</ele><time>2026-03-22T10:03:02.999Z</time></trkpt><trkpt lat="42.36259310511868" lon="13.96724407732663"><ele>229.0</ele><time>2026-03-22T10:03:03.999Z</time></trkpt><trkpt lat="42.36271739798182" lon="13.96723206787924"><ele>231.0</ele><time>2026-03-22T10:03:04.999Z</time></trkpt><trkpt lat="42.36285016271521" lon="13.967190222031519"><ele>233.0</ele><time>2026-03-22T10:03:05.999Z</time></trkpt><trkpt lat="42.362994809274724" lon="13.967132494584279"><ele>235.0</ele><time>2026-03-22T10:03:06.999Z</time></trkpt><trkpt lat="42.36314479116282" lon="13.967118012973762"><ele>237.0</ele><time>2026-03-22T10:03:07.999Z</time></trkpt><trkpt lat="42.363296204084534" lon="13.967073173940445"><ele>239.0</ele><time>2026-03-22T10:03:08.999Z</time></trkpt><trkpt lat="42.36344918266814" lon="13.96704209504059"><ele>239.0</ele><time>2026-03-22T10:03:09.999Z</time></trkpt><trkpt lat="42.36360514526555" lon="13.967013847998857"><ele>239.0</ele><time>2026-03-22T10:03:10.999Z</time></trkpt><trkpt lat="42.36375557149383" lon="13.967002422663024"><ele>239.0</ele><time>2026-03-22T10:03:11.999Z</time></trkpt><trkpt lat="42.36390369724472" lon="13.967014464006558"><ele>241.2</ele><time>2026-03-22T10:03:12.999Z</time></trkpt><trkpt lat="42.364023239268406" lon="13.967034780884275"><ele>243.39999999999998</ele><time>2026-03-22T10:03:13.999Z</time></trkpt><trkpt lat="42.36413233926708" lon="13.967091402635853"><ele>245.6</ele><time>2026-03-22T10:03:14.999Z</time></trkpt><trkpt lat="42.364209686242795" lon="13.967176430291476"><ele>247.8</ele><time>2026-03-22T10:03:15.999Z</time></trkpt><trkpt lat="42.36426433505996" lon="13.967286092534865"><ele>250.0</ele><time>2026-03-22T10:03:16.999Z</time></trkpt><trkpt lat="42.36429723714576" lon="13.967409096238967"><ele>249.25</ele><time>2026-03-22T10:03:17.999Z</time></trkpt><trkpt lat="42.36435785404639" lon="13.967569903167025"><ele>248.5</ele><time>2026-03-22T10:03:18.999Z</time></trkpt><trkpt lat="42.364431462576945" lon="13.96774473754101"><ele>247.75</ele><time>2026-03-22T10:03:19.999Z</time></trkpt><trkpt lat="42.364524806287456" lon="13.967886817894959"><ele>247.0</ele><time>2026-03-22T10:03:20.999Z</time></trkpt><trkpt lat="42.364607170616175" lon="13.9680268012212"><ele>247.0</ele><time>2026-03-22T10:03:21.999Z</time></trkpt><trkpt lat="42.364669502990566" lon="13.968182281096247"><ele>247.0</ele><time>2026-03-22T10:03:22.999Z</time></trkpt><trkpt lat="42.3647425708964" lon="13.968312973921982"><ele>247.0</ele><time>2026-03-22T10:03:23.999Z</time></trkpt><trkpt lat="42.36494810369133" lon="13.968380666148189"><ele>246.66666666666666</ele><time>2026-03-22T10:03:24.999Z</time></trkpt><trkpt lat="42.36512115769879" lon="13.9683677827851"><ele>246.33333333333331</ele><time>2026-03-22T10:03:25.999Z</time></trkpt><trkpt lat="42.3652956446131" lon="13.968394295221204"><ele>246.0</ele><time>2026-03-22T10:03:26.999Z</time></trkpt><trkpt lat="42.36547440283409" lon="13.968429015090344"><ele>250.33333333333331</ele><time>2026-03-22T10:03:27.999Z</time></trkpt><trkpt lat="42.365640218479136" lon="13.96846917191226"><ele>254.66666666666666</ele><time>2026-03-22T10:03:28.999Z</time></trkpt><trkpt lat="42.365797986139384" lon="13.968502555863443"><ele>259.0</ele><time>2026-03-22T10:03:29.999Z</time></trkpt><trkpt lat="42.36592186061428" lon="13.968477228650332"><ele>259.0</ele><time>2026-03-22T10:03:30.999Z</time></trkpt><trkpt lat="42.36602624025249" lon="13.96846251359359"><ele>259.0</ele><time>2026-03-22T10:03:31.999Z</time></trkpt><trkpt lat="42.36611270902527" lon="13.968444402679939"><ele>259.0</ele><time>2026-03-22T10:03:32.999Z</time></trkpt><trkpt lat="42.36618938902994" lon="13.968415402885658"><ele>259.0</ele><time>2026-03-22T10:03:33.999Z</time></trkpt><trkpt lat="42.36626220439647" lon="13.968390221327287"><ele>259.0</ele><time>2026-03-22T10:03:35.999Z</time></trkpt><trkpt lat="42.36629347916542" lon="13.968713749758502"><ele>259.0</ele><time>2026-03-22T10:03:37.999Z</time></trkpt><trkpt lat="42.36628110402404" lon="13.968880258156073"><ele>259.0</ele><time>2026-03-22T10:03:38.999Z</time></trkpt><trkpt lat="42.366265195367006" lon="13.96904122428762"><ele>259.0</ele><time>2026-03-22T10:03:39.999Z</time></trkpt><trkpt lat="42.3662494882436" lon="13.969203434827918"><ele>259.0</ele><time>2026-03-22T10:03:40.999Z</time></trkpt><trkpt lat="42.36623923343024" lon="13.969362851214187"><ele>258.5</ele><time>2026-03-22T10:03:41.999Z</time></trkpt><trkpt lat="42.366242530569146" lon="13.969521465780508"><ele>258.0</ele><time>2026-03-22T10:03:42.999Z</time></trkpt><trkpt lat="42.36626632213941" lon="13.96969688942453"><ele>257.5</ele><time>2026-03-22T10:03:43.999Z</time></trkpt><trkpt lat="42.366293857285214" lon="13.96987846446954"><ele>257.0</ele><time>2026-03-22T10:03:44.999Z</time></trkpt><trkpt lat="42.366325354111304" lon="13.97007274174991"><ele>257.75</ele><time>2026-03-22T10:03:45.999Z</time></trkpt><trkpt lat="42.3663617762935" lon="13.970265256403415"><ele>258.5</ele><time>2026-03-22T10:03:46.999Z</time></trkpt><trkpt lat="42.366395473766715" lon="13.970452673964044"><ele>259.25</ele><time>2026-03-22T10:03:47.999Z</time></trkpt><trkpt lat="42.36638764269689" lon="13.970660847558364"><ele>260.0</ele><time>2026-03-22T10:03:48.999Z</time></trkpt><trkpt lat="42.366366743785576" lon="13.97086687399663"><ele>258.33333333333337</ele><time>2026-03-22T10:03:49.999Z</time></trkpt><trkpt lat="42.36631605017499" lon="13.971094918948298"><ele>256.6666666666667</ele><time>2026-03-22T10:03:50.999Z</time></trkpt><trkpt lat="42.366257233101926" lon="13.971298751119425"><ele>255.0</ele><time>2026-03-22T10:03:51.999Z</time></trkpt><trkpt lat="42.36620042495873" lon="13.971506102063515"><ele>256.0</ele><time>2026-03-22T10:03:52.999Z</time></trkpt><trkpt lat="42.36614123930849" lon="13.971717193019574"><ele>257.0</ele><time>2026-03-22T10:03:53.999Z</time></trkpt><trkpt lat="42.36608316781871" lon="13.971919181789191"><ele>258.0</ele><time>2026-03-22T10:03:54.999Z</time></trkpt><trkpt lat="42.36604010961798" lon="13.972072176623387"><ele>259.0</ele><time>2026-03-22T10:03:55.999Z</time></trkpt><trkpt lat="42.36602641525955" lon="13.972229427416062"><ele>259.0</ele><time>2026-03-22T10:03:56.999Z</time></trkpt><trkpt lat="42.36601864183159" lon="13.972354577613164"><ele>259.0</ele><time>2026-03-22T10:03:57.999Z</time></trkpt><trkpt lat="42.36594471113391" lon="13.97246667697798"><ele>259.0</ele><time>2026-03-22T10:03:58.999Z</time></trkpt><trkpt lat="42.36600185406279" lon="13.972526364866587"><ele>259.0</ele><time>2026-03-22T10:03:59.999Z</time></trkpt><trkpt lat="42.36601033761428" lon="13.972630973376747"><ele>259.0</ele><time>2026-03-22T10:04:00.999Z</time></trkpt><trkpt lat="42.36600822918952" lon="13.972765409094302"><ele>259.5</ele><time>2026-03-22T10:04:01.999Z</time></trkpt><trkpt lat="42.36601936246946" lon="13.972866965382064"><ele>260.0</ele><time>2026-03-22T10:04:02.999Z</time></trkpt><trkpt lat="42.36607228572362" lon="13.972946406735232"><ele>260.5</ele><time>2026-03-22T10:04:03.999Z</time></trkpt><trkpt lat="42.36611836642099" lon="13.973038920758823"><ele>261.0</ele><time>2026-03-22T10:04:04.999Z</time></trkpt><trkpt lat="42.3661422985647" lon="13.973143960146425"><ele>261.5</ele><time>2026-03-22T10:04:05.999Z</time></trkpt><trkpt lat="42.366166717622775" lon="13.973251636494613"><ele>262.0</ele><time>2026-03-22T10:04:06.999Z</time></trkpt><trkpt lat="42.36619302986547" lon="13.973371856906342"><ele>262.2</ele><time>2026-03-22T10:04:07.999Z</time></trkpt><trkpt lat="42.36621859395837" lon="13.973506598789157"><ele>262.4</ele><time>2026-03-22T10:04:08.999Z</time></trkpt><trkpt lat="42.36624008225475" lon="13.973653616974241"><ele>262.6</ele><time>2026-03-22T10:04:09.999Z</time></trkpt><trkpt lat="42.366266291157096" lon="13.973806479962498"><ele>262.8</ele><time>2026-03-22T10:04:10.999Z</time></trkpt><trkpt lat="42.366294910189986" lon="13.973958366354005"><ele>263.0</ele><time>2026-03-22T10:04:11.999Z</time></trkpt><trkpt lat="42.36632395493704" lon="13.974114836409447"><ele>263.5</ele><time>2026-03-22T10:04:12.999Z</time></trkpt><trkpt lat="42.36634767307899" lon="13.974275762949086"><ele>264.0</ele><time>2026-03-22T10:04:13.999Z</time></trkpt><trkpt lat="42.366376827147725" lon="13.974438816206357"><ele>264.5</ele><time>2026-03-22T10:04:14.999Z</time></trkpt><trkpt lat="42.3664057490845" lon="13.974610268828108"><ele>265.0</ele><time>2026-03-22T10:04:15.999Z</time></trkpt><trkpt lat="42.366432612221054" lon="13.974782541640792"><ele>266.25</ele><time>2026-03-22T10:04:16.999Z</time></trkpt><trkpt lat="42.36646202392157" lon="13.974953067515678"><ele>267.5</ele><time>2026-03-22T10:04:17.999Z</time></trkpt><trkpt lat="42.36649229103609" lon="13.975129980153142"><ele>268.75</ele><time>2026-03-22T10:04:18.999Z</time></trkpt><trkpt lat="42.36652164052216" lon="13.975311196761426"><ele>270.0</ele><time>2026-03-22T10:04:19.999Z</time></trkpt><trkpt lat="42.36655449518052" lon="13.97548788713023"><ele>270.25</ele><time>2026-03-22T10:04:20.999Z</time></trkpt><trkpt lat="42.36658748488297" lon="13.975656466455382"><ele>270.5</ele><time>2026-03-22T10:04:21.999Z</time></trkpt><trkpt lat="42.366614111609415" lon="13.97582013322697"><ele>270.75</ele><time>2026-03-22T10:04:22.999Z</time></trkpt><trkpt lat="42.36663494677036" lon="13.975979900957139"><ele>271.0</ele><time>2026-03-22T10:04:23.999Z</time></trkpt><trkpt lat="42.36665923587625" lon="13.97613517876498"><ele>271.25</ele><time>2026-03-22T10:04:24.999Z</time></trkpt><trkpt lat="42.36667981604361" lon="13.97628399594876"><ele>271.5</ele><time>2026-03-22T10:04:25.999Z</time></trkpt><trkpt lat="42.36669041238855" lon="13.976436285908287"><ele>271.75</ele><time>2026-03-22T10:04:26.999Z</time></trkpt><trkpt lat="42.36668041516812" lon="13.976605814520973"><ele>272.0</ele><time>2026-03-22T10:04:27.999Z</time></trkpt><trkpt lat="42.366712473386166" lon="13.976771107931201"><ele>271.25</ele><time>2026-03-22T10:04:28.999Z</time></trkpt><trkpt lat="42.36662217663597" lon="13.976954360901177"><ele>270.5</ele><time>2026-03-22T10:04:29.999Z</time></trkpt><trkpt lat="42.36660363319457" lon="13.977138462044406"><ele>269.75</ele><time>2026-03-22T10:04:30.999Z</time></trkpt><trkpt lat="42.36658673625975" lon="13.977317548758085"><ele>269.0</ele><time>2026-03-22T10:04:31.999Z</time></trkpt><trkpt lat="42.36657793175391" lon="13.977493543544773"><ele>269.0</ele><time>2026-03-22T10:04:32.999Z</time></trkpt><trkpt lat="42.36657249138836" lon="13.977694580576966"><ele>269.0</ele><time>2026-03-22T10:04:34Z</time></trkpt><trkpt lat="42.366552543741506" lon="13.977878329640161"><ele>269.0</ele><time>2026-03-22T10:04:35Z</time></trkpt><trkpt lat="42.366523769610765" lon="13.978053316166436"><ele>269.0</ele><time>2026-03-22T10:04:36Z</time></trkpt><trkpt lat="42.36648948781804" lon="13.978235440482852"><ele>268.0</ele><time>2026-03-22T10:04:37Z</time></trkpt><trkpt lat="42.36647417836428" lon="13.97842494177005"><ele>267.0</ele><time>2026-03-22T10:04:38Z</time></trkpt><trkpt lat="42.36647025672869" lon="13.97860020241325"><ele>266.0</ele><time>2026-03-22T10:04:39Z</time></trkpt><trkpt lat="42.36648016862266" lon="13.978730414306597"><ele>265.0</ele><time>2026-03-22T10:04:40Z</time></trkpt><trkpt lat="42.36650517237298" lon="13.978868060706636"><ele>265.0</ele><time>2026-03-22T10:04:41Z</time></trkpt><trkpt lat="42.36662446667675" lon="13.979012199556031"><ele>265.0</ele><time>2026-03-22T10:04:43Z</time></trkpt><trkpt lat="42.366676873123744" lon="13.979085042773432"><ele>265.0</ele><time>2026-03-22T10:04:44Z</time></trkpt><trkpt lat="42.36666586174622" lon="13.979232225600105"><ele>265.0</ele><time>2026-03-22T10:04:45Z</time></trkpt><trkpt lat="42.36663401561269" lon="13.979414571005979"><ele>263.66666666666663</ele><time>2026-03-22T10:04:46Z</time></trkpt><trkpt lat="42.36662981800031" lon="13.979615176962055"><ele>262.3333333333333</ele><time>2026-03-22T10:04:47Z</time></trkpt><trkpt lat="42.36664000747754" lon="13.979832883352627"><ele>261.0</ele><time>2026-03-22T10:04:48Z</time></trkpt><trkpt lat="42.36664614016796" lon="13.980051264322476"><ele>259.3333333333333</ele><time>2026-03-22T10:04:49Z</time></trkpt><trkpt lat="42.366653762671596" lon="13.98027028033704"><ele>257.66666666666663</ele><time>2026-03-22T10:04:50Z</time></trkpt><trkpt lat="42.36666073643447" lon="13.980494675118575"><ele>256.0</ele><time>2026-03-22T10:04:51Z</time></trkpt><trkpt lat="42.36666739459967" lon="13.980728516255352"><ele>255.5</ele><time>2026-03-22T10:04:52Z</time></trkpt><trkpt lat="42.366686569684845" lon="13.980936222905601"><ele>255.0</ele><time>2026-03-22T10:04:53Z</time></trkpt><trkpt lat="42.36671408625979" lon="13.981128704859454"><ele>254.5</ele><time>2026-03-22T10:04:54Z</time></trkpt><trkpt lat="42.36673615817891" lon="13.981295160496371"><ele>254.0</ele><time>2026-03-22T10:04:55Z</time></trkpt><trkpt lat="42.36674459525062" lon="13.981450380311994"><ele>254.0</ele><time>2026-03-22T10:04:56Z</time></trkpt><trkpt lat="42.36673349742973" lon="13.981569973673471"><ele>253.99999999999997</ele><time>2026-03-22T10:04:57Z</time></trkpt><trkpt lat="42.36670033696743" lon="13.981666248014388"><ele>253.99999999999997</ele><time>2026-03-22T10:04:58Z</time></trkpt><trkpt lat="42.366638057350286" lon="13.981828756033128"><ele>254.0</ele><time>2026-03-22T10:04:59Z</time></trkpt><trkpt lat="42.366657880046674" lon="13.982015637270711"><ele>254.0</ele><time>2026-03-22T10:05:00Z</time></trkpt><trkpt lat="42.36670171975012" lon="13.982202519505687"><ele>253.66666666666669</ele><time>2026-03-22T10:05:01Z</time></trkpt><trkpt lat="42.36668424598022" lon="13.98241683040491"><ele>253.33333333333331</ele><time>2026-03-22T10:05:02Z</time></trkpt><trkpt lat="42.36667674230087" lon="13.982631629604093"><ele>253.0</ele><time>2026-03-22T10:05:03Z</time></trkpt><trkpt lat="42.366723740935036" lon="13.982855532021224"><ele>252.33333333333331</ele><time>2026-03-22T10:05:04Z</time></trkpt><trkpt lat="42.3667595611057" lon="13.983071847674276"><ele>251.66666666666669</ele><time>2026-03-22T10:05:05Z</time></trkpt><trkpt lat="42.366784854843544" lon="13.98330180021085"><ele>251.0</ele><time>2026-03-22T10:05:06Z</time></trkpt><trkpt lat="42.36680906940609" lon="13.983502009542075"><ele>250.33333333333334</ele><time>2026-03-22T10:05:07Z</time></trkpt><trkpt lat="42.366843028126745" lon="13.983697656778276"><ele>249.66666666666669</ele><time>2026-03-22T10:05:08Z</time></trkpt><trkpt lat="42.36688977301048" lon="13.983906685566522"><ele>249.0</ele><time>2026-03-22T10:05:09Z</time></trkpt><trkpt lat="42.3669306164786" lon="13.984093366331019"><ele>248.39999999999998</ele><time>2026-03-22T10:05:10Z</time></trkpt><trkpt lat="42.36695854694537" lon="13.984251101622608"><ele>247.79999999999998</ele><time>2026-03-22T10:05:11Z</time></trkpt><trkpt lat="42.3669926219345" lon="13.984395235839918"><ele>247.20000000000002</ele><time>2026-03-22T10:05:12Z</time></trkpt><trkpt lat="42.3670262462351" lon="13.984512882908064"><ele>246.60000000000002</ele><time>2026-03-22T10:05:13Z</time></trkpt><trkpt lat="42.36706380311069" lon="13.984616279679454"><ele>246.0</ele><time>2026-03-22T10:05:14Z</time></trkpt><trkpt lat="42.36696212492029" lon="13.984741376181102"><ele>246.0</ele><time>2026-03-22T10:05:16Z</time></trkpt><trkpt lat="42.36682739484803" lon="13.984746451170006"><ele>246.0</ele><time>2026-03-22T10:05:17Z</time></trkpt><trkpt lat="42.366696141186964" lon="13.984769358153537"><ele>246.0</ele><time>2026-03-22T10:05:18Z</time></trkpt><trkpt lat="42.36658636219229" lon="13.984809845607657"><ele>246.0</ele><time>2026-03-22T10:05:19Z</time></trkpt><trkpt lat="42.366543274852496" lon="13.984892091004573"><ele>246.0</ele><time>2026-03-22T10:05:20Z</time></trkpt><trkpt lat="42.366541670872415" lon="13.985011988956296"><ele>246.0</ele><time>2026-03-22T10:05:21Z</time></trkpt><trkpt lat="42.36655491391144" lon="13.985207655973527"><ele>246.0</ele><time>2026-03-22T10:05:22Z</time></trkpt><trkpt lat="42.366545720670956" lon="13.985409581680162"><ele>246.0</ele><time>2026-03-22T10:05:23Z</time></trkpt><trkpt lat="42.366534728771825" lon="13.985564250515669"><ele>245.60000000000002</ele><time>2026-03-22T10:05:24Z</time></trkpt><trkpt lat="42.36652127983153" lon="13.985681988754193"><ele>245.20000000000002</ele><time>2026-03-22T10:05:26Z</time></trkpt><trkpt lat="42.36640600958928" lon="13.985668420501954"><ele>244.79999999999998</ele><time>2026-03-22T10:05:29Z</time></trkpt><trkpt lat="42.36632948636485" lon="13.985642059878542"><ele>244.39999999999998</ele><time>2026-03-22T10:05:30Z</time></trkpt><trkpt lat="42.366220901592115" lon="13.985574541892383"><ele>244.0</ele><time>2026-03-22T10:05:31Z</time></trkpt><trkpt lat="42.366104562888076" lon="13.9855763506682"><ele>244.0</ele><time>2026-03-22T10:05:32Z</time></trkpt><trkpt lat="42.36597571319361" lon="13.985582914477382"><ele>244.0</ele><time>2026-03-22T10:05:33Z</time></trkpt><trkpt lat="42.365852338955925" lon="13.985591482006674"><ele>244.0</ele><time>2026-03-22T10:05:34Z</time></trkpt><trkpt lat="42.365710477817466" lon="13.98560474870478"><ele>244.0</ele><time>2026-03-22T10:05:35Z</time></trkpt><trkpt lat="42.36559275727117" lon="13.985616162820696"><ele>244.16666666666666</ele><time>2026-03-22T10:05:36Z</time></trkpt><trkpt lat="42.36548377523693" lon="13.985627204485324"><ele>244.33333333333331</ele><time>2026-03-22T10:05:37Z</time></trkpt><trkpt lat="42.36538864887141" lon="13.985636711161579"><ele>244.5</ele><time>2026-03-22T10:05:38Z</time></trkpt><trkpt lat="42.36531205673461" lon="13.985642628151007"><ele>244.66666666666669</ele><time>2026-03-22T10:05:39Z</time></trkpt><trkpt lat="42.365233057919696" lon="13.985648242183581"><ele>244.83333333333334</ele><time>2026-03-22T10:05:40Z</time></trkpt><trkpt lat="42.36516338469489" lon="13.985649741889423"><ele>245.0</ele><time>2026-03-22T10:05:41Z</time></trkpt><trkpt lat="42.36507581220496" lon="13.985626621997563"><ele>244.0</ele><time>2026-03-22T10:05:43Z</time></trkpt><trkpt lat="42.365053470852274" lon="13.985895785478558"><ele>243.0</ele><time>2026-03-22T10:05:45Z</time></trkpt><trkpt lat="42.36506685788715" lon="13.98606319858854"><ele>242.0</ele><time>2026-03-22T10:05:46Z</time></trkpt><trkpt lat="42.365095168641176" lon="13.98623157492458"><ele>242.0</ele><time>2026-03-22T10:05:47Z</time></trkpt><trkpt lat="42.36512377967055" lon="13.986354016364185"><ele>242.0</ele><time>2026-03-22T10:05:48Z</time></trkpt><trkpt lat="42.36517549565698" lon="13.986405541323709"><ele>242.0</ele><time>2026-03-22T10:05:49Z</time></trkpt><trkpt lat="42.36531822580016" lon="13.986465928927847"><ele>242.0</ele><time>2026-03-22T10:05:51Z</time></trkpt><trkpt lat="42.365429460100216" lon="13.986498635138005"><ele>242.0</ele><time>2026-03-22T10:05:52Z</time></trkpt><trkpt lat="42.365540540132365" lon="13.986576215931775"><ele>240.25</ele><time>2026-03-22T10:05:53Z</time></trkpt><trkpt lat="42.365610959653985" lon="13.986737974207923"><ele>238.5</ele><time>2026-03-22T10:05:54Z</time></trkpt><trkpt lat="42.36569962217171" lon="13.986878029584432"><ele>236.75</ele><time>2026-03-22T10:05:55Z</time></trkpt><trkpt lat="42.365797860477024" lon="13.987003447365725"><ele>235.0</ele><time>2026-03-22T10:05:56Z</time></trkpt><trkpt lat="42.365896733631644" lon="13.987090264674821"><ele>235.0</ele><time>2026-03-22T10:05:57Z</time></trkpt><trkpt lat="42.3660005729371" lon="13.987159545470623"><ele>235.0</ele><time>2026-03-22T10:05:58Z</time></trkpt><trkpt lat="42.36611664708486" lon="13.987205410658827"><ele>235.0</ele><time>2026-03-22T10:05:59Z</time></trkpt><trkpt lat="42.36624128575018" lon="13.987236010677755"><ele>235.0</ele><time>2026-03-22T10:06:00Z</time></trkpt><trkpt lat="42.36635163399671" lon="13.987274824038897"><ele>234.66666666666666</ele><time>2026-03-22T10:06:01Z</time></trkpt><trkpt lat="42.36644587892044" lon="13.987303437263806"><ele>234.33333333333331</ele><time>2026-03-22T10:06:02Z</time></trkpt><trkpt lat="42.366532853609705" lon="13.987310520245412"><ele>234.0</ele><time>2026-03-22T10:06:03Z</time></trkpt><trkpt lat="42.36661063610729" lon="13.987310086395988"><ele>233.66666666666669</ele><time>2026-03-22T10:06:04Z</time></trkpt><trkpt lat="42.366683855139975" lon="13.987308430084422"><ele>233.33333333333334</ele><time>2026-03-22T10:06:05Z</time></trkpt><trkpt lat="42.36676644000041" lon="13.987307912788857"><ele>233.0</ele><time>2026-03-22T10:06:06Z</time></trkpt><trkpt lat="42.36685841475632" lon="13.987328030056858"><ele>233.0</ele><time>2026-03-22T10:06:07Z</time></trkpt><trkpt lat="42.36694178649077" lon="13.987387833220891"><ele>233.0</ele><time>2026-03-22T10:06:08Z</time></trkpt><trkpt lat="42.366974860939024" lon="13.987523603556097"><ele>233.0</ele><time>2026-03-22T10:06:09Z</time></trkpt><trkpt lat="42.367038800116056" lon="13.987619578665685"><ele>233.0</ele><time>2026-03-22T10:06:10Z</time></trkpt><trkpt lat="42.367100328188144" lon="13.987709278239395"><ele>233.0</ele><time>2026-03-22T10:06:11Z</time></trkpt><trkpt lat="42.367191288378784" lon="13.98774653329017"><ele>230.4</ele><time>2026-03-22T10:06:12Z</time></trkpt><trkpt lat="42.36728036157107" lon="13.987763467526973"><ele>227.8</ele><time>2026-03-22T10:06:13Z</time></trkpt><trkpt lat="42.36738003217207" lon="13.98775283641767"><ele>225.2</ele><time>2026-03-22T10:06:14Z</time></trkpt><trkpt lat="42.36747693272165" lon="13.987740560887556"><ele>222.6</ele><time>2026-03-22T10:06:15Z</time></trkpt><trkpt lat="42.36756656957308" lon="13.987699349739943"><ele>220.0</ele><time>2026-03-22T10:06:16Z</time></trkpt><trkpt lat="42.36765773083429" lon="13.987699684256832"><ele>219.99999999999997</ele><time>2026-03-22T10:06:17Z</time></trkpt><trkpt lat="42.36774582005968" lon="13.987683922507067"><ele>220.0</ele><time>2026-03-22T10:06:18Z</time></trkpt><trkpt lat="42.36783602725877" lon="13.987689683353734"><ele>220.0</ele><time>2026-03-22T10:06:19Z</time></trkpt><trkpt lat="42.367922379338125" lon="13.987671723671815"><ele>220.0</ele><time>2026-03-22T10:06:20Z</time></trkpt><trkpt lat="42.368011603899326" lon="13.987666296151174"><ele>219.99999999999997</ele><time>2026-03-22T10:06:21Z</time></trkpt><trkpt lat="42.36809812200227" lon="13.987661887153086"><ele>220.0</ele><time>2026-03-22T10:06:22Z</time></trkpt><trkpt lat="42.368179452481954" lon="13.987647192263195"><ele>218.16666666666666</ele><time>2026-03-22T10:06:23Z</time></trkpt><trkpt lat="42.368245249426515" lon="13.98763670744328"><ele>216.33333333333331</ele><time>2026-03-22T10:06:24Z</time></trkpt><trkpt lat="42.36832163873336" lon="13.987629383938865"><ele>214.5</ele><time>2026-03-22T10:06:26Z</time></trkpt><trkpt lat="42.36832865727227" lon="13.987751339718681"><ele>212.66666666666669</ele><time>2026-03-22T10:06:29Z</time></trkpt><trkpt lat="42.36827676503034" lon="13.987833422079957"><ele>210.83333333333334</ele><time>2026-03-22T10:06:30Z</time></trkpt><trkpt lat="42.36824144851739" lon="13.98793613562179"><ele>209.0</ele><time>2026-03-22T10:06:31Z</time></trkpt><trkpt lat="42.36819973008822" lon="13.988040289379478"><ele>209.0</ele><time>2026-03-22T10:06:32Z</time></trkpt><trkpt lat="42.36815563173793" lon="13.988143098626864"><ele>209.0</ele><time>2026-03-22T10:06:33Z</time></trkpt><trkpt lat="42.36811022538919" lon="13.988252555317738"><ele>209.0</ele><time>2026-03-22T10:06:34Z</time></trkpt><trkpt lat="42.368056184170214" lon="13.98835858003588"><ele>209.0</ele><time>2026-03-22T10:06:35Z</time></trkpt><trkpt lat="42.36799763263145" lon="13.988471497282088"><ele>209.0</ele><time>2026-03-22T10:06:36Z</time></trkpt><trkpt lat="42.36794249098188" lon="13.988593722297113"><ele>209.5</ele><time>2026-03-22T10:06:37Z</time></trkpt><trkpt lat="42.36788219366651" lon="13.988725256916586"><ele>210.0</ele><time>2026-03-22T10:06:38Z</time></trkpt><trkpt lat="42.36783126266652" lon="13.988866696577578"><ele>210.5</ele><time>2026-03-22T10:06:39Z</time></trkpt><trkpt lat="42.36778661934411" lon="13.989014851509419"><ele>211.0</ele><time>2026-03-22T10:06:40Z</time></trkpt><trkpt lat="42.36776886373185" lon="13.989173709058894"><ele>208.5</ele><time>2026-03-22T10:06:41Z</time></trkpt><trkpt lat="42.3677453706383" lon="13.98933810727959"><ele>206.0</ele><time>2026-03-22T10:06:42Z</time></trkpt><trkpt lat="42.36771325755072" lon="13.989488549676663"><ele>203.5</ele><time>2026-03-22T10:06:43Z</time></trkpt><trkpt lat="42.367672957550056" lon="13.989632593085414"><ele>201.0</ele><time>2026-03-22T10:06:44Z</time></trkpt><trkpt lat="42.367617884310796" lon="13.989767644035508"><ele>201.0</ele><time>2026-03-22T10:06:45Z</time></trkpt><trkpt lat="42.36754413246146" lon="13.989897282948105"><ele>201.0</ele><time>2026-03-22T10:06:46Z</time></trkpt><trkpt lat="42.367437035718666" lon="13.990009083317974"><ele>201.0</ele><time>2026-03-22T10:06:47Z</time></trkpt><trkpt lat="42.36734556141668" lon="13.990164443027739"><ele>201.0</ele><time>2026-03-22T10:06:48Z</time></trkpt><trkpt lat="42.36727542532333" lon="13.990332414950803"><ele>200.75</ele><time>2026-03-22T10:06:49Z</time></trkpt><trkpt lat="42.367243881477336" lon="13.990530674263335"><ele>200.5</ele><time>2026-03-22T10:06:50Z</time></trkpt><trkpt lat="42.36722916162137" lon="13.99072892017499"><ele>200.25</ele><time>2026-03-22T10:06:51Z</time></trkpt><trkpt lat="42.36717240104075" lon="13.990904841913277"><ele>200.0</ele><time>2026-03-22T10:06:52Z</time></trkpt><trkpt lat="42.36710385557602" lon="13.99107990708754"><ele>200.0</ele><time>2026-03-22T10:06:53Z</time></trkpt><trkpt lat="42.367027322569676" lon="13.991255206979641"><ele>200.0</ele><time>2026-03-22T10:06:54Z</time></trkpt><trkpt lat="42.36696166790361" lon="13.99143710593376"><ele>200.0</ele><time>2026-03-22T10:06:55Z</time></trkpt><trkpt lat="42.36688965858955" lon="13.991611648781817"><ele>200.0</ele><time>2026-03-22T10:06:56Z</time></trkpt><trkpt lat="42.36682783081994" lon="13.991794105606596"><ele>198.0</ele><time>2026-03-22T10:06:57Z</time></trkpt><trkpt lat="42.366767149502564" lon="13.991975551857918"><ele>196.0</ele><time>2026-03-22T10:06:58Z</time></trkpt><trkpt lat="42.36671011769156" lon="13.992160854924844"><ele>194.0</ele><time>2026-03-22T10:06:59Z</time></trkpt><trkpt lat="42.36666580468672" lon="13.992340365846486"><ele>192.0</ele><time>2026-03-22T10:07:00Z</time></trkpt><trkpt lat="42.36662859058308" lon="13.992521898313916"><ele>190.75</ele><time>2026-03-22T10:07:01Z</time></trkpt><trkpt lat="42.36659577387183" lon="13.992704725756525"><ele>189.5</ele><time>2026-03-22T10:07:02Z</time></trkpt><trkpt lat="42.36656995720339" lon="13.992892992614454"><ele>188.25</ele><time>2026-03-22T10:07:03Z</time></trkpt><trkpt lat="42.36654693757551" lon="13.993083593021387"><ele>187.0</ele><time>2026-03-22T10:07:04Z</time></trkpt><trkpt lat="42.36652028030036" lon="13.993276528549686"><ele>185.25</ele><time>2026-03-22T10:07:05Z</time></trkpt><trkpt lat="42.36648726478019" lon="13.993468858823478"><ele>183.5</ele><time>2026-03-22T10:07:06Z</time></trkpt><trkpt lat="42.3664508403702" lon="13.993662580578306"><ele>181.75</ele><time>2026-03-22T10:07:07Z</time></trkpt><trkpt lat="42.36641720254013" lon="13.993850139000601"><ele>180.0</ele><time>2026-03-22T10:07:08Z</time></trkpt><trkpt lat="42.36638555607369" lon="13.994020750849788"><ele>181.75</ele><time>2026-03-22T10:07:09Z</time></trkpt><trkpt lat="42.36635175187854" lon="13.994179451104914"><ele>183.5</ele><time>2026-03-22T10:07:10Z</time></trkpt><trkpt lat="42.36632093018643" lon="13.99434221292607"><ele>185.25</ele><time>2026-03-22T10:07:11Z</time></trkpt><trkpt lat="42.36628427272688" lon="13.99451665718387"><ele>187.0</ele><time>2026-03-22T10:07:12Z</time></trkpt><trkpt lat="42.36624673105236" lon="13.994699487143638"><ele>187.0</ele><time>2026-03-22T10:07:13Z</time></trkpt><trkpt lat="42.3662094364503" lon="13.99488591757034"><ele>187.0</ele><time>2026-03-22T10:07:14Z</time></trkpt><trkpt lat="42.36617137649934" lon="13.995079425455112"><ele>187.0</ele><time>2026-03-22T10:07:15Z</time></trkpt><trkpt lat="42.366131039228826" lon="13.995272025948182"><ele>187.0</ele><time>2026-03-22T10:07:16Z</time></trkpt><trkpt lat="42.366087306596725" lon="13.995467293120868"><ele>185.66666666666669</ele><time>2026-03-22T10:07:17Z</time></trkpt><trkpt lat="42.36604166050937" lon="13.995665375245723"><ele>184.33333333333334</ele><time>2026-03-22T10:07:18Z</time></trkpt><trkpt lat="42.365991764057014" lon="13.995859470143127"><ele>183.0</ele><time>2026-03-22T10:07:19Z</time></trkpt><trkpt lat="42.3659423859936" lon="13.996059825957236"><ele>180.0</ele><time>2026-03-22T10:07:20Z</time></trkpt><trkpt lat="42.36589657510646" lon="13.996262094928118"><ele>177.0</ele><time>2026-03-22T10:07:21Z</time></trkpt><trkpt lat="42.36583404360253" lon="13.996461047233657"><ele>174.0</ele><time>2026-03-22T10:07:22Z</time></trkpt><trkpt lat="42.36579042828187" lon="13.996654188971924"><ele>172.0</ele><time>2026-03-22T10:07:23Z</time></trkpt><trkpt lat="42.36574612421804" lon="13.996848623271648"><ele>170.0</ele><time>2026-03-22T10:07:24Z</time></trkpt><trkpt lat="42.365702999140346" lon="13.997037883426975"><ele>168.0</ele><time>2026-03-22T10:07:25Z</time></trkpt><trkpt lat="42.36565520570384" lon="13.997247631372295"><ele>168.0</ele><time>2026-03-22T10:07:26Z</time></trkpt><trkpt lat="42.365607106283804" lon="13.997457220389505"><ele>168.0</ele><time>2026-03-22T10:07:27Z</time></trkpt><trkpt lat="42.365560119192075" lon="13.997651702203745"><ele>168.0</ele><time>2026-03-22T10:07:28Z</time></trkpt><trkpt lat="42.36551297349696" lon="13.997833336432205"><ele>166.25</ele><time>2026-03-22T10:07:29Z</time></trkpt><trkpt lat="42.3654624416509" lon="13.99801540982883"><ele>164.5</ele><time>2026-03-22T10:07:30Z</time></trkpt><trkpt lat="42.36541281533746" lon="13.998191750876225"><ele>162.75</ele><time>2026-03-22T10:07:31Z</time></trkpt><trkpt lat="42.3653745805907" lon="13.99836375601612"><ele>161.0</ele><time>2026-03-22T10:07:32Z</time></trkpt><trkpt lat="42.36530262461767" lon="13.998531127615326"><ele>158.66666666666666</ele><time>2026-03-22T10:07:33Z</time></trkpt><trkpt lat="42.36523046186882" lon="13.99870443524417"><ele>156.33333333333334</ele><time>2026-03-22T10:07:34Z</time></trkpt><trkpt lat="42.365311491917325" lon="13.999000266320017"><ele>154.0</ele><time>2026-03-22T10:07:35Z</time></trkpt><trkpt lat="42.3653407100788" lon="13.999222933568074"><ele>153.75</ele><time>2026-03-22T10:07:36Z</time></trkpt><trkpt lat="42.36538514178447" lon="13.999409284276794"><ele>153.5</ele><time>2026-03-22T10:07:37Z</time></trkpt><trkpt lat="42.36543956905606" lon="13.999567649787709"><ele>153.25</ele><time>2026-03-22T10:07:38Z</time></trkpt><trkpt lat="42.36549382377839" lon="13.99971348249707"><ele>153.0</ele><time>2026-03-22T10:07:39Z</time></trkpt><trkpt lat="42.36555977569657" lon="13.999850963337545"><ele>153.83333333333334</ele><time>2026-03-22T10:07:40Z</time></trkpt><trkpt lat="42.365644934181844" lon="13.99994635893137"><ele>154.66666666666666</ele><time>2026-03-22T10:07:41Z</time></trkpt><trkpt lat="42.36573215897308" lon="14.000011163516492"><ele>155.5</ele><time>2026-03-22T10:07:42Z</time></trkpt><trkpt lat="42.36581053004389" lon="14.000068498073649"><ele>156.33333333333331</ele><time>2026-03-22T10:07:43Z</time></trkpt><trkpt lat="42.36587355360546" lon="14.00011591707344"><ele>157.16666666666666</ele><time>2026-03-22T10:07:44Z</time></trkpt><trkpt lat="42.365933590129124" lon="14.000151629965075"><ele>158.0</ele><time>2026-03-22T10:07:45Z</time></trkpt><trkpt lat="42.366005742977976" lon="14.000225824556491"><ele>158.0</ele><time>2026-03-22T10:07:47Z</time></trkpt><trkpt lat="42.36594413005838" lon="14.000281732951061"><ele>158.0</ele><time>2026-03-22T10:07:49Z</time></trkpt><trkpt lat="42.36587723352967" lon="14.000258851453124"><ele>158.0</ele><time>2026-03-22T10:07:52Z</time></trkpt><trkpt lat="42.36574391025846" lon="14.000285737324093"><ele>158.0</ele><time>2026-03-22T10:07:57Z</time></trkpt><trkpt lat="42.36542647077418" lon="14.000185178096121"><ele>156.75</ele><time>2026-03-22T10:08:59Z</time></trkpt><trkpt lat="42.36527795905719" lon="14.000051546749306"><ele>155.5</ele><time>2026-03-22T10:09:00Z</time></trkpt><trkpt lat="42.365159731176554" lon="13.99992569902064"><ele>154.25</ele><time>2026-03-22T10:09:01Z</time></trkpt><trkpt lat="42.36509010603843" lon="13.99988792064659"><ele>153.0</ele><time>2026-03-22T10:09:02Z</time></trkpt><trkpt lat="42.364971314971775" lon="13.999973549119737"><ele>153.0</ele><time>2026-03-22T10:09:04Z</time></trkpt><trkpt lat="42.3649279478567" lon="14.000040616039842"><ele>153.0</ele><time>2026-03-22T10:09:05Z</time></trkpt><trkpt lat="42.364949662482886" lon="14.000250510517887"><ele>153.0</ele><time>2026-03-22T10:09:06Z</time></trkpt><trkpt lat="42.36494634115949" lon="14.000450401529443"><ele>153.0</ele><time>2026-03-22T10:09:07Z</time></trkpt><trkpt lat="42.36493779132876" lon="14.000622856336067"><ele>153.0</ele><time>2026-03-22T10:09:08Z</time></trkpt><trkpt lat="42.36493941483416" lon="14.000797531654742"><ele>153.0</ele><time>2026-03-22T10:09:09Z</time></trkpt><trkpt lat="42.36493444246563" lon="14.000987601294963"><ele>153.0</ele><time>2026-03-22T10:09:10Z</time></trkpt><trkpt lat="42.36493879014797" lon="14.001190395479142"><ele>153.0</ele><time>2026-03-22T10:09:11Z</time></trkpt><trkpt lat="42.364962004597594" lon="14.001447311681066"><ele>152.33333333333334</ele><time>2026-03-22T10:09:12Z</time></trkpt><trkpt lat="42.36497648244976" lon="14.001753578524184"><ele>151.66666666666669</ele><time>2026-03-22T10:09:13Z</time></trkpt><trkpt lat="42.36497712553559" lon="14.001976794547671"><ele>151.0</ele><time>2026-03-22T10:09:14Z</time></trkpt><trkpt lat="42.36497754464108" lon="14.00217440238235"><ele>151.0</ele><time>2026-03-22T10:09:15Z</time></trkpt><trkpt lat="42.36494135380877" lon="14.002364260126667"><ele>151.0</ele><time>2026-03-22T10:09:16Z</time></trkpt><trkpt lat="42.36490400942364" lon="14.002548458672356"><ele>151.0</ele><time>2026-03-22T10:09:17Z</time></trkpt><trkpt lat="42.364859461163704" lon="14.002715280146726"><ele>151.0</ele><time>2026-03-22T10:09:18Z</time></trkpt><trkpt lat="42.36478871074172" lon="14.00289887251641"><ele>150.66666666666669</ele><time>2026-03-22T10:09:19Z</time></trkpt><trkpt lat="42.3647044446839" lon="14.00313112792156"><ele>150.33333333333334</ele><time>2026-03-22T10:09:20Z</time></trkpt><trkpt lat="42.36462899025982" lon="14.003400646301733"><ele>150.0</ele><time>2026-03-22T10:09:21Z</time></trkpt><trkpt lat="42.36458542902951" lon="14.003627696078233"><ele>150.0</ele><time>2026-03-22T10:09:22Z</time></trkpt><trkpt lat="42.36453881938517" lon="14.00378693267751"><ele>150.0</ele><time>2026-03-22T10:09:23Z</time></trkpt><trkpt lat="42.36443692609712" lon="14.003910714233358"><ele>150.0</ele><time>2026-03-22T10:09:25Z</time></trkpt><trkpt lat="42.364381112531234" lon="14.004008993919282"><ele>150.0</ele><time>2026-03-22T10:09:26Z</time></trkpt><trkpt lat="42.36432654692615" lon="14.004095822174502"><ele>150.0</ele><time>2026-03-22T10:09:28Z</time></trkpt><trkpt lat="42.36429631143973" lon="14.004197708011338"><ele>149.4</ele><time>2026-03-22T10:09:30Z</time></trkpt><trkpt lat="42.36430699115145" lon="14.004347942390018"><ele>148.8</ele><time>2026-03-22T10:09:31Z</time></trkpt><trkpt lat="42.36424383160551" lon="14.004399485035949"><ele>148.2</ele><time>2026-03-22T10:09:32Z</time></trkpt><trkpt lat="42.36417427306455" lon="14.004512704867466"><ele>147.6</ele><time>2026-03-22T10:09:33Z</time></trkpt><trkpt lat="42.36402981343027" lon="14.004515440985049"><ele>147.0</ele><time>2026-03-22T10:09:34Z</time></trkpt><trkpt lat="42.36393604118795" lon="14.004651953342826"><ele>146.75</ele><time>2026-03-22T10:09:35Z</time></trkpt><trkpt lat="42.363858642831616" lon="14.004769810462237"><ele>146.5</ele><time>2026-03-22T10:09:36Z</time></trkpt><trkpt lat="42.36378753412252" lon="14.004880760069213"><ele>146.25</ele><time>2026-03-22T10:09:37Z</time></trkpt><trkpt lat="42.36372202742752" lon="14.004984369591778"><ele>146.0</ele><time>2026-03-22T10:09:38Z</time></trkpt><trkpt lat="42.363621904323516" lon="14.005145643940066"><ele>145.33333333333331</ele><time>2026-03-22T10:09:39Z</time></trkpt><trkpt lat="42.36354148264736" lon="14.005310187030455"><ele>144.66666666666666</ele><time>2026-03-22T10:09:40Z</time></trkpt><trkpt lat="42.363430938877706" lon="14.00550855129716"><ele>144.0</ele><time>2026-03-22T10:09:41Z</time></trkpt><trkpt lat="42.36334924674204" lon="14.005648236802584"><ele>144.0</ele><time>2026-03-22T10:09:42Z</time></trkpt><trkpt lat="42.36329707201815" lon="14.005788756170206"><ele>144.0</ele><time>2026-03-22T10:09:43Z</time></trkpt><trkpt lat="42.36333985179859" lon="14.005912645139022"><ele>144.0</ele><time>2026-03-22T10:09:44Z</time></trkpt><trkpt lat="42.36338794029272" lon="14.0059826010109"><ele>144.0</ele><time>2026-03-22T10:09:45Z</time></trkpt><trkpt lat="42.36348351057997" lon="14.005994841845913"><ele>144.0</ele><time>2026-03-22T10:09:46Z</time></trkpt><trkpt lat="42.36361073680611" lon="14.006026803547778"><ele>144.33333333333334</ele><time>2026-03-22T10:09:47Z</time></trkpt><trkpt lat="42.363778898415354" lon="14.006105589581262"><ele>144.66666666666669</ele><time>2026-03-22T10:09:48Z</time></trkpt><trkpt lat="42.363935664495166" lon="14.0061747254633"><ele>145.0</ele><time>2026-03-22T10:09:49Z</time></trkpt><trkpt lat="42.364064622162054" lon="14.006234876380486"><ele>145.0</ele><time>2026-03-22T10:09:50Z</time></trkpt><trkpt lat="42.36414763892995" lon="14.006283231628183"><ele>145.0</ele><time>2026-03-22T10:09:51Z</time></trkpt><trkpt lat="42.36421773141413" lon="14.00628960062707"><ele>145.0</ele><time>2026-03-22T10:09:52Z</time></trkpt><trkpt lat="42.36431552208298" lon="14.006300164378864"><ele>145.0</ele><time>2026-03-22T10:09:53Z</time></trkpt><trkpt lat="42.364386727515246" lon="14.006294437640486"><ele>145.0</ele><time>2026-03-22T10:09:54Z</time></trkpt><trkpt lat="42.364466553780616" lon="14.00637227427964"><ele>145.0</ele><time>2026-03-22T10:09:56Z</time></trkpt><trkpt lat="42.364452521347665" lon="14.006475262827909"><ele>145.0</ele><time>2026-03-22T10:09:58Z</time></trkpt><trkpt lat="42.364429252290606" lon="14.006556966101375"><ele>145.0</ele><time>2026-03-22T10:09:59Z</time></trkpt><trkpt lat="42.36438189442559" lon="14.006687077817293"><ele>145.0</ele><time>2026-03-22T10:10:00Z</time></trkpt><trkpt lat="42.364318330922615" lon="14.006856989817189"><ele>145.0</ele><time>2026-03-22T10:10:01Z</time></trkpt><trkpt lat="42.36425286496715" lon="14.007033157785173"><ele>146.0</ele><time>2026-03-22T10:10:02Z</time></trkpt><trkpt lat="42.364190440580636" lon="14.007239670869136"><ele>147.0</ele><time>2026-03-22T10:10:03Z</time></trkpt><trkpt lat="42.36415339141889" lon="14.007434597746407"><ele>148.0</ele><time>2026-03-22T10:10:04Z</time></trkpt><trkpt lat="42.364116479238135" lon="14.00762007075506"><ele>149.33333333333334</ele><time>2026-03-22T10:10:05Z</time></trkpt><trkpt lat="42.3640486592138" lon="14.0078527296113"><ele>150.66666666666666</ele><time>2026-03-22T10:10:06Z</time></trkpt><trkpt lat="42.363971126473245" lon="14.008089660168427"><ele>152.0</ele><time>2026-03-22T10:10:07Z</time></trkpt><trkpt lat="42.36391779574612" lon="14.008281792522968"><ele>152.4</ele><time>2026-03-22T10:10:08Z</time></trkpt><trkpt lat="42.363867857373506" lon="14.008453776299918"><ele>152.79999999999998</ele><time>2026-03-22T10:10:09Z</time></trkpt><trkpt lat="42.36384419735823" lon="14.008593978077316"><ele>153.2</ele><time>2026-03-22T10:10:10Z</time></trkpt><trkpt lat="42.36382235689461" lon="14.008699899778911"><ele>153.6</ele><time>2026-03-22T10:10:11Z</time></trkpt><trkpt lat="42.36381453903694" lon="14.008815632164515"><ele>154.0</ele><time>2026-03-22T10:10:13Z</time></trkpt><trkpt lat="42.36387249124021" lon="14.008851595502437"><ele>154.0</ele><time>2026-03-22T10:10:14Z</time></trkpt><trkpt lat="42.36396160512233" lon="14.008868008475826"><ele>154.0</ele><time>2026-03-22T10:10:15Z</time></trkpt><trkpt lat="42.36406602077924" lon="14.008895207480348"><ele>154.0</ele><time>2026-03-22T10:10:16Z</time></trkpt><trkpt lat="42.36413523587339" lon="14.008977993466134"><ele>154.0</ele><time>2026-03-22T10:10:17Z</time></trkpt><trkpt lat="42.36415726084953" lon="14.0091096789219"><ele>154.0</ele><time>2026-03-22T10:10:18Z</time></trkpt><trkpt lat="42.3641796726717" lon="14.009259237267694"><ele>153.25</ele><time>2026-03-22T10:10:19Z</time></trkpt><trkpt lat="42.36418681768749" lon="14.00941658884542"><ele>152.5</ele><time>2026-03-22T10:10:20Z</time></trkpt><trkpt lat="42.36413999979639" lon="14.009596816839897"><ele>151.75</ele><time>2026-03-22T10:10:21Z</time></trkpt><trkpt lat="42.36407304465153" lon="14.009795112963328"><ele>151.0</ele><time>2026-03-22T10:10:22Z</time></trkpt><trkpt lat="42.36400719986132" lon="14.010014941282328"><ele>150.66666666666669</ele><time>2026-03-22T10:10:23Z</time></trkpt><trkpt lat="42.36394439211156" lon="14.010239528122579"><ele>150.33333333333334</ele><time>2026-03-22T10:10:24Z</time></trkpt><trkpt lat="42.36388267613113" lon="14.010472739331078"><ele>150.0</ele><time>2026-03-22T10:10:25Z</time></trkpt><trkpt lat="42.36383598559356" lon="14.01070639484849"><ele>148.0</ele><time>2026-03-22T10:10:26Z</time></trkpt><trkpt lat="42.363794099771184" lon="14.010962020643756"><ele>146.0</ele><time>2026-03-22T10:10:27Z</time></trkpt><trkpt lat="42.363758505911086" lon="14.011191057111997"><ele>144.0</ele><time>2026-03-22T10:10:28Z</time></trkpt><trkpt lat="42.36370565284765" lon="14.011439131330148"><ele>143.66666666666666</ele><time>2026-03-22T10:10:29Z</time></trkpt><trkpt lat="42.36365919362429" lon="14.011683896199699"><ele>143.33333333333331</ele><time>2026-03-22T10:10:30Z</time></trkpt><trkpt lat="42.363610999249744" lon="14.011928814793368"><ele>143.0</ele><time>2026-03-22T10:10:31Z</time></trkpt><trkpt lat="42.363561442170386" lon="14.012174512270965"><ele>143.0</ele><time>2026-03-22T10:10:32Z</time></trkpt><trkpt lat="42.36351025188166" lon="14.012426524272003"><ele>143.0</ele><time>2026-03-22T10:10:33Z</time></trkpt><trkpt lat="42.363456376490475" lon="14.012666680199274"><ele>143.0</ele><time>2026-03-22T10:10:34Z</time></trkpt><trkpt lat="42.3634146855724" lon="14.012893825776429"><ele>143.0</ele><time>2026-03-22T10:10:35Z</time></trkpt><trkpt lat="42.36337681084955" lon="14.013093488555088"><ele>143.0</ele><time>2026-03-22T10:10:36Z</time></trkpt><trkpt lat="42.36334523174322" lon="14.013265363968333"><ele>143.0</ele><time>2026-03-22T10:10:37Z</time></trkpt><trkpt lat="42.363325536494685" lon="14.013423852321464"><ele>143.0</ele><time>2026-03-22T10:10:38Z</time></trkpt><trkpt lat="42.36332005575757" lon="14.013568798244876"><ele>142.8</ele><time>2026-03-22T10:10:39Z</time></trkpt><trkpt lat="42.36331902109194" lon="14.013703543648386"><ele>142.60000000000002</ele><time>2026-03-22T10:10:40Z</time></trkpt><trkpt lat="42.36329043892924" lon="14.013792257863043"><ele>142.39999999999998</ele><time>2026-03-22T10:10:41Z</time></trkpt><trkpt lat="42.36319901739227" lon="14.013806845644343"><ele>142.2</ele><time>2026-03-22T10:10:42Z</time></trkpt><trkpt lat="42.36310885042224" lon="14.013771979673034"><ele>142.0</ele><time>2026-03-22T10:10:43Z</time></trkpt><trkpt lat="42.36301450090473" lon="14.013704640118346"><ele>141.0</ele><time>2026-03-22T10:10:44Z</time></trkpt><trkpt lat="42.36290754465049" lon="14.013619698785416"><ele>140.0</ele><time>2026-03-22T10:10:45Z</time></trkpt><trkpt lat="42.362790898075815" lon="14.013531985379547"><ele>139.0</ele><time>2026-03-22T10:10:46Z</time></trkpt><trkpt lat="42.362652147323885" lon="14.013467931276972"><ele>138.0</ele><time>2026-03-22T10:10:47Z</time></trkpt><trkpt lat="42.36254452526919" lon="14.013411853118491"><ele>138.0</ele><time>2026-03-22T10:10:48Z</time></trkpt><trkpt lat="42.362444103518044" lon="14.013367434015263"><ele>138.0</ele><time>2026-03-22T10:10:49Z</time></trkpt><trkpt lat="42.362319723375315" lon="14.013315300372478"><ele>138.0</ele><time>2026-03-22T10:10:50Z</time></trkpt><trkpt lat="42.3622121908303" lon="14.013280179387607"><ele>138.0</ele><time>2026-03-22T10:10:51Z</time></trkpt><trkpt lat="42.36211037886091" lon="14.013245064499435"><ele>137.8</ele><time>2026-03-22T10:10:52Z</time></trkpt><trkpt lat="42.36200794531583" lon="14.013212155209066"><ele>137.60000000000002</ele><time>2026-03-22T10:10:53Z</time></trkpt><trkpt lat="42.36191417605792" lon="14.013178051729506"><ele>137.39999999999998</ele><time>2026-03-22T10:10:54Z</time></trkpt><trkpt lat="42.36181543752051" lon="14.013144504733765"><ele>137.2</ele><time>2026-03-22T10:10:55Z</time></trkpt><trkpt lat="42.36171538977108" lon="14.013114797647509"><ele>137.0</ele><time>2026-03-22T10:10:56Z</time></trkpt><trkpt lat="42.36161406359684" lon="14.013082860618677"><ele>137.0</ele><time>2026-03-22T10:10:57Z</time></trkpt><trkpt lat="42.361530256467105" lon="14.013049607336828"><ele>137.0</ele><time>2026-03-22T10:10:58Z</time></trkpt><trkpt lat="42.36144542439119" lon="14.013021469891184"><ele>137.0</ele><time>2026-03-22T10:10:59Z</time></trkpt><trkpt lat="42.36135618347803" lon="14.012999766262837"><ele>137.0</ele><time>2026-03-22T10:11:00Z</time></trkpt><trkpt lat="42.36127349356563" lon="14.012972588915066"><ele>137.0</ele><time>2026-03-22T10:11:01Z</time></trkpt><trkpt lat="42.3611915458387" lon="14.012968747516869"><ele>137.0</ele><time>2026-03-22T10:11:02Z</time></trkpt><trkpt lat="42.3611261488711" lon="14.012988461009515"><ele>137.0</ele><time>2026-03-22T10:11:03Z</time></trkpt><trkpt lat="42.36103439722258" lon="14.013092028129536"><ele>137.0</ele><time>2026-03-22T10:11:05Z</time></trkpt><trkpt lat="42.3609872646116" lon="14.013248724976174"><ele>137.0</ele><time>2026-03-22T10:11:07Z</time></trkpt><trkpt lat="42.36095380368164" lon="14.013342291996672"><ele>137.0</ele><time>2026-03-22T10:11:08Z</time></trkpt><trkpt lat="42.36093479078305" lon="14.01344808294466"><ele>137.0</ele><time>2026-03-22T10:11:09Z</time></trkpt><trkpt lat="42.36090823062822" lon="14.013537060574338"><ele>136.79999999999998</ele><time>2026-03-22T10:11:10Z</time></trkpt><trkpt lat="42.36088422618462" lon="14.013633753249863"><ele>136.6</ele><time>2026-03-22T10:11:11Z</time></trkpt><trkpt lat="42.36085856860392" lon="14.013754221698285"><ele>136.39999999999998</ele><time>2026-03-22T10:11:12Z</time></trkpt><trkpt lat="42.360851797859134" lon="14.013890428203986"><ele>136.2</ele><time>2026-03-22T10:11:13Z</time></trkpt><trkpt lat="42.36085668262601" lon="14.01404147202573"><ele>136.0</ele><time>2026-03-22T10:11:14Z</time></trkpt><trkpt lat="42.360859951266946" lon="14.01419804045541"><ele>136.0</ele><time>2026-03-22T10:11:15Z</time></trkpt><trkpt lat="42.360861393088626" lon="14.014360496247967"><ele>136.0</ele><time>2026-03-22T10:11:16Z</time></trkpt><trkpt lat="42.360858600096385" lon="14.014538609313055"><ele>136.0</ele><time>2026-03-22T10:11:17Z</time></trkpt><trkpt lat="42.36086280615322" lon="14.014730674758594"><ele>136.0</ele><time>2026-03-22T10:11:18Z</time></trkpt><trkpt lat="42.360866264643775" lon="14.01492082313581"><ele>135.75</ele><time>2026-03-22T10:11:19Z</time></trkpt><trkpt lat="42.36087157052461" lon="14.01511134927119"><ele>135.5</ele><time>2026-03-22T10:11:20Z</time></trkpt><trkpt lat="42.3608796541467" lon="14.015314217983418"><ele>135.25</ele><time>2026-03-22T10:11:21Z</time></trkpt><trkpt lat="42.36089507355538" lon="14.015521725128181"><ele>135.0</ele><time>2026-03-22T10:11:22Z</time></trkpt><trkpt lat="42.36089518836044" lon="14.015717825274326"><ele>134.6</ele><time>2026-03-22T10:11:23Z</time></trkpt><trkpt lat="42.360895152414166" lon="14.015877816060605"><ele>134.2</ele><time>2026-03-22T10:11:24Z</time></trkpt><trkpt lat="42.36090773870708" lon="14.016012851813853"><ele>133.8</ele><time>2026-03-22T10:11:25Z</time></trkpt><trkpt lat="42.36093753462285" lon="14.016150461530492"><ele>133.4</ele><time>2026-03-22T10:11:26Z</time></trkpt><trkpt lat="42.360994406840774" lon="14.016237159458683"><ele>133.0</ele><time>2026-03-22T10:11:27Z</time></trkpt><trkpt lat="42.36107755020148" lon="14.016295827725353"><ele>133.0</ele><time>2026-03-22T10:11:28Z</time></trkpt><trkpt lat="42.36117815526403" lon="14.016342945840567"><ele>133.0</ele><time>2026-03-22T10:11:29Z</time></trkpt><trkpt lat="42.36129384222342" lon="14.016377727661014"><ele>133.0</ele><time>2026-03-22T10:11:30Z</time></trkpt><trkpt lat="42.36140763120082" lon="14.01642083733464"><ele>133.0</ele><time>2026-03-22T10:11:31Z</time></trkpt><trkpt lat="42.36151165430823" lon="14.016481564754118"><ele>133.16666666666669</ele><time>2026-03-22T10:11:32Z</time></trkpt><trkpt lat="42.36159620289634" lon="14.016531788696955"><ele>133.33333333333334</ele><time>2026-03-22T10:11:33Z</time></trkpt><trkpt lat="42.36166024665008" lon="14.016595231875211"><ele>133.5</ele><time>2026-03-22T10:11:34Z</time></trkpt><trkpt lat="42.36170059765313" lon="14.016662800391785"><ele>133.66666666666666</ele><time>2026-03-22T10:11:35Z</time></trkpt><trkpt lat="42.36173136027498" lon="14.016760759846028"><ele>133.83333333333331</ele><time>2026-03-22T10:11:36Z</time></trkpt><trkpt lat="42.36173755901838" lon="14.016883390584075"><ele>134.0</ele><time>2026-03-22T10:11:38Z</time></trkpt><trkpt lat="42.36169614472454" lon="14.017022885784154"><ele>133.6</ele><time>2026-03-22T10:11:40Z</time></trkpt><trkpt lat="42.361691265149034" lon="14.017132271065766"><ele>133.2</ele><time>2026-03-22T10:11:41Z</time></trkpt><trkpt lat="42.36167181244616" lon="14.017260298718583"><ele>132.79999999999998</ele><time>2026-03-22T10:11:42Z</time></trkpt><trkpt lat="42.3616095325516" lon="14.017396381971393"><ele>132.4</ele><time>2026-03-22T10:11:43Z</time></trkpt><trkpt lat="42.36154870550522" lon="14.017553875187836"><ele>132.0</ele><time>2026-03-22T10:11:44Z</time></trkpt><trkpt lat="42.36148765424581" lon="14.017730231751987"><ele>131.79999999999998</ele><time>2026-03-22T10:11:45Z</time></trkpt><trkpt lat="42.361428485132144" lon="14.017890994884686"><ele>131.6</ele><time>2026-03-22T10:11:46Z</time></trkpt><trkpt lat="42.3613851732076" lon="14.018032031454487"><ele>131.39999999999998</ele><time>2026-03-22T10:11:47Z</time></trkpt><trkpt lat="42.361347384891914" lon="14.018132850451787"><ele>131.2</ele><time>2026-03-22T10:11:48Z</time></trkpt><trkpt lat="42.361297940168264" lon="14.018217099966956"><ele>131.0</ele><time>2026-03-22T10:11:49Z</time></trkpt><trkpt lat="42.36122637028033" lon="14.018237958718831"><ele>131.0</ele><time>2026-03-22T10:11:50Z</time></trkpt><trkpt lat="42.36114109228952" lon="14.018214501818758"><ele>131.0</ele><time>2026-03-22T10:11:51Z</time></trkpt><trkpt lat="42.36104586321376" lon="14.018222912272286"><ele>131.0</ele><time>2026-03-22T10:11:52Z</time></trkpt><trkpt lat="42.360948544374494" lon="14.018231755838002"><ele>131.0</ele><time>2026-03-22T10:11:53Z</time></trkpt><trkpt lat="42.360860977329814" lon="14.01825005384665"><ele>131.0</ele><time>2026-03-22T10:11:54Z</time></trkpt><trkpt lat="42.36078398865173" lon="14.01826633851857"><ele>131.0</ele><time>2026-03-22T10:11:55Z</time></trkpt><trkpt lat="42.360691514296505" lon="14.018316737393722"><ele>131.0</ele><time>2026-03-22T10:11:57Z</time></trkpt><trkpt lat="42.36067847712257" lon="14.018469851904674"><ele>131.0</ele><time>2026-03-22T10:11:59Z</time></trkpt><trkpt lat="42.36068668910783" lon="14.018567996985144"><ele>131.0</ele><time>2026-03-22T10:12:00Z</time></trkpt><trkpt lat="42.36067646894306" lon="14.018653934590079"><ele>131.0</ele><time>2026-03-22T10:12:01Z</time></trkpt><trkpt lat="42.3606938140087" lon="14.01877380130217"><ele>131.0</ele><time>2026-03-22T10:12:03Z</time></trkpt><trkpt lat="42.36071042722757" lon="14.018919066800224"><ele>131.0</ele><time>2026-03-22T10:12:05Z</time></trkpt><trkpt lat="42.360701009046146" lon="14.019039897245822"><ele>131.0</ele><time>2026-03-22T10:12:06Z</time></trkpt><trkpt lat="42.3606995105128" lon="14.019179660128167"><ele>131.0</ele><time>2026-03-22T10:12:07Z</time></trkpt><trkpt lat="42.36071470968068" lon="14.019308851705885"><ele>131.0</ele><time>2026-03-22T10:12:08Z</time></trkpt><trkpt lat="42.36071469586292" lon="14.0194220216348"><ele>131.0</ele><time>2026-03-22T10:12:09Z</time></trkpt><trkpt lat="42.360710517595194" lon="14.019549909030047"><ele>130.6</ele><time>2026-03-22T10:12:10Z</time></trkpt><trkpt lat="42.360708131001104" lon="14.019696829370762"><ele>130.2</ele><time>2026-03-22T10:12:11Z</time></trkpt><trkpt lat="42.3607134461583" lon="14.019849387022076"><ele>129.8</ele><time>2026-03-22T10:12:12Z</time></trkpt><trkpt lat="42.36072478950358" lon="14.01999979777183"><ele>129.4</ele><time>2026-03-22T10:12:13Z</time></trkpt><trkpt lat="42.36072357285772" lon="14.020149632891819"><ele>129.0</ele><time>2026-03-22T10:12:14Z</time></trkpt><trkpt lat="42.3607219601901" lon="14.020297501658677"><ele>128.75</ele><time>2026-03-22T10:12:15Z</time></trkpt><trkpt lat="42.36071904384884" lon="14.020462767171265"><ele>128.5</ele><time>2026-03-22T10:12:16Z</time></trkpt><trkpt lat="42.36072354806529" lon="14.020638927629081"><ele>128.25</ele><time>2026-03-22T10:12:17Z</time></trkpt><trkpt lat="42.360727850508404" lon="14.020803455116488"><ele>128.0</ele><time>2026-03-22T10:12:18Z</time></trkpt><trkpt lat="42.3607348234881" lon="14.020970209005544"><ele>128.0</ele><time>2026-03-22T10:12:19Z</time></trkpt><trkpt lat="42.360725014450374" lon="14.021114714571798"><ele>128.0</ele><time>2026-03-22T10:12:20Z</time></trkpt><trkpt lat="42.36072374287925" lon="14.021235468102267"><ele>128.0</ele><time>2026-03-22T10:12:21Z</time></trkpt><trkpt lat="42.36073059942865" lon="14.021336590791377"><ele>128.0</ele><time>2026-03-22T10:12:22Z</time></trkpt><trkpt lat="42.36074014619202" lon="14.021481473132964"><ele>128.0</ele><time>2026-03-22T10:12:24Z</time></trkpt><trkpt lat="42.36068650738025" lon="14.021554512060652"><ele>128.0</ele><time>2026-03-22T10:12:52Z</time></trkpt><trkpt lat="42.36076024078314" lon="14.021529595068397"><ele>128.0</ele><time>2026-03-22T10:12:55Z</time></trkpt><trkpt lat="42.36074340680222" lon="14.02138778659992"><ele>128.0</ele><time>2026-03-22T10:12:57Z</time></trkpt><trkpt lat="42.360713357939794" lon="14.02129159098181"><ele>128.0</ele><time>2026-03-22T10:12:58Z</time></trkpt><trkpt lat="42.36071156572005" lon="14.021166441009166"><ele>128.0</ele><time>2026-03-22T10:12:59Z</time></trkpt><trkpt lat="42.3607107875303" lon="14.021025738286866"><ele>128.0</ele><time>2026-03-22T10:13:00Z</time></trkpt><trkpt lat="42.36071518446244" lon="14.020882886913762"><ele>128.0</ele><time>2026-03-22T10:13:01Z</time></trkpt><trkpt lat="42.36072063357204" lon="14.020739983200347"><ele>128.0</ele><time>2026-03-22T10:13:02Z</time></trkpt><trkpt lat="42.36071245804953" lon="14.020612196639641"><ele>128.0</ele><time>2026-03-22T10:13:03Z</time></trkpt><trkpt lat="42.360694012143796" lon="14.020472587456377"><ele>128.0</ele><time>2026-03-22T10:13:04Z</time></trkpt><trkpt lat="42.360692190780775" lon="14.020310695146616"><ele>128.0</ele><time>2026-03-22T10:13:05Z</time></trkpt><trkpt lat="42.36068847624885" lon="14.020148116680614"><ele>128.0</ele><time>2026-03-22T10:13:06Z</time></trkpt><trkpt lat="42.36067900367799" lon="14.019980837790362"><ele>128.0</ele><time>2026-03-22T10:13:07Z</time></trkpt><trkpt lat="42.36068223651631" lon="14.019801639862372"><ele>128.0</ele><time>2026-03-22T10:13:08Z</time></trkpt><trkpt lat="42.36068596093571" lon="14.01961490284074"><ele>128.25</ele><time>2026-03-22T10:13:09Z</time></trkpt><trkpt lat="42.36069384896965" lon="14.019427107544438"><ele>128.5</ele><time>2026-03-22T10:13:10Z</time></trkpt><trkpt lat="42.36069602460977" lon="14.019243577291373"><ele>128.75</ele><time>2026-03-22T10:13:11Z</time></trkpt><trkpt lat="42.36069929675914" lon="14.01907596328156"><ele>129.0</ele><time>2026-03-22T10:13:12Z</time></trkpt><trkpt lat="42.360693183571755" lon="14.018918235211405"><ele>129.33333333333334</ele><time>2026-03-22T10:13:13Z</time></trkpt><trkpt lat="42.36068437629631" lon="14.018788539153148"><ele>129.66666666666666</ele><time>2026-03-22T10:13:14Z</time></trkpt><trkpt lat="42.36068283116863" lon="14.018680252569455"><ele>130.0</ele><time>2026-03-22T10:13:15Z</time></trkpt><trkpt lat="42.360682248486995" lon="14.018579143939863"><ele>130.33333333333331</ele><time>2026-03-22T10:13:16Z</time></trkpt><trkpt lat="42.36067962505858" lon="14.018492613830183"><ele>130.66666666666666</ele><time>2026-03-22T10:13:17Z</time></trkpt><trkpt lat="42.36067804210446" lon="14.018357608562166"><ele>131.0</ele><time>2026-03-22T10:13:19Z</time></trkpt><trkpt lat="42.36071041081179" lon="14.01826506762307"><ele>131.0</ele><time>2026-03-22T10:13:21Z</time></trkpt><trkpt lat="42.360792524472565" lon="14.018240106566328"><ele>131.0</ele><time>2026-03-22T10:13:23Z</time></trkpt><trkpt lat="42.36093621591236" lon="14.018229932424502"><ele>131.0</ele><time>2026-03-22T10:13:25Z</time></trkpt><trkpt lat="42.361040153004254" lon="14.018219999506941"><ele>131.0</ele><time>2026-03-22T10:13:26Z</time></trkpt><trkpt lat="42.36115328796628" lon="14.018197184442416"><ele>131.0</ele><time>2026-03-22T10:13:27Z</time></trkpt><trkpt lat="42.36123581818112" lon="14.01818083407044"><ele>131.0</ele><time>2026-03-22T10:13:28Z</time></trkpt><trkpt lat="42.36133654316006" lon="14.018140481439763"><ele>131.0</ele><time>2026-03-22T10:13:30Z</time></trkpt><trkpt lat="42.3613680566303" lon="14.018025981204536"><ele>131.0</ele><time>2026-03-22T10:13:32Z</time></trkpt><trkpt lat="42.361349703180906" lon="14.017907216581944"><ele>131.0</ele><time>2026-03-22T10:13:34Z</time></trkpt><trkpt lat="42.3614165509234" lon="14.017905829517883"><ele>131.0</ele><time>2026-03-22T10:13:36Z</time></trkpt><trkpt lat="42.36140812073348" lon="14.018003823813396"><ele>131.0</ele><time>2026-03-22T10:13:38Z</time></trkpt><trkpt lat="42.361347844903236" lon="14.018095349762266"><ele>131.0</ele><time>2026-03-22T10:13:40Z</time></trkpt><trkpt lat="42.361283427699576" lon="14.01821029421559"><ele>131.0</ele><time>2026-03-22T10:13:42Z</time></trkpt><trkpt lat="42.36115999794969" lon="14.018226149740284"><ele>131.0</ele><time>2026-03-22T10:13:44Z</time></trkpt><trkpt lat="42.3610814756306" lon="14.01823416910815"><ele>131.0</ele><time>2026-03-22T10:13:45Z</time></trkpt><trkpt lat="42.36098926208284" lon="14.018246538294125"><ele>131.0</ele><time>2026-03-22T10:13:46Z</time></trkpt><trkpt lat="42.36088270266536" lon="14.018262953165216"><ele>131.0</ele><time>2026-03-22T10:13:47Z</time></trkpt><trkpt lat="42.360794934486734" lon="14.01827833451212"><ele>131.0</ele><time>2026-03-22T10:13:48Z</time></trkpt><trkpt lat="42.36069550442748" lon="14.018333827461522"><ele>131.0</ele><time>2026-03-22T10:13:50Z</time></trkpt><trkpt lat="42.36069099793004" lon="14.018519545664688"><ele>131.0</ele><time>2026-03-22T10:13:52Z</time></trkpt><trkpt lat="42.36069988562181" lon="14.018666655946658"><ele>131.0</ele><time>2026-03-22T10:13:53Z</time></trkpt><trkpt lat="42.36070334103941" lon="14.018817833794165"><ele>131.0</ele><time>2026-03-22T10:13:54Z</time></trkpt><trkpt lat="42.36071305488131" lon="14.018963230524427"><ele>131.0</ele><time>2026-03-22T10:13:55Z</time></trkpt><trkpt lat="42.36071815777284" lon="14.01911780195738"><ele>131.0</ele><time>2026-03-22T10:13:56Z</time></trkpt><trkpt lat="42.360712203237604" lon="14.01929802543149"><ele>131.0</ele><time>2026-03-22T10:13:57Z</time></trkpt><trkpt lat="42.3607152292208" lon="14.019458860978062"><ele>130.5</ele><time>2026-03-22T10:13:58Z</time></trkpt><trkpt lat="42.36071045532876" lon="14.0196310726179"><ele>130.0</ele><time>2026-03-22T10:13:59Z</time></trkpt><trkpt lat="42.36071230503223" lon="14.019811879954924"><ele>129.5</ele><time>2026-03-22T10:14:00Z</time></trkpt><trkpt lat="42.36070758308712" lon="14.019958225668573"><ele>129.0</ele><time>2026-03-22T10:14:01Z</time></trkpt><trkpt lat="42.36069575057717" lon="14.02008127571957"><ele>128.8</ele><time>2026-03-22T10:14:02Z</time></trkpt><trkpt lat="42.36070840394254" lon="14.020187645813586"><ele>128.60000000000002</ele><time>2026-03-22T10:14:03Z</time></trkpt><trkpt lat="42.360717831624754" lon="14.020300345068957"><ele>128.4</ele><time>2026-03-22T10:14:04Z</time></trkpt><trkpt lat="42.36070634018967" lon="14.02042040215552"><ele>128.20000000000002</ele><time>2026-03-22T10:14:05Z</time></trkpt><trkpt lat="42.36070704798243" lon="14.020545808023043"><ele>128.0</ele><time>2026-03-22T10:14:06Z</time></trkpt><trkpt lat="42.36070488082171" lon="14.020697698809071"><ele>128.0</ele><time>2026-03-22T10:14:07Z</time></trkpt><trkpt lat="42.3607240221755" lon="14.020836587005727"><ele>128.0</ele><time>2026-03-22T10:14:08Z</time></trkpt><trkpt lat="42.36072436494035" lon="14.021008643701078"><ele>128.0</ele><time>2026-03-22T10:14:09Z</time></trkpt><trkpt lat="42.36072612520619" lon="14.021170856776429"><ele>128.0</ele><time>2026-03-22T10:14:10Z</time></trkpt><trkpt lat="42.36072712926373" lon="14.021297954016639"><ele>128.0</ele><time>2026-03-22T10:14:11Z</time></trkpt><trkpt lat="42.360750136648086" lon="14.021403325209809"><ele>127.99999999999999</ele><time>2026-03-22T10:14:12Z</time></trkpt><trkpt lat="42.3607557339445" lon="14.02149778448161"><ele>128.0</ele><time>2026-03-22T10:14:13Z</time></trkpt><trkpt lat="42.36070111720729" lon="14.021576596269934"><ele>128.0</ele><time>2026-03-22T10:14:15Z</time></trkpt><trkpt lat="42.360765308660916" lon="14.021679713487103"><ele>128.0</ele><time>2026-03-22T10:14:52Z</time></trkpt><trkpt lat="42.36071896750977" lon="14.021596127644834"><ele>127.99999999999999</ele><time>2026-03-22T10:14:56Z</time></trkpt><trkpt lat="42.36066615008021" lon="14.021540132676202"><ele>128.0</ele><time>2026-03-22T10:15:14Z</time></trkpt><trkpt lat="42.360555682397106" lon="14.021423862049005"><ele>127.60000000000001</ele><time>2026-03-22T10:15:15Z</time></trkpt><trkpt lat="42.36041215568739" lon="14.0213097550911"><ele>127.20000000000002</ele><time>2026-03-22T10:15:16Z</time></trkpt><trkpt lat="42.3603425476657" lon="14.021274099507245"><ele>126.8</ele><time>2026-03-22T10:15:17Z</time></trkpt><trkpt lat="42.36029536537505" lon="14.021352440936303"><ele>126.4</ele><time>2026-03-22T10:15:20Z</time></trkpt><trkpt lat="42.360252674809075" lon="14.0214793880545"><ele>126.0</ele><time>2026-03-22T10:15:46Z</time></trkpt><trkpt lat="42.360203750529905" lon="14.021563959571404"><ele>125.5</ele><time>2026-03-22T10:15:47Z</time></trkpt><trkpt lat="42.36014825179787" lon="14.021681608075667"><ele>125.0</ele><time>2026-03-22T10:15:48Z</time></trkpt><trkpt lat="42.36008121925476" lon="14.021810068077409"><ele>124.5</ele><time>2026-03-22T10:15:49Z</time></trkpt><trkpt lat="42.3600011821595" lon="14.021945761680948"><ele>124.0</ele><time>2026-03-22T10:15:50Z</time></trkpt><trkpt lat="42.35994066433245" lon="14.022096914168111"><ele>124.0</ele><time>2026-03-22T10:15:51Z</time></trkpt><trkpt lat="42.35989481404481" lon="14.022272587003183"><ele>124.0</ele><time>2026-03-22T10:15:52Z</time></trkpt><trkpt lat="42.35985276156021" lon="14.022446700155722"><ele>124.0</ele><time>2026-03-22T10:15:53Z</time></trkpt><trkpt lat="42.35978449909339" lon="14.022589586601882"><ele>124.0</ele><time>2026-03-22T10:15:54Z</time></trkpt><trkpt lat="42.359704289015234" lon="14.02273039268085"><ele>124.2</ele><time>2026-03-22T10:15:55Z</time></trkpt><trkpt lat="42.35961671351078" lon="14.02286088987858"><ele>124.4</ele><time>2026-03-22T10:15:56Z</time></trkpt><trkpt lat="42.35953894497603" lon="14.022976041663455"><ele>124.6</ele><time>2026-03-22T10:15:57Z</time></trkpt><trkpt lat="42.35948719157938" lon="14.023077334516238"><ele>124.8</ele><time>2026-03-22T10:15:58Z</time></trkpt><trkpt lat="42.35946348785706" lon="14.023183375141437"><ele>125.0</ele><time>2026-03-22T10:15:59Z</time></trkpt><trkpt lat="42.35945534596915" lon="14.023321852051751"><ele>125.0</ele><time>2026-03-22T10:16:00Z</time></trkpt><trkpt lat="42.35944638876859" lon="14.023489317846503"><ele>125.0</ele><time>2026-03-22T10:16:01Z</time></trkpt><trkpt lat="42.35943288123316" lon="14.023653912138425"><ele>125.0</ele><time>2026-03-22T10:16:02Z</time></trkpt><trkpt lat="42.35942415845468" lon="14.023815399794088"><ele>125.0</ele><time>2026-03-22T10:16:03Z</time></trkpt><trkpt lat="42.35940376696627" lon="14.02396848867147"><ele>125.0</ele><time>2026-03-22T10:16:04Z</time></trkpt><trkpt lat="42.35938239705701" lon="14.02410333277123"><ele>125.0</ele><time>2026-03-22T10:16:05Z</time></trkpt><trkpt lat="42.359371911835765" lon="14.024250560260866"><ele>125.0</ele><time>2026-03-22T10:16:06Z</time></trkpt><trkpt lat="42.35936315962273" lon="14.024402433375581"><ele>125.0</ele><time>2026-03-22T10:16:07Z</time></trkpt><trkpt lat="42.359362313471706" lon="14.024552770490276"><ele>125.0</ele><time>2026-03-22T10:16:08Z</time></trkpt><trkpt lat="42.35935241335724" lon="14.024689348446486"><ele>125.0</ele><time>2026-03-22T10:16:09Z</time></trkpt><trkpt lat="42.359339617512866" lon="14.024813132758782"><ele>125.0</ele><time>2026-03-22T10:16:10Z</time></trkpt><trkpt lat="42.3593271846252" lon="14.024955851340842"><ele>125.0</ele><time>2026-03-22T10:16:11Z</time></trkpt><trkpt lat="42.35933135118205" lon="14.025123998210345"><ele>125.0</ele><time>2026-03-22T10:16:12Z</time></trkpt><trkpt lat="42.35933920471181" lon="14.025295901924173"><ele>125.0</ele><time>2026-03-22T10:16:13Z</time></trkpt><trkpt lat="42.359343801794566" lon="14.025491189397565"><ele>125.0</ele><time>2026-03-22T10:16:14Z</time></trkpt><trkpt lat="42.3593331152284" lon="14.025724959334699"><ele>125.0</ele><time>2026-03-22T10:16:15Z</time></trkpt><trkpt lat="42.35932074325066" lon="14.025964202327973"><ele>124.5</ele><time>2026-03-22T10:16:16Z</time></trkpt><trkpt lat="42.359294590564545" lon="14.026131280476518"><ele>124.0</ele><time>2026-03-22T10:16:17Z</time></trkpt><trkpt lat="42.35926571469728" lon="14.02628054720212"><ele>123.5</ele><time>2026-03-22T10:16:18Z</time></trkpt><trkpt lat="42.359264084095116" lon="14.026431786967189"><ele>123.0</ele><time>2026-03-22T10:16:19Z</time></trkpt><trkpt lat="42.359270141189306" lon="14.026597842883822"><ele>122.25</ele><time>2026-03-22T10:16:20Z</time></trkpt><trkpt lat="42.35924755518631" lon="14.026785482854057"><ele>121.5</ele><time>2026-03-22T10:16:21Z</time></trkpt><trkpt lat="42.3592624509417" lon="14.026978720387634"><ele>120.75</ele><time>2026-03-22T10:16:22Z</time></trkpt><trkpt lat="42.35925988674238" lon="14.027138882557907"><ele>120.0</ele><time>2026-03-22T10:16:23Z</time></trkpt><trkpt lat="42.35925582950782" lon="14.027250732812677"><ele>120.0</ele><time>2026-03-22T10:16:24Z</time></trkpt><trkpt lat="42.35918622270055" lon="14.027397367848753"><ele>120.0</ele><time>2026-03-22T10:16:26Z</time></trkpt><trkpt lat="42.35913015742644" lon="14.027459556975707"><ele>120.0</ele><time>2026-03-22T10:16:27Z</time></trkpt><trkpt lat="42.35905684809901" lon="14.027557348812174"><ele>120.0</ele><time>2026-03-22T10:16:28Z</time></trkpt><trkpt lat="42.35897111416708" lon="14.027629308099176"><ele>120.0</ele><time>2026-03-22T10:16:28.999Z</time></trkpt><trkpt lat="42.358899864279444" lon="14.027666855426599"><ele>120.0</ele><time>2026-03-22T10:16:29.999Z</time></trkpt><trkpt lat="42.35884465489771" lon="14.027718257651301"><ele>120.0</ele><time>2026-03-22T10:16:30.999Z</time></trkpt><trkpt lat="42.35881677703027" lon="14.027800553372082"><ele>120.0</ele><time>2026-03-22T10:16:31.999Z</time></trkpt><trkpt lat="42.35880366081475" lon="14.027953116184221"><ele>120.0</ele><time>2026-03-22T10:16:33.999Z</time></trkpt><trkpt lat="42.358806565957735" lon="14.02807376216151"><ele>120.0</ele><time>2026-03-22T10:16:36Z</time></trkpt><trkpt lat="42.3588066267215" lon="14.028217180381"><ele>120.0</ele><time>2026-03-22T10:16:39Z</time></trkpt><trkpt lat="42.35880159847768" lon="14.028337572576962"><ele>119.83333333333333</ele><time>2026-03-22T10:16:43Z</time></trkpt><trkpt lat="42.35874656545738" lon="14.028394422757852"><ele>119.66666666666666</ele><time>2026-03-22T10:17:10Z</time></trkpt><trkpt lat="42.358677355661044" lon="14.02847310108337"><ele>119.5</ele><time>2026-03-22T10:17:12Z</time></trkpt><trkpt lat="42.3586055500462" lon="14.02859328936696"><ele>119.33333333333333</ele><time>2026-03-22T10:17:15Z</time></trkpt><trkpt lat="42.35866740079075" lon="14.028573269937773"><ele>119.16666666666666</ele><time>2026-03-22T10:17:30Z</time></trkpt><trkpt lat="42.35869300652336" lon="14.028491712098587"><ele>119.0</ele><time>2026-03-22T10:17:34Z</time></trkpt><trkpt lat="42.35874562710733" lon="14.028411532963007"><ele>118.99999999999999</ele><time>2026-03-22T10:17:36Z</time></trkpt><trkpt lat="42.35880045495534" lon="14.028329234207995"><ele>119.0</ele><time>2026-03-22T10:17:39Z</time></trkpt><trkpt lat="42.35876518677643" lon="14.028225671178442"><ele>119.0</ele><time>2026-03-22T10:18:41.001Z</time></trkpt><trkpt lat="42.35879510645201" lon="14.028107665142155"><ele>119.0</ele><time>2026-03-22T10:19:02Z</time></trkpt><trkpt lat="42.35878108668201" lon="14.027953724021632"><ele>118.99999999999999</ele><time>2026-03-22T10:19:04Z</time></trkpt><trkpt lat="42.35879096367529" lon="14.027858334797397"><ele>119.0</ele><time>2026-03-22T10:19:05Z</time></trkpt><trkpt lat="42.358836452718855" lon="14.027741606049714"><ele>118.83333333333333</ele><time>2026-03-22T10:19:07Z</time></trkpt><trkpt lat="42.35891373430468" lon="14.027746104428996"><ele>118.66666666666666</ele><time>2026-03-22T10:19:09Z</time></trkpt><trkpt lat="42.35895430409602" lon="14.027825961263488"><ele>118.5</ele><time>2026-03-22T10:19:11Z</time></trkpt><trkpt lat="42.35900201908627" lon="14.027939854706021"><ele>118.33333333333334</ele><time>2026-03-22T10:19:12Z</time></trkpt><trkpt lat="42.35903715775236" lon="14.02805770243152"><ele>118.16666666666667</ele><time>2026-03-22T10:19:13Z</time></trkpt><trkpt lat="42.359078106331744" lon="14.028186018114829"><ele>118.0</ele><time>2026-03-22T10:19:14Z</time></trkpt><trkpt lat="42.35913726555142" lon="14.02833458577636"><ele>118.0</ele><time>2026-03-22T10:19:15Z</time></trkpt><trkpt lat="42.35920071083903" lon="14.028478108550525"><ele>118.00000000000001</ele><time>2026-03-22T10:19:16Z</time></trkpt><trkpt lat="42.35925981327005" lon="14.028592516749123"><ele>118.00000000000001</ele><time>2026-03-22T10:19:17Z</time></trkpt><trkpt lat="42.359341025202696" lon="14.028714042833645"><ele>118.0</ele><time>2026-03-22T10:19:18Z</time></trkpt><trkpt lat="42.35938780487197" lon="14.028832034550495"><ele>118.0</ele><time>2026-03-22T10:19:19Z</time></trkpt><trkpt lat="42.35944394202129" lon="14.028913825459211"><ele>118.00000000000001</ele><time>2026-03-22T10:19:20Z</time></trkpt><trkpt lat="42.35948766558018" lon="14.028976306719592"><ele>118.0</ele><time>2026-03-22T10:19:21Z</time></trkpt><trkpt lat="42.35953125506664" lon="14.029053058996153"><ele>118.0</ele><time>2026-03-22T10:19:23Z</time></trkpt><trkpt lat="42.35957368606618" lon="14.02912300834389"><ele>118.0</ele><time>2026-03-22T10:19:51Z</time></trkpt><trkpt lat="42.35962523655629" lon="14.029225439560838"><ele>118.00000000000001</ele><time>2026-03-22T10:19:52Z</time></trkpt><trkpt lat="42.35969485817963" lon="14.029342640957767"><ele>118.0</ele><time>2026-03-22T10:19:53Z</time></trkpt><trkpt lat="42.359757785309725" lon="14.029469971326154"><ele>118.5</ele><time>2026-03-22T10:19:54Z</time></trkpt><trkpt lat="42.3598308118346" lon="14.029606690646906"><ele>119.0</ele><time>2026-03-22T10:19:55Z</time></trkpt><trkpt lat="42.35993929942267" lon="14.02973565258302"><ele>119.5</ele><time>2026-03-22T10:19:56Z</time></trkpt><trkpt lat="42.360049398106824" lon="14.029845231865087"><ele>120.0</ele><time>2026-03-22T10:19:57Z</time></trkpt><trkpt lat="42.36015596736229" lon="14.029959025370092"><ele>119.75</ele><time>2026-03-22T10:19:58Z</time></trkpt><trkpt lat="42.360249415749806" lon="14.03009037620623"><ele>119.5</ele><time>2026-03-22T10:19:59Z</time></trkpt><trkpt lat="42.360347298927636" lon="14.030232542797421"><ele>119.25</ele><time>2026-03-22T10:20:00Z</time></trkpt><trkpt lat="42.36043054811099" lon="14.030365284761423"><ele>119.0</ele><time>2026-03-22T10:20:01Z</time></trkpt><trkpt lat="42.360502266109386" lon="14.030480844823225"><ele>120.2</ele><time>2026-03-22T10:20:02Z</time></trkpt><trkpt lat="42.36056976516365" lon="14.030590808973507"><ele>121.4</ele><time>2026-03-22T10:20:03Z</time></trkpt><trkpt lat="42.36063539801619" lon="14.030688914592227"><ele>122.6</ele><time>2026-03-22T10:20:04Z</time></trkpt><trkpt lat="42.36069369478984" lon="14.030798520886302"><ele>123.8</ele><time>2026-03-22T10:20:05Z</time></trkpt><trkpt lat="42.36073334596088" lon="14.030904828235945"><ele>125.0</ele><time>2026-03-22T10:20:06Z</time></trkpt><trkpt lat="42.36075467128323" lon="14.031024505043034"><ele>124.99999999999999</ele><time>2026-03-22T10:20:07Z</time></trkpt><trkpt lat="42.360774342111604" lon="14.03115983081771"><ele>125.0</ele><time>2026-03-22T10:20:08Z</time></trkpt><trkpt lat="42.36078425751815" lon="14.031266183532297"><ele>125.0</ele><time>2026-03-22T10:20:09Z</time></trkpt><trkpt lat="42.36079922455619" lon="14.031364734273696"><ele>125.0</ele><time>2026-03-22T10:20:10Z</time></trkpt><trkpt lat="42.36082963544265" lon="14.031474012514606"><ele>124.99999999999999</ele><time>2026-03-22T10:20:11Z</time></trkpt><trkpt lat="42.36084702297253" lon="14.031598820212459"><ele>125.0</ele><time>2026-03-22T10:20:12Z</time></trkpt><trkpt lat="42.36085733012358" lon="14.031724491014614"><ele>123.33333333333333</ele><time>2026-03-22T10:20:13Z</time></trkpt><trkpt lat="42.36085723441211" lon="14.031835862004531"><ele>121.66666666666666</ele><time>2026-03-22T10:20:14Z</time></trkpt><trkpt lat="42.36086180654749" lon="14.031931395581466"><ele>120.0</ele><time>2026-03-22T10:20:15Z</time></trkpt><trkpt lat="42.36087077793313" lon="14.032040939785178"><ele>118.33333333333334</ele><time>2026-03-22T10:20:16Z</time></trkpt><trkpt lat="42.36087790005373" lon="14.032145875306824"><ele>116.66666666666667</ele><time>2026-03-22T10:20:17Z</time></trkpt><trkpt lat="42.36088866267724" lon="14.032252732992745"><ele>115.0</ele><time>2026-03-22T10:20:18Z</time></trkpt><trkpt lat="42.36091711186058" lon="14.032421184697064"><ele>114.66666666666667</ele><time>2026-03-22T10:20:20Z</time></trkpt><trkpt lat="42.36093309682072" lon="14.032521816967847"><ele>114.33333333333334</ele><time>2026-03-22T10:20:21Z</time></trkpt><trkpt lat="42.36093382067513" lon="14.032632157325967"><ele>114.0</ele><time>2026-03-22T10:20:22Z</time></trkpt><trkpt lat="42.360929199075436" lon="14.032738200647847"><ele>113.66666666666666</ele><time>2026-03-22T10:20:23Z</time></trkpt><trkpt lat="42.3609094881221" lon="14.032853580645915"><ele>113.33333333333333</ele><time>2026-03-22T10:20:24Z</time></trkpt><trkpt lat="42.36089019388116" lon="14.032983576388038"><ele>113.0</ele><time>2026-03-22T10:20:25Z</time></trkpt><trkpt lat="42.360876041043085" lon="14.033129830861885"><ele>113.0</ele><time>2026-03-22T10:20:26Z</time></trkpt><trkpt lat="42.36088721639692" lon="14.033296692241661"><ele>113.0</ele><time>2026-03-22T10:20:27Z</time></trkpt><trkpt lat="42.360914099973634" lon="14.033473272262068"><ele>113.0</ele><time>2026-03-22T10:20:28Z</time></trkpt><trkpt lat="42.360917518887696" lon="14.033657577570926"><ele>113.0</ele><time>2026-03-22T10:20:29Z</time></trkpt><trkpt lat="42.36091335640318" lon="14.033818679002543"><ele>113.25</ele><time>2026-03-22T10:20:30Z</time></trkpt><trkpt lat="42.360907362241214" lon="14.033965387829994"><ele>113.5</ele><time>2026-03-22T10:20:31Z</time></trkpt><trkpt lat="42.36089494852307" lon="14.034119868822025"><ele>113.75</ele><time>2026-03-22T10:20:32Z</time></trkpt><trkpt lat="42.36087607176469" lon="14.034273814097872"><ele>114.0</ele><time>2026-03-22T10:20:33Z</time></trkpt><trkpt lat="42.36086493753807" lon="14.034446726759137"><ele>114.0</ele><time>2026-03-22T10:20:34Z</time></trkpt><trkpt lat="42.360847286580444" lon="14.034629214023091"><ele>114.0</ele><time>2026-03-22T10:20:35Z</time></trkpt><trkpt lat="42.360808404671126" lon="14.034806250280456"><ele>114.0</ele><time>2026-03-22T10:20:36Z</time></trkpt><trkpt lat="42.36075664222243" lon="14.034960341447544"><ele>114.0</ele><time>2026-03-22T10:20:37Z</time></trkpt><trkpt lat="42.36073233160849" lon="14.035088966840854"><ele>113.80000000000001</ele><time>2026-03-22T10:20:38Z</time></trkpt><trkpt lat="42.36074654303218" lon="14.035198387191928"><ele>113.60000000000001</ele><time>2026-03-22T10:20:39Z</time></trkpt><trkpt lat="42.36079187574418" lon="14.0353224938171"><ele>113.4</ele><time>2026-03-22T10:20:40Z</time></trkpt><trkpt lat="42.360853957727294" lon="14.03545693066425"><ele>113.2</ele><time>2026-03-22T10:20:41Z</time></trkpt><trkpt lat="42.36092746092697" lon="14.03560659413312"><ele>113.0</ele><time>2026-03-22T10:20:42Z</time></trkpt><trkpt lat="42.3609946666595" lon="14.035758084637274"><ele>112.75</ele><time>2026-03-22T10:20:43Z</time></trkpt><trkpt lat="42.361059386483106" lon="14.03591881845361"><ele>112.5</ele><time>2026-03-22T10:20:44Z</time></trkpt><trkpt lat="42.36114007182365" lon="14.036065491200029"><ele>112.25</ele><time>2026-03-22T10:20:45Z</time></trkpt><trkpt lat="42.36121947751501" lon="14.036222836676194"><ele>112.0</ele><time>2026-03-22T10:20:46Z</time></trkpt><trkpt lat="42.36129564693503" lon="14.036374178748389"><ele>114.5</ele><time>2026-03-22T10:20:47.001Z</time></trkpt><trkpt lat="42.36138145179277" lon="14.036517102291112"><ele>117.0</ele><time>2026-03-22T10:20:48.001Z</time></trkpt><trkpt lat="42.36146039815117" lon="14.036672466822548"><ele>119.5</ele><time>2026-03-22T10:20:49.001Z</time></trkpt><trkpt lat="42.361513161237944" lon="14.036840694053582"><ele>122.0</ele><time>2026-03-22T10:20:50.001Z</time></trkpt><trkpt lat="42.36155514788563" lon="14.037020545131439"><ele>121.99999999999999</ele><time>2026-03-22T10:20:51.001Z</time></trkpt><trkpt lat="42.36159838282654" lon="14.037175539603574"><ele>122.0</ele><time>2026-03-22T10:20:52.001Z</time></trkpt><trkpt lat="42.36161032315348" lon="14.037291330729056"><ele>122.0</ele><time>2026-03-22T10:20:53.001Z</time></trkpt><trkpt lat="42.36157418788501" lon="14.03736943861364"><ele>122.0</ele><time>2026-03-22T10:20:54.001Z</time></trkpt><trkpt lat="42.36152578812243" lon="14.037460775011908"><ele>121.99999999999999</ele><time>2026-03-22T10:20:55.001Z</time></trkpt><trkpt lat="42.361510839414954" lon="14.037576535807055"><ele>122.0</ele><time>2026-03-22T10:20:56.001Z</time></trkpt><trkpt lat="42.36151610642177" lon="14.037694286648193"><ele>119.25</ele><time>2026-03-22T10:20:57.001Z</time></trkpt><trkpt lat="42.36150748273016" lon="14.037819271026203"><ele>116.5</ele><time>2026-03-22T10:20:58.001Z</time></trkpt><trkpt lat="42.36150280610319" lon="14.037974404490091"><ele>113.75</ele><time>2026-03-22T10:20:59.001Z</time></trkpt><trkpt lat="42.36150167802208" lon="14.038134063537916"><ele>111.0</ele><time>2026-03-22T10:21:00.001Z</time></trkpt><trkpt lat="42.36149147343004" lon="14.038306071231748"><ele>110.5</ele><time>2026-03-22T10:21:01.001Z</time></trkpt><trkpt lat="42.36148111304419" lon="14.038464665198996"><ele>110.0</ele><time>2026-03-22T10:21:02.001Z</time></trkpt><trkpt lat="42.361460337486996" lon="14.038629082733797"><ele>109.5</ele><time>2026-03-22T10:21:03.001Z</time></trkpt><trkpt lat="42.36145720992546" lon="14.038769778738903"><ele>109.0</ele><time>2026-03-22T10:21:04.001Z</time></trkpt><trkpt lat="42.36146878393243" lon="14.038923895957028"><ele>109.0</ele><time>2026-03-22T10:21:05.001Z</time></trkpt><trkpt lat="42.36148995559739" lon="14.039089091946112"><ele>109.0</ele><time>2026-03-22T10:21:06.001Z</time></trkpt><trkpt lat="42.36150944362108" lon="14.039220697153093"><ele>109.0</ele><time>2026-03-22T10:21:07.001Z</time></trkpt><trkpt lat="42.36152209813166" lon="14.039330379123808"><ele>109.0</ele><time>2026-03-22T10:21:08.001Z</time></trkpt><trkpt lat="42.36155104564814" lon="14.039444030814428"><ele>109.0</ele><time>2026-03-22T10:21:09.001Z</time></trkpt><trkpt lat="42.36156888957312" lon="14.039560620652896"><ele>109.0</ele><time>2026-03-22T10:21:10.001Z</time></trkpt><trkpt lat="42.36157032266458" lon="14.039691470034063"><ele>109.0</ele><time>2026-03-22T10:21:11.001Z</time></trkpt><trkpt lat="42.36159397380776" lon="14.039827110183753"><ele>109.0</ele><time>2026-03-22T10:21:12.001Z</time></trkpt><trkpt lat="42.36162105920695" lon="14.039957108649253"><ele>109.0</ele><time>2026-03-22T10:21:13.001Z</time></trkpt><trkpt lat="42.36162795032507" lon="14.040071055652277"><ele>109.0</ele><time>2026-03-22T10:21:14.001Z</time></trkpt><trkpt lat="42.36162349322794" lon="14.040165409437822"><ele>109.0</ele><time>2026-03-22T10:21:15Z</time></trkpt><trkpt lat="42.361616364543124" lon="14.04031593686596"><ele>109.0</ele><time>2026-03-22T10:21:17Z</time></trkpt><trkpt lat="42.361582240582" lon="14.040430503253118"><ele>109.0</ele><time>2026-03-22T10:21:19Z</time></trkpt><trkpt lat="42.3615117219144" lon="14.040491976781473"><ele>109.0</ele><time>2026-03-22T10:21:21Z</time></trkpt><trkpt lat="42.36151821798366" lon="14.040623554550075"><ele>109.0</ele><time>2026-03-22T10:21:40Z</time></trkpt><trkpt lat="42.36151855795622" lon="14.040758820218201"><ele>109.0</ele><time>2026-03-22T10:21:41Z</time></trkpt><trkpt lat="42.361483720075185" lon="14.040929472608822"><ele>109.0</ele><time>2026-03-22T10:21:42Z</time></trkpt><trkpt lat="42.36144461427509" lon="14.041122047510362"><ele>109.0</ele><time>2026-03-22T10:21:43Z</time></trkpt><trkpt lat="42.361391244433065" lon="14.041318942311424"><ele>109.0</ele><time>2026-03-22T10:21:44Z</time></trkpt><trkpt lat="42.36137331697063" lon="14.041528908934147"><ele>108.66666666666667</ele><time>2026-03-22T10:21:45Z</time></trkpt><trkpt lat="42.36134426997545" lon="14.041736105344302"><ele>108.33333333333334</ele><time>2026-03-22T10:21:46Z</time></trkpt><trkpt lat="42.36129957883204" lon="14.04193728168553"><ele>108.0</ele><time>2026-03-22T10:21:47Z</time></trkpt><trkpt lat="42.3612471203361" lon="14.042142849423916"><ele>108.0</ele><time>2026-03-22T10:21:48Z</time></trkpt><trkpt lat="42.36125153143002" lon="14.042354182787726"><ele>108.0</ele><time>2026-03-22T10:21:49Z</time></trkpt><trkpt lat="42.36119934125386" lon="14.042524293501852"><ele>108.0</ele><time>2026-03-22T10:21:50Z</time></trkpt><trkpt lat="42.36115110619811" lon="14.04268765761293"><ele>108.0</ele><time>2026-03-22T10:21:51Z</time></trkpt><trkpt lat="42.36110571109253" lon="14.042859045841709"><ele>108.0</ele><time>2026-03-22T10:21:52Z</time></trkpt><trkpt lat="42.36106357735732" lon="14.043029740813031"><ele>108.0</ele><time>2026-03-22T10:21:53Z</time></trkpt><trkpt lat="42.36103228623891" lon="14.043190531529945"><ele>108.0</ele><time>2026-03-22T10:21:54Z</time></trkpt><trkpt lat="42.361011070866354" lon="14.043336214547564"><ele>108.0</ele><time>2026-03-22T10:21:55Z</time></trkpt><trkpt lat="42.360938488974384" lon="14.043427345476328"><ele>108.0</ele><time>2026-03-22T10:21:56Z</time></trkpt><trkpt lat="42.36089253197276" lon="14.043510111714781"><ele>108.0</ele><time>2026-03-22T10:21:57Z</time></trkpt><trkpt lat="42.36083670129613" lon="14.043565906897609"><ele>108.0</ele><time>2026-03-22T10:21:58Z</time></trkpt><trkpt lat="42.36076664141634" lon="14.043578596036516"><ele>108.0</ele><time>2026-03-22T10:21:59Z</time></trkpt><trkpt lat="42.36069722772937" lon="14.043625609119607"><ele>108.0</ele><time>2026-03-22T10:22:00Z</time></trkpt><trkpt lat="42.36064483045621" lon="14.04367529737459"><ele>108.0</ele><time>2026-03-22T10:22:01Z</time></trkpt><trkpt lat="42.36058082516323" lon="14.04377879924045"><ele>108.0</ele><time>2026-03-22T10:22:02Z</time></trkpt><trkpt lat="42.36054044284282" lon="14.04390264791672"><ele>108.00000000000001</ele><time>2026-03-22T10:22:03Z</time></trkpt><trkpt lat="42.360505713627674" lon="14.044031912791379"><ele>108.00000000000001</ele><time>2026-03-22T10:22:04Z</time></trkpt><trkpt lat="42.360470303313676" lon="14.04416452444687"><ele>108.0</ele><time>2026-03-22T10:22:05Z</time></trkpt><trkpt lat="42.36043039683452" lon="14.044313974262533"><ele>108.0</ele><time>2026-03-22T10:22:06Z</time></trkpt><trkpt lat="42.36038808442677" lon="14.044460363845744"><ele>107.5</ele><time>2026-03-22T10:22:07Z</time></trkpt><trkpt lat="42.36034359540722" lon="14.044594874472605"><ele>107.0</ele><time>2026-03-22T10:22:08Z</time></trkpt><trkpt lat="42.360290317063246" lon="14.044744877632391"><ele>106.5</ele><time>2026-03-22T10:22:09Z</time></trkpt><trkpt lat="42.360231577547424" lon="14.044906316885006"><ele>106.0</ele><time>2026-03-22T10:22:10Z</time></trkpt><trkpt lat="42.3601729963762" lon="14.045064015870176"><ele>105.5</ele><time>2026-03-22T10:22:11Z</time></trkpt><trkpt lat="42.36010988608704" lon="14.045232156764659"><ele>105.0</ele><time>2026-03-22T10:22:12Z</time></trkpt><trkpt lat="42.36004626519385" lon="14.045400613793129"><ele>104.5</ele><time>2026-03-22T10:22:13Z</time></trkpt><trkpt lat="42.35997658419509" lon="14.045581949460162"><ele>104.0</ele><time>2026-03-22T10:22:14Z</time></trkpt><trkpt lat="42.359885614422225" lon="14.045816985811483"><ele>103.66666666666666</ele><time>2026-03-22T10:22:15Z</time></trkpt><trkpt lat="42.359805830222804" lon="14.04602028250193"><ele>103.33333333333334</ele><time>2026-03-22T10:22:16Z</time></trkpt><trkpt lat="42.359733407541" lon="14.046204821351573"><ele>103.0</ele><time>2026-03-22T10:22:17Z</time></trkpt><trkpt lat="42.359671633127945" lon="14.046357790347932"><ele>103.0</ele><time>2026-03-22T10:22:18Z</time></trkpt><trkpt lat="42.35961132228242" lon="14.046504829189145"><ele>103.0</ele><time>2026-03-22T10:22:19Z</time></trkpt><trkpt lat="42.359542642474125" lon="14.04666809706772"><ele>103.0</ele><time>2026-03-22T10:22:20Z</time></trkpt><trkpt lat="42.35948002905258" lon="14.046816943686554"><ele>103.0</ele><time>2026-03-22T10:22:21Z</time></trkpt><trkpt lat="42.35942671140802" lon="14.046943692070975"><ele>103.0</ele><time>2026-03-22T10:22:22Z</time></trkpt><trkpt lat="42.359383134486194" lon="14.047048225047082"><ele>103.0</ele><time>2026-03-22T10:22:23Z</time></trkpt><trkpt lat="42.35934132696264" lon="14.047148997943477"><ele>103.0</ele><time>2026-03-22T10:22:24Z</time></trkpt><trkpt lat="42.359293040554505" lon="14.047265387679612"><ele>103.0</ele><time>2026-03-22T10:22:25Z</time></trkpt><trkpt lat="42.359242109022034" lon="14.047388153050512"><ele>103.0</ele><time>2026-03-22T10:22:26Z</time></trkpt><trkpt lat="42.35918710524494" lon="14.047519748656107"><ele>102.75</ele><time>2026-03-22T10:22:27Z</time></trkpt><trkpt lat="42.359132507204706" lon="14.047649569253432"><ele>102.5</ele><time>2026-03-22T10:22:28Z</time></trkpt><trkpt lat="42.35907199416565" lon="14.04779345421674"><ele>102.25</ele><time>2026-03-22T10:22:29Z</time></trkpt><trkpt lat="42.35901203517157" lon="14.047932413340726"><ele>102.0</ele><time>2026-03-22T10:22:30Z</time></trkpt><trkpt lat="42.35895109835574" lon="14.048056624844593"><ele>102.0</ele><time>2026-03-22T10:22:31Z</time></trkpt><trkpt lat="42.35887691127105" lon="14.048171572844891"><ele>102.0</ele><time>2026-03-22T10:22:32Z</time></trkpt><trkpt lat="42.35878713895193" lon="14.04825461105674"><ele>102.0</ele><time>2026-03-22T10:22:33Z</time></trkpt><trkpt lat="42.35867520044166" lon="14.048336543532926"><ele>102.0</ele><time>2026-03-22T10:22:34Z</time></trkpt><trkpt lat="42.358559246017165" lon="14.04840011845675"><ele>101.8</ele><time>2026-03-22T10:22:35Z</time></trkpt><trkpt lat="42.3584381541605" lon="14.048463998500585"><ele>101.6</ele><time>2026-03-22T10:22:36Z</time></trkpt><trkpt lat="42.358336755151825" lon="14.048513575920497"><ele>101.39999999999999</ele><time>2026-03-22T10:22:37Z</time></trkpt><trkpt lat="42.35823719439694" lon="14.048569961307939"><ele>101.19999999999999</ele><time>2026-03-22T10:22:38Z</time></trkpt><trkpt lat="42.358151944514994" lon="14.048647515841376"><ele>101.0</ele><time>2026-03-22T10:22:39Z</time></trkpt><trkpt lat="42.35808708916417" lon="14.048759541015588"><ele>101.0</ele><time>2026-03-22T10:22:40Z</time></trkpt><trkpt lat="42.35806822796557" lon="14.048948642506495"><ele>101.0</ele><time>2026-03-22T10:22:41Z</time></trkpt><trkpt lat="42.35807401407055" lon="14.049112741105006"><ele>101.0</ele><time>2026-03-22T10:22:42Z</time></trkpt><trkpt lat="42.35808119159553" lon="14.049276339689428"><ele>101.0</ele><time>2026-03-22T10:22:43Z</time></trkpt><trkpt lat="42.35808660600795" lon="14.04944650798892"><ele>100.5</ele><time>2026-03-22T10:22:44Z</time></trkpt><trkpt lat="42.35808342828759" lon="14.049609393832064"><ele>100.0</ele><time>2026-03-22T10:22:45Z</time></trkpt><trkpt lat="42.35806642945639" lon="14.049786631458632"><ele>99.5</ele><time>2026-03-22T10:22:46Z</time></trkpt><trkpt lat="42.35804667798692" lon="14.049972342064507"><ele>99.0</ele><time>2026-03-22T10:22:47Z</time></trkpt><trkpt lat="42.3580917706956" lon="14.050177920346346"><ele>99.0</ele><time>2026-03-22T10:22:48Z</time></trkpt><trkpt lat="42.35807904332117" lon="14.05036261456848"><ele>99.0</ele><time>2026-03-22T10:22:49Z</time></trkpt><trkpt lat="42.3580659075874" lon="14.050558545558047"><ele>99.0</ele><time>2026-03-22T10:22:50Z</time></trkpt><trkpt lat="42.358049709242735" lon="14.05074402416827"><ele>99.0</ele><time>2026-03-22T10:22:51Z</time></trkpt><trkpt lat="42.358034118038994" lon="14.050901104853953"><ele>98.6</ele><time>2026-03-22T10:22:52Z</time></trkpt><trkpt lat="42.3580170906224" lon="14.051044840845865"><ele>98.2</ele><time>2026-03-22T10:22:53.001Z</time></trkpt><trkpt lat="42.358001975502546" lon="14.051174817796776"><ele>97.8</ele><time>2026-03-22T10:22:54.001Z</time></trkpt><trkpt lat="42.35799242281856" lon="14.051298238420788"><ele>97.39999999999999</ele><time>2026-03-22T10:22:55.001Z</time></trkpt><trkpt lat="42.35798845243935" lon="14.051405929033809"><ele>97.0</ele><time>2026-03-22T10:22:56.001Z</time></trkpt><trkpt lat="42.357912656254086" lon="14.051474696415879"><ele>97.0</ele><time>2026-03-22T10:22:58.001Z</time></trkpt><trkpt lat="42.3578039596251" lon="14.051339234757586"><ele>97.0</ele><time>2026-03-22T10:23:00.001Z</time></trkpt><trkpt lat="42.357754157273106" lon="14.051271442375175"><ele>97.0</ele><time>2026-03-22T10:23:01.001Z</time></trkpt><trkpt lat="42.35767859654729" lon="14.051269607489184"><ele>97.0</ele><time>2026-03-22T10:23:02.001Z</time></trkpt><trkpt lat="42.35760702279751" lon="14.051294053876633"><ele>97.0</ele><time>2026-03-22T10:23:03.001Z</time></trkpt><trkpt lat="42.357526938838326" lon="14.051339685454455"><ele>97.0</ele><time>2026-03-22T10:23:04.001Z</time></trkpt><trkpt lat="42.35743393131124" lon="14.051389051130068"><ele>97.0</ele><time>2026-03-22T10:23:05.001Z</time></trkpt><trkpt lat="42.35732821702894" lon="14.05143798896443"><ele>97.0</ele><time>2026-03-22T10:23:06.001Z</time></trkpt><trkpt lat="42.35720363280835" lon="14.05146987350958"><ele>97.0</ele><time>2026-03-22T10:23:07.001Z</time></trkpt><trkpt lat="42.3570890192719" lon="14.05150393171819"><ele>96.75</ele><time>2026-03-22T10:23:08.001Z</time></trkpt><trkpt lat="42.35697824013059" lon="14.051550984726397"><ele>96.5</ele><time>2026-03-22T10:23:09.001Z</time></trkpt><trkpt lat="42.356855518769116" lon="14.051607207705572"><ele>96.25</ele><time>2026-03-22T10:23:10.001Z</time></trkpt><trkpt lat="42.35670327407159" lon="14.051654080920247"><ele>96.0</ele><time>2026-03-22T10:23:11.001Z</time></trkpt><trkpt lat="42.356550109007564" lon="14.051709367124706"><ele>96.0</ele><time>2026-03-22T10:23:12.001Z</time></trkpt><trkpt lat="42.35639959785872" lon="14.05178550431059"><ele>96.0</ele><time>2026-03-22T10:23:13.001Z</time></trkpt><trkpt lat="42.35626094745409" lon="14.051855691653799"><ele>96.0</ele><time>2026-03-22T10:23:14.001Z</time></trkpt><trkpt lat="42.356134816893174" lon="14.051899345926259"><ele>96.0</ele><time>2026-03-22T10:23:15Z</time></trkpt><trkpt lat="42.3560217890708" lon="14.05191565715411"><ele>95.5</ele><time>2026-03-22T10:23:16Z</time></trkpt><trkpt lat="42.355907046248305" lon="14.05196366072644"><ele>95.0</ele><time>2026-03-22T10:23:17Z</time></trkpt><trkpt lat="42.35578505872022" lon="14.052006210353152"><ele>94.5</ele><time>2026-03-22T10:23:18Z</time></trkpt><trkpt lat="42.35566596648976" lon="14.052060382389092"><ele>94.0</ele><time>2026-03-22T10:23:19Z</time></trkpt><trkpt lat="42.35557550423987" lon="14.052130889648765"><ele>94.2</ele><time>2026-03-22T10:23:20Z</time></trkpt><trkpt lat="42.35552842836388" lon="14.052226277158272"><ele>94.4</ele><time>2026-03-22T10:23:21Z</time></trkpt><trkpt lat="42.35552952909114" lon="14.05235631420748"><ele>94.6</ele><time>2026-03-22T10:23:22Z</time></trkpt><trkpt lat="42.35556263638577" lon="14.052489519607663"><ele>94.8</ele><time>2026-03-22T10:23:23Z</time></trkpt><trkpt lat="42.35559132824695" lon="14.05263994527758"><ele>95.0</ele><time>2026-03-22T10:23:24Z</time></trkpt><trkpt lat="42.35561341945013" lon="14.052791007835715"><ele>95.0</ele><time>2026-03-22T10:23:25Z</time></trkpt><trkpt lat="42.3556092781574" lon="14.052921479912609"><ele>95.0</ele><time>2026-03-22T10:23:26Z</time></trkpt><trkpt lat="42.35559517561845" lon="14.05302948394123"><ele>95.0</ele><time>2026-03-22T10:23:27Z</time></trkpt><trkpt lat="42.35556914278126" lon="14.053184379830524"><ele>95.0</ele><time>2026-03-22T10:23:29Z</time></trkpt><trkpt lat="42.355556781877155" lon="14.05333453248138"><ele>95.0</ele><time>2026-03-22T10:23:31Z</time></trkpt><trkpt lat="42.35555610234183" lon="14.053474186655716"><ele>95.16666666666667</ele><time>2026-03-22T10:23:33Z</time></trkpt><trkpt lat="42.35552723901424" lon="14.053573253488743"><ele>95.33333333333334</ele><time>2026-03-22T10:23:35Z</time></trkpt><trkpt lat="42.35542392114462" lon="14.053604599539481"><ele>95.5</ele><time>2026-03-22T10:23:37Z</time></trkpt><trkpt lat="42.355354947391284" lon="14.053585253915823"><ele>95.66666666666667</ele><time>2026-03-22T10:23:38Z</time></trkpt><trkpt lat="42.35529672224372" lon="14.053524612524273"><ele>95.83333333333333</ele><time>2026-03-22T10:23:39Z</time></trkpt><trkpt lat="42.35523853023614" lon="14.053428947355522"><ele>96.0</ele><time>2026-03-22T10:23:40Z</time></trkpt><trkpt lat="42.355191966861746" lon="14.053342678737984"><ele>96.0</ele><time>2026-03-22T10:23:41Z</time></trkpt><trkpt lat="42.3552348446943" lon="14.053408358101821"><ele>96.0</ele><time>2026-03-22T10:24:27Z</time></trkpt><trkpt lat="42.35529515926596" lon="14.053524302108224"><ele>96.0</ele><time>2026-03-22T10:24:29Z</time></trkpt><trkpt lat="42.35537970325959" lon="14.05359681458915"><ele>96.0</ele><time>2026-03-22T10:24:31Z</time></trkpt><trkpt lat="42.35544288041046" lon="14.053593248451671"><ele>96.0</ele><time>2026-03-22T10:24:33Z</time></trkpt><trkpt lat="42.35552167428694" lon="14.053556774619828"><ele>96.0</ele><time>2026-03-22T10:24:35Z</time></trkpt><trkpt lat="42.35560593348911" lon="14.05358797649064"><ele>95.8</ele><time>2026-03-22T10:24:38Z</time></trkpt><trkpt lat="42.35565887888852" lon="14.053721656419086"><ele>95.6</ele><time>2026-03-22T10:24:40Z</time></trkpt><trkpt lat="42.35567306146216" lon="14.053811692600553"><ele>95.4</ele><time>2026-03-22T10:24:41Z</time></trkpt><trkpt lat="42.35568273489433" lon="14.053902965645094"><ele>95.2</ele><time>2026-03-22T10:24:42Z</time></trkpt><trkpt lat="42.355715853799744" lon="14.054036194062304"><ele>95.0</ele><time>2026-03-22T10:24:44Z</time></trkpt><trkpt lat="42.35575993157054" lon="14.054156949724712"><ele>95.0</ele><time>2026-03-22T10:24:46Z</time></trkpt><trkpt lat="42.35574680909439" lon="14.054245311248211"><ele>95.0</ele><time>2026-03-22T10:24:47Z</time></trkpt><trkpt lat="42.35573507209668" lon="14.054349885857416"><ele>95.0</ele><time>2026-03-22T10:24:48Z</time></trkpt><trkpt lat="42.35574175760128" lon="14.054435608095542"><ele>95.0</ele><time>2026-03-22T10:24:49Z</time></trkpt><trkpt lat="42.35573858489354" lon="14.054540183842597"><ele>95.0</ele><time>2026-03-22T10:24:50Z</time></trkpt><trkpt lat="42.35571253914894" lon="14.054647873288745"><ele>95.0</ele><time>2026-03-22T10:24:52Z</time></trkpt><trkpt lat="42.35568320667029" lon="14.05473552449413"><ele>95.0</ele><time>2026-03-22T10:24:56Z</time></trkpt><trkpt lat="42.35564089851675" lon="14.054845208619776"><ele>95.0</ele><time>2026-03-22T10:24:58Z</time></trkpt><trkpt lat="42.35557835984374" lon="14.054876778524523"><ele>95.0</ele><time>2026-03-22T10:25:02.001Z</time></trkpt><trkpt lat="42.35567388981901" lon="14.054914727162299"><ele>95.0</ele><time>2026-03-22T10:25:15.001Z</time></trkpt><trkpt lat="42.35578558246819" lon="14.055129050269572"><ele>95.0</ele><time>2026-03-22T10:25:17.001Z</time></trkpt><trkpt lat="42.35586663952875" lon="14.055209152447947"><ele>95.0</ele><time>2026-03-22T10:25:18.001Z</time></trkpt><trkpt lat="42.355924336258205" lon="14.055283957676972"><ele>95.0</ele><time>2026-03-22T10:25:19.001Z</time></trkpt><trkpt lat="42.35598085615223" lon="14.0553787484056"><ele>95.0</ele><time>2026-03-22T10:25:20.001Z</time></trkpt><trkpt lat="42.35601251867539" lon="14.055458938507883"><ele>95.0</ele><time>2026-03-22T10:25:21Z</time></trkpt><trkpt lat="42.35604910355991" lon="14.055542673408358"><ele>95.0</ele><time>2026-03-22T10:25:22Z</time></trkpt><trkpt lat="42.35601539691221" lon="14.05566586470301"><ele>95.0</ele><time>2026-03-22T10:25:23Z</time></trkpt><trkpt lat="42.35600046437107" lon="14.05575448482366"><ele>94.83333333333334</ele><time>2026-03-22T10:25:24Z</time></trkpt><trkpt lat="42.3559737494445" lon="14.055876016651121"><ele>94.66666666666667</ele><time>2026-03-22T10:25:26Z</time></trkpt><trkpt lat="42.35603940394975" lon="14.055941567269144"><ele>94.5</ele><time>2026-03-22T10:25:28Z</time></trkpt><trkpt lat="42.35614627837385" lon="14.056015767299156"><ele>94.33333333333333</ele><time>2026-03-22T10:25:30Z</time></trkpt><trkpt lat="42.35621812892626" lon="14.056036148757853"><ele>94.16666666666666</ele><time>2026-03-22T10:25:31Z</time></trkpt><trkpt lat="42.35628718122422" lon="14.056066039264646"><ele>94.0</ele><time>2026-03-22T10:25:32Z</time></trkpt><trkpt lat="42.35640418796484" lon="14.056061993108834"><ele>94.0</ele><time>2026-03-22T10:25:33Z</time></trkpt><trkpt lat="42.35650098482373" lon="14.056081408950684"><ele>94.0</ele><time>2026-03-22T10:25:34Z</time></trkpt><trkpt lat="42.35658851144512" lon="14.056113063646725"><ele>94.0</ele><time>2026-03-22T10:25:35Z</time></trkpt><trkpt lat="42.35666525801024" lon="14.056151076681662"><ele>94.0</ele><time>2026-03-22T10:25:36Z</time></trkpt><trkpt lat="42.35674474600031" lon="14.056179010660816"><ele>94.0</ele><time>2026-03-22T10:25:37Z</time></trkpt><trkpt lat="42.35681652252103" lon="14.056160257300649"><ele>94.0</ele><time>2026-03-22T10:25:41Z</time></trkpt><trkpt lat="42.35687814492803" lon="14.056190856946445"><ele>94.0</ele><time>2026-03-22T10:25:42Z</time></trkpt><trkpt lat="42.35696335616974" lon="14.056221260869002"><ele>94.0</ele><time>2026-03-22T10:25:43Z</time></trkpt><trkpt lat="42.35705348534395" lon="14.056255048142722"><ele>94.0</ele><time>2026-03-22T10:25:44Z</time></trkpt><trkpt lat="42.35714965029788" lon="14.056292540242683"><ele>94.0</ele><time>2026-03-22T10:25:45Z</time></trkpt><trkpt lat="42.357253261688236" lon="14.056334719256368"><ele>94.0</ele><time>2026-03-22T10:25:46Z</time></trkpt><trkpt lat="42.35734721799509" lon="14.056388718022557"><ele>94.2</ele><time>2026-03-22T10:25:47Z</time></trkpt><trkpt lat="42.3574404036559" lon="14.056451667709512"><ele>94.4</ele><time>2026-03-22T10:25:48Z</time></trkpt><trkpt lat="42.35752104382549" lon="14.056527646300164"><ele>94.6</ele><time>2026-03-22T10:25:49Z</time></trkpt><trkpt lat="42.35760938800474" lon="14.056620919949696"><ele>94.8</ele><time>2026-03-22T10:25:50Z</time></trkpt><trkpt lat="42.3576797364955" lon="14.056735879530843"><ele>95.0</ele><time>2026-03-22T10:25:51Z</time></trkpt><trkpt lat="42.35775112821616" lon="14.056835923511933"><ele>95.0</ele><time>2026-03-22T10:25:52Z</time></trkpt><trkpt lat="42.35781651499673" lon="14.057015990924597"><ele>95.0</ele><time>2026-03-22T10:25:53Z</time></trkpt><trkpt lat="42.35786850411585" lon="14.057140623238617"><ele>95.0</ele><time>2026-03-22T10:25:54Z</time></trkpt><trkpt lat="42.35804388744469" lon="14.057039002020826"><ele>95.0</ele><time>2026-03-22T10:25:55Z</time></trkpt><trkpt lat="42.35816199142736" lon="14.057041977569952"><ele>97.75</ele><time>2026-03-22T10:25:56Z</time></trkpt><trkpt lat="42.35824993769951" lon="14.05712966445762"><ele>100.5</ele><time>2026-03-22T10:25:57Z</time></trkpt><trkpt lat="42.35834853180395" lon="14.057216414111346"><ele>103.25</ele><time>2026-03-22T10:25:58Z</time></trkpt><trkpt lat="42.35844356867289" lon="14.057292385787719"><ele>106.0</ele><time>2026-03-22T10:25:59Z</time></trkpt><trkpt lat="42.35855313245663" lon="14.057344335558245"><ele>106.0</ele><time>2026-03-22T10:26:00Z</time></trkpt><trkpt lat="42.35867176219922" lon="14.057407524323272"><ele>106.0</ele><time>2026-03-22T10:26:01Z</time></trkpt><trkpt lat="42.358766743115325" lon="14.05747995450648"><ele>106.0</ele><time>2026-03-22T10:26:02Z</time></trkpt><trkpt lat="42.35886148164946" lon="14.057539231878517"><ele>106.0</ele><time>2026-03-22T10:26:03Z</time></trkpt><trkpt lat="42.35895969761235" lon="14.057593825819012"><ele>106.0</ele><time>2026-03-22T10:26:04Z</time></trkpt><trkpt lat="42.35905107289653" lon="14.057653932805474"><ele>109.0</ele><time>2026-03-22T10:26:05Z</time></trkpt><trkpt lat="42.35912008343966" lon="14.05769250577915"><ele>112.0</ele><time>2026-03-22T10:26:06Z</time></trkpt><trkpt lat="42.35917208985936" lon="14.057754503569576"><ele>115.0</ele><time>2026-03-22T10:26:08Z</time></trkpt><trkpt lat="42.3591169456898" lon="14.057959588581916"><ele>118.0</ele><time>2026-03-22T10:26:10Z</time></trkpt><trkpt lat="42.35911366917487" lon="14.058109281715856"><ele>121.0</ele><time>2026-03-22T10:26:11Z</time></trkpt><trkpt lat="42.35910406036021" lon="14.05826994129149"><ele>121.4</ele><time>2026-03-22T10:26:12Z</time></trkpt><trkpt lat="42.359093149524185" lon="14.058422070911805"><ele>121.8</ele><time>2026-03-22T10:26:13Z</time></trkpt><trkpt lat="42.359086226406895" lon="14.058532274548869"><ele>122.20000000000002</ele><time>2026-03-22T10:26:14Z</time></trkpt><trkpt lat="42.35907161474619" lon="14.058625873307472"><ele>122.60000000000001</ele><time>2026-03-22T10:26:16Z</time></trkpt><trkpt lat="42.359070549993746" lon="14.058754333858904"><ele>123.0</ele><time>2026-03-22T10:26:48Z</time></trkpt><trkpt lat="42.35899776175886" lon="14.058880062660563"><ele>123.0</ele><time>2026-03-22T10:26:49Z</time></trkpt><trkpt lat="42.35887252801844" lon="14.058994530492365"><ele>123.0</ele><time>2026-03-22T10:26:50Z</time></trkpt><trkpt lat="42.35877387981229" lon="14.059169676887668"><ele>123.0</ele><time>2026-03-22T10:26:51Z</time></trkpt><trkpt lat="42.35867453283106" lon="14.05934072653252"><ele>117.66666666666666</ele><time>2026-03-22T10:26:52Z</time></trkpt><trkpt lat="42.358552209997555" lon="14.059486016571249"><ele>112.33333333333333</ele><time>2026-03-22T10:26:53Z</time></trkpt><trkpt lat="42.358399851115166" lon="14.059639055187429"><ele>107.0</ele><time>2026-03-22T10:26:54Z</time></trkpt><trkpt lat="42.35824952099315" lon="14.059769051570578"><ele>107.0</ele><time>2026-03-22T10:26:55Z</time></trkpt><trkpt lat="42.35811351530137" lon="14.059879262127367"><ele>107.0</ele><time>2026-03-22T10:26:56Z</time></trkpt><trkpt lat="42.35796208050268" lon="14.059980912851469"><ele>107.0</ele><time>2026-03-22T10:26:57Z</time></trkpt><trkpt lat="42.357795918378315" lon="14.060072300805166"><ele>105.0</ele><time>2026-03-22T10:26:58Z</time></trkpt><trkpt lat="42.35762572714895" lon="14.06015361610918"><ele>103.0</ele><time>2026-03-22T10:26:59Z</time></trkpt><trkpt lat="42.35743895316202" lon="14.060238410777353"><ele>101.0</ele><time>2026-03-22T10:27:00Z</time></trkpt><trkpt lat="42.35724947981183" lon="14.060323587409284"><ele>99.0</ele><time>2026-03-22T10:27:01Z</time></trkpt><trkpt lat="42.35705812392638" lon="14.060404339329073"><ele>97.0</ele><time>2026-03-22T10:27:02Z</time></trkpt><trkpt lat="42.356869808155636" lon="14.060487744202115"><ele>95.0</ele><time>2026-03-22T10:27:03Z</time></trkpt><trkpt lat="42.356688472151745" lon="14.060594156713124"><ele>95.0</ele><time>2026-03-22T10:27:04Z</time></trkpt><trkpt lat="42.356506806658196" lon="14.060674840281926"><ele>95.0</ele><time>2026-03-22T10:27:05.001Z</time></trkpt><trkpt lat="42.356310010166084" lon="14.060736669689042"><ele>95.0</ele><time>2026-03-22T10:27:06.001Z</time></trkpt><trkpt lat="42.356130421068464" lon="14.06081685464649"><ele>94.33333333333334</ele><time>2026-03-22T10:27:07.001Z</time></trkpt><trkpt lat="42.35597415032807" lon="14.060929523939873"><ele>93.66666666666667</ele><time>2026-03-22T10:27:08.001Z</time></trkpt><trkpt lat="42.35582283379045" lon="14.06100893214376"><ele>93.0</ele><time>2026-03-22T10:27:09.001Z</time></trkpt><trkpt lat="42.35567107965483" lon="14.061087395642524"><ele>93.0</ele><time>2026-03-22T10:27:10.001Z</time></trkpt><trkpt lat="42.35552437259487" lon="14.061158140405281"><ele>93.0</ele><time>2026-03-22T10:27:11.001Z</time></trkpt><trkpt lat="42.355386992535536" lon="14.061226313229943"><ele>93.0</ele><time>2026-03-22T10:27:12.001Z</time></trkpt><trkpt lat="42.35526557644034" lon="14.061280131146143"><ele>93.0</ele><time>2026-03-22T10:27:13.001Z</time></trkpt><trkpt lat="42.35514935633164" lon="14.06134342815683"><ele>93.0</ele><time>2026-03-22T10:27:14.001Z</time></trkpt><trkpt lat="42.35504867515114" lon="14.061422265119981"><ele>93.0</ele><time>2026-03-22T10:27:15.001Z</time></trkpt><trkpt lat="42.354968406413306" lon="14.061500780440298"><ele>93.0</ele><time>2026-03-22T10:27:16.001Z</time></trkpt><trkpt lat="42.35491218904252" lon="14.061595519632828"><ele>93.0</ele><time>2026-03-22T10:27:17.001Z</time></trkpt><trkpt lat="42.354876350149304" lon="14.061679775007054"><ele>93.0</ele><time>2026-03-22T10:27:18.001Z</time></trkpt><trkpt lat="42.35483227481614" lon="14.061784202437797"><ele>92.4</ele><time>2026-03-22T10:27:20.001Z</time></trkpt><trkpt lat="42.354786304290236" lon="14.061877727546984"><ele>91.80000000000001</ele><time>2026-03-22T10:27:44Z</time></trkpt><trkpt lat="42.354845928428894" lon="14.061991600784218"><ele>91.2</ele><time>2026-03-22T10:27:51Z</time></trkpt><trkpt lat="42.35491127250856" lon="14.062082861994279"><ele>90.6</ele><time>2026-03-22T10:27:52Z</time></trkpt><trkpt lat="42.355004594612694" lon="14.062202013317656"><ele>90.0</ele><time>2026-03-22T10:27:53Z</time></trkpt><trkpt lat="42.35509797924026" lon="14.06238073960939"><ele>88.33333333333333</ele><time>2026-03-22T10:27:54Z</time></trkpt><trkpt lat="42.355211861811775" lon="14.062550806179734"><ele>86.66666666666666</ele><time>2026-03-22T10:27:55Z</time></trkpt><trkpt lat="42.35532710287346" lon="14.062742742052622"><ele>85.0</ele><time>2026-03-22T10:27:56Z</time></trkpt><trkpt lat="42.35548122666864" lon="14.062946294908675"><ele>87.33333333333333</ele><time>2026-03-22T10:27:57Z</time></trkpt><trkpt lat="42.355573950334254" lon="14.063194592977526"><ele>89.66666666666667</ele><time>2026-03-22T10:27:58Z</time></trkpt><trkpt lat="42.35562470761267" lon="14.063426730365741"><ele>92.0</ele><time>2026-03-22T10:27:59Z</time></trkpt><trkpt lat="42.35565271689357" lon="14.063672106323786"><ele>92.0</ele><time>2026-03-22T10:28:00Z</time></trkpt><trkpt lat="42.35572698034993" lon="14.063920685213324"><ele>92.0</ele><time>2026-03-22T10:28:01Z</time></trkpt><trkpt lat="42.355789418791744" lon="14.064071131401215"><ele>92.0</ele><time>2026-03-22T10:28:02Z</time></trkpt><trkpt lat="42.35586353368521" lon="14.06419514159233"><ele>92.0</ele><time>2026-03-22T10:28:03Z</time></trkpt><trkpt lat="42.355924739295176" lon="14.06409881732962"><ele>92.0</ele><time>2026-03-22T10:28:09Z</time></trkpt><trkpt lat="42.35583928978262" lon="14.064102751995387"><ele>92.0</ele><time>2026-03-22T10:28:14Z</time></trkpt><trkpt lat="42.355791546068474" lon="14.064158602483136"><ele>92.0</ele><time>2026-03-22T10:28:15Z</time></trkpt><trkpt lat="42.355815523687816" lon="14.064249580132469"><ele>92.0</ele><time>2026-03-22T10:28:46Z</time></trkpt><trkpt lat="42.355824314008174" lon="14.064394042035964"><ele>92.0</ele><time>2026-03-22T10:28:48Z</time></trkpt><trkpt lat="42.355825842884386" lon="14.064498472805413"><ele>92.0</ele><time>2026-03-22T10:28:49Z</time></trkpt><trkpt lat="42.35583987623084" lon="14.064626599530293"><ele>92.6</ele><time>2026-03-22T10:28:50Z</time></trkpt><trkpt lat="42.35581254562112" lon="14.064749346258326"><ele>93.19999999999999</ele><time>2026-03-22T10:28:51Z</time></trkpt><trkpt lat="42.355804614989836" lon="14.064877002505614"><ele>93.8</ele><time>2026-03-22T10:28:52Z</time></trkpt><trkpt lat="42.35578135264763" lon="14.065060268442508"><ele>94.4</ele><time>2026-03-22T10:28:53Z</time></trkpt><trkpt lat="42.355760033265206" lon="14.06521729892341"><ele>95.0</ele><time>2026-03-22T10:28:54Z</time></trkpt><trkpt lat="42.35573791568503" lon="14.065374066445338"><ele>95.2</ele><time>2026-03-22T10:28:55Z</time></trkpt><trkpt lat="42.355763618347154" lon="14.065533720477283"><ele>95.4</ele><time>2026-03-22T10:28:56Z</time></trkpt><trkpt lat="42.35571075954642" lon="14.065650219796296"><ele>95.6</ele><time>2026-03-22T10:28:57Z</time></trkpt><trkpt lat="42.35566192060335" lon="14.065765362913533"><ele>95.8</ele><time>2026-03-22T10:28:58Z</time></trkpt><trkpt lat="42.355616187398475" lon="14.065891552382624"><ele>96.0</ele><time>2026-03-22T10:28:59Z</time></trkpt><trkpt lat="42.35554528163324" lon="14.066018184041411"><ele>92.6</ele><time>2026-03-22T10:29:00Z</time></trkpt><trkpt lat="42.355488624248856" lon="14.066112063047335"><ele>89.19999999999999</ele><time>2026-03-22T10:29:01Z</time></trkpt><trkpt lat="42.35541721733173" lon="14.066204487836538"><ele>85.80000000000001</ele><time>2026-03-22T10:29:02Z</time></trkpt><trkpt lat="42.35534744300736" lon="14.066292051647244"><ele>82.4</ele><time>2026-03-22T10:29:03Z</time></trkpt><trkpt lat="42.35523320660357" lon="14.06642694578712"><ele>79.0</ele><time>2026-03-22T10:29:04Z</time></trkpt><trkpt lat="42.35511792872179" lon="14.066551712189806"><ele>80.5</ele><time>2026-03-22T10:29:05Z</time></trkpt><trkpt lat="42.35501628070794" lon="14.06665350143313"><ele>82.0</ele><time>2026-03-22T10:29:06Z</time></trkpt><trkpt lat="42.354930077209055" lon="14.066759293004106"><ele>83.5</ele><time>2026-03-22T10:29:07Z</time></trkpt><trkpt lat="42.3548730165673" lon="14.066906819952052"><ele>85.0</ele><time>2026-03-22T10:29:08Z</time></trkpt><trkpt lat="42.354793675674536" lon="14.066988751791877"><ele>85.0</ele><time>2026-03-22T10:29:09Z</time></trkpt><trkpt lat="42.35472570146789" lon="14.067055346541546"><ele>85.0</ele><time>2026-03-22T10:29:09.999Z</time></trkpt><trkpt lat="42.354636991188734" lon="14.067117524751781"><ele>85.0</ele><time>2026-03-22T10:29:11.001Z</time></trkpt><trkpt lat="42.354519394307744" lon="14.067153871606536"><ele>85.0</ele><time>2026-03-22T10:29:12.001Z</time></trkpt><trkpt lat="42.35441073761308" lon="14.067173917730386"><ele>85.0</ele><time>2026-03-22T10:29:13.001Z</time></trkpt><trkpt lat="42.35432049598529" lon="14.067193218022059"><ele>84.6</ele><time>2026-03-22T10:29:14.001Z</time></trkpt><trkpt lat="42.35424669939308" lon="14.067214964316262"><ele>84.2</ele><time>2026-03-22T10:29:15.001Z</time></trkpt><trkpt lat="42.35417990479896" lon="14.067231072727788"><ele>83.80000000000001</ele><time>2026-03-22T10:29:16.001Z</time></trkpt><trkpt lat="42.35406455213149" lon="14.067256921723668"><ele>83.4</ele><time>2026-03-22T10:29:18.001Z</time></trkpt><trkpt lat="42.35394229798058" lon="14.067284317260498"><ele>83.0</ele><time>2026-03-22T10:29:20.001Z</time></trkpt><trkpt lat="42.353915788254575" lon="14.067520213626596"><ele>83.0</ele><time>2026-03-22T10:29:21.001Z</time></trkpt><trkpt lat="42.35387098713129" lon="14.067603669019663"><ele>83.0</ele><time>2026-03-22T10:29:23.001Z</time></trkpt><trkpt lat="42.35391164346137" lon="14.067717756837528"><ele>83.0</ele><time>2026-03-22T10:29:25Z</time></trkpt><trkpt lat="42.35400829389857" lon="14.067796667134187"><ele>83.0</ele><time>2026-03-22T10:29:27Z</time></trkpt><trkpt lat="42.35406526637654" lon="14.067835176244694"><ele>83.0</ele><time>2026-03-22T10:29:28Z</time></trkpt><trkpt lat="42.35415141087576" lon="14.067917211073913"><ele>83.0</ele><time>2026-03-22T10:29:30Z</time></trkpt><trkpt lat="42.354197616280985" lon="14.068003938084956"><ele>83.0</ele><time>2026-03-22T10:29:31Z</time></trkpt><trkpt lat="42.35424305794996" lon="14.068109544010916"><ele>83.0</ele><time>2026-03-22T10:29:32Z</time></trkpt><trkpt lat="42.35428050088279" lon="14.068239492344727"><ele>83.0</ele><time>2026-03-22T10:29:33Z</time></trkpt><trkpt lat="42.35430576822141" lon="14.068364129552117"><ele>83.0</ele><time>2026-03-22T10:29:34Z</time></trkpt><trkpt lat="42.35437825131343" lon="14.068453186854551"><ele>83.0</ele><time>2026-03-22T10:29:35Z</time></trkpt><trkpt lat="42.35443084421636" lon="14.068516974143376"><ele>83.0</ele><time>2026-03-22T10:29:37Z</time></trkpt><trkpt lat="42.35451799197879" lon="14.06859008554008"><ele>83.0</ele><time>2026-03-22T10:29:40Z</time></trkpt><trkpt lat="42.354556822063685" lon="14.068717876780829"><ele>83.0</ele><time>2026-03-22T10:29:42Z</time></trkpt><trkpt lat="42.35450953294046" lon="14.068781835053816"><ele>83.0</ele><time>2026-03-22T10:29:45Z</time></trkpt><trkpt lat="42.354510778072104" lon="14.068882600503963"><ele>83.0</ele><time>2026-03-22T10:29:47Z</time></trkpt><trkpt lat="42.35448264347514" lon="14.069003317552705"><ele>83.0</ele><time>2026-03-22T10:29:49Z</time></trkpt><trkpt lat="42.35449321414096" lon="14.069105133779674"><ele>83.0</ele><time>2026-03-22T10:29:51Z</time></trkpt><trkpt lat="42.35448919685866" lon="14.06920073073029"><ele>83.0</ele><time>2026-03-22T10:29:52Z</time></trkpt><trkpt lat="42.354430693106096" lon="14.069298610565479"><ele>83.0</ele><time>2026-03-22T10:29:54Z</time></trkpt><trkpt lat="42.354406350325775" lon="14.069393119598358"><ele>83.0</ele><time>2026-03-22T10:29:56Z</time></trkpt><trkpt lat="42.35446261599431" lon="14.069535544341047"><ele>83.0</ele><time>2026-03-22T10:29:58Z</time></trkpt><trkpt lat="42.35451091267106" lon="14.069637328866289"><ele>82.83333333333334</ele><time>2026-03-22T10:30:00Z</time></trkpt><trkpt lat="42.354471780052556" lon="14.069745142979594"><ele>82.66666666666667</ele><time>2026-03-22T10:30:02Z</time></trkpt><trkpt lat="42.354399231820736" lon="14.069794339828011"><ele>82.5</ele><time>2026-03-22T10:30:04Z</time></trkpt><trkpt lat="42.35437200168397" lon="14.069913446104952"><ele>82.33333333333333</ele><time>2026-03-22T10:30:06Z</time></trkpt><trkpt lat="42.3543860745291" lon="14.070014548761815"><ele>82.16666666666666</ele><time>2026-03-22T10:30:07Z</time></trkpt><trkpt lat="42.354415716912655" lon="14.070103542610356"><ele>82.0</ele><time>2026-03-22T10:30:08Z</time></trkpt><trkpt lat="42.35444988687023" lon="14.070193123958367"><ele>82.6</ele><time>2026-03-22T10:30:09Z</time></trkpt><trkpt lat="42.3545003740094" lon="14.070285616764687"><ele>83.19999999999999</ele><time>2026-03-22T10:30:11Z</time></trkpt><trkpt lat="42.354547172905825" lon="14.070372478633567"><ele>83.8</ele><time>2026-03-22T10:30:13Z</time></trkpt><trkpt lat="42.354574092413905" lon="14.070483507610275"><ele>84.4</ele><time>2026-03-22T10:30:17Z</time></trkpt><trkpt lat="42.35454642342148" lon="14.070591833618561"><ele>85.0</ele><time>2026-03-22T10:30:18Z</time></trkpt><trkpt lat="42.3545053097087" lon="14.07075000086596"><ele>85.16666666666666</ele><time>2026-03-22T10:30:20Z</time></trkpt><trkpt lat="42.35448629001961" lon="14.070833318736533"><ele>85.33333333333333</ele><time>2026-03-22T10:30:21Z</time></trkpt><trkpt lat="42.35446603502022" lon="14.070929392058318"><ele>85.5</ele><time>2026-03-22T10:30:22Z</time></trkpt><trkpt lat="42.354385885688494" lon="14.071056050764094"><ele>85.66666666666667</ele><time>2026-03-22T10:30:24Z</time></trkpt><trkpt lat="42.35433938059433" lon="14.071158599216215"><ele>85.83333333333334</ele><time>2026-03-22T10:30:25Z</time></trkpt><trkpt lat="42.35430527785984" lon="14.071256944505215"><ele>86.0</ele><time>2026-03-22T10:30:26Z</time></trkpt><trkpt lat="42.35427832002939" lon="14.071419294715348"><ele>86.0</ele><time>2026-03-22T10:30:28Z</time></trkpt><trkpt lat="42.35428354842262" lon="14.071506370882977"><ele>86.0</ele><time>2026-03-22T10:30:29Z</time></trkpt><trkpt lat="42.3542537608995" lon="14.071638412074002"><ele>86.0</ele><time>2026-03-22T10:30:31Z</time></trkpt><trkpt lat="42.35420330340535" lon="14.071758232585097"><ele>86.0</ele><time>2026-03-22T10:30:33Z</time></trkpt><trkpt lat="42.35413643030822" lon="14.071801936061789"><ele>86.0</ele><time>2026-03-22T10:30:35Z</time></trkpt><trkpt lat="42.354065855110086" lon="14.071815562381916"><ele>86.0</ele><time>2026-03-22T10:30:37Z</time></trkpt><trkpt lat="42.353982122045416" lon="14.071879993882582"><ele>86.19999999999999</ele><time>2026-03-22T10:30:40Z</time></trkpt><trkpt lat="42.35390600005009" lon="14.071964622244648"><ele>86.39999999999999</ele><time>2026-03-22T10:30:42Z</time></trkpt><trkpt lat="42.353827243746174" lon="14.072088708695171"><ele>86.6</ele><time>2026-03-22T10:30:44Z</time></trkpt><trkpt lat="42.35379295153686" lon="14.072187717468061"><ele>86.8</ele><time>2026-03-22T10:30:45Z</time></trkpt><trkpt lat="42.35370720694776" lon="14.07222118187698"><ele>87.0</ele><time>2026-03-22T10:30:47Z</time></trkpt><trkpt lat="42.353636615899774" lon="14.072290221827794"><ele>85.8</ele><time>2026-03-22T10:30:49Z</time></trkpt><trkpt lat="42.353526832310195" lon="14.072424279383679"><ele>84.6</ele><time>2026-03-22T10:30:51Z</time></trkpt><trkpt lat="42.353458677920415" lon="14.072472597113702"><ele>83.39999999999999</ele><time>2026-03-22T10:30:52Z</time></trkpt><trkpt lat="42.35336910621964" lon="14.072501577820471"><ele>82.19999999999999</ele><time>2026-03-22T10:30:54Z</time></trkpt><trkpt lat="42.353288921149485" lon="14.072535547707322"><ele>81.0</ele><time>2026-03-22T10:30:56Z</time></trkpt><trkpt lat="42.35321534588969" lon="14.072540260190317"><ele>81.0</ele><time>2026-03-22T10:30:58Z</time></trkpt><trkpt lat="42.35316487651631" lon="14.072408556893828"><ele>81.0</ele><time>2026-03-22T10:31:00.999Z</time></trkpt><trkpt lat="42.35306243286387" lon="14.072485667949868"><ele>81.0</ele><time>2026-03-22T10:31:04.999Z</time></trkpt><trkpt lat="42.35298659088112" lon="14.072538688675593"><ele>81.0</ele><time>2026-03-22T10:31:05.999Z</time></trkpt><trkpt lat="42.35292170600117" lon="14.072547933545422"><ele>81.0</ele><time>2026-03-22T10:31:06.999Z</time></trkpt><trkpt lat="42.35283280304182" lon="14.072599549175294"><ele>80.2</ele><time>2026-03-22T10:31:08.999Z</time></trkpt><trkpt lat="42.3527667331795" lon="14.072593897421099"><ele>79.39999999999999</ele><time>2026-03-22T10:31:10.999Z</time></trkpt><trkpt lat="42.35256306256907" lon="14.072684499165023"><ele>78.6</ele><time>2026-03-22T10:31:12.999Z</time></trkpt><trkpt lat="42.35250069699848" lon="14.072698474225133"><ele>77.8</ele><time>2026-03-22T10:31:13.999Z</time></trkpt><trkpt lat="42.35242892832093" lon="14.072710880561065"><ele>77.0</ele><time>2026-03-22T10:31:14.999Z</time></trkpt><trkpt lat="42.35232178661356" lon="14.072679306855582"><ele>77.0</ele><time>2026-03-22T10:31:17Z</time></trkpt><trkpt lat="42.35222764044275" lon="14.072668845758484"><ele>77.0</ele><time>2026-03-22T10:31:19Z</time></trkpt><trkpt lat="42.352135452994006" lon="14.072667600316256"><ele>77.0</ele><time>2026-03-22T10:31:21Z</time></trkpt><trkpt lat="42.35202499043445" lon="14.07267576961672"><ele>77.0</ele><time>2026-03-22T10:31:23Z</time></trkpt><trkpt lat="42.351909195941396" lon="14.072669371423592"><ele>77.0</ele><time>2026-03-22T10:31:25Z</time></trkpt><trkpt lat="42.35180763066848" lon="14.072685432549523"><ele>76.5</ele><time>2026-03-22T10:31:27Z</time></trkpt><trkpt lat="42.351646840921546" lon="14.072644449859418"><ele>76.0</ele><time>2026-03-22T10:31:29Z</time></trkpt><trkpt lat="42.351579351358325" lon="14.072627075705999"><ele>75.5</ele><time>2026-03-22T10:31:30Z</time></trkpt><trkpt lat="42.351463753712075" lon="14.072418980497043"><ele>75.0</ele><time>2026-03-22T10:31:31Z</time></trkpt><trkpt lat="42.35140049121006" lon="14.072411676577355"><ele>75.5</ele><time>2026-03-22T10:31:32Z</time></trkpt><trkpt lat="42.3513107447975" lon="14.072420608418945"><ele>76.0</ele><time>2026-03-22T10:31:33Z</time></trkpt><trkpt lat="42.35122740369397" lon="14.072484290115005"><ele>76.5</ele><time>2026-03-22T10:31:35Z</time></trkpt><trkpt lat="42.35107304326319" lon="14.072607305731234"><ele>77.0</ele><time>2026-03-22T10:31:42Z</time></trkpt><trkpt lat="42.35096689460862" lon="14.072622158697747"><ele>77.0</ele><time>2026-03-22T10:31:43Z</time></trkpt><trkpt lat="42.35087101871252" lon="14.072656877289603"><ele>77.0</ele><time>2026-03-22T10:31:44Z</time></trkpt><trkpt lat="42.350775739541625" lon="14.072681721374195"><ele>77.0</ele><time>2026-03-22T10:31:46Z</time></trkpt><trkpt lat="42.35070951479491" lon="14.072695496457147"><ele>77.0</ele><time>2026-03-22T10:31:48Z</time></trkpt><trkpt lat="42.35049331997286" lon="14.072699451232117"><ele>77.33333333333334</ele><time>2026-03-22T10:31:53Z</time></trkpt><trkpt lat="42.35040986323641" lon="14.072664188205573"><ele>77.66666666666667</ele><time>2026-03-22T10:31:54Z</time></trkpt><trkpt lat="42.35033528086238" lon="14.072616791025535"><ele>78.0</ele><time>2026-03-22T10:31:55Z</time></trkpt><trkpt lat="42.35026739623841" lon="14.07257793551927"><ele>78.33333333333333</ele><time>2026-03-22T10:31:56Z</time></trkpt><trkpt lat="42.35020455919948" lon="14.072534068419378"><ele>78.66666666666666</ele><time>2026-03-22T10:31:57Z</time></trkpt><trkpt lat="42.35014141686628" lon="14.0724928514738"><ele>79.0</ele><time>2026-03-22T10:31:58Z</time></trkpt><trkpt lat="42.350074106924495" lon="14.072469187385535"><ele>79.0</ele><time>2026-03-22T10:31:59Z</time></trkpt><trkpt lat="42.35001101227173" lon="14.072456821060548"><ele>79.0</ele><time>2026-03-22T10:32:00Z</time></trkpt><trkpt lat="42.34993410950012" lon="14.072448549302633"><ele>79.0</ele><time>2026-03-22T10:32:01Z</time></trkpt><trkpt lat="42.34983709553478" lon="14.07251038687908"><ele>79.0</ele><time>2026-03-22T10:32:03Z</time></trkpt><trkpt lat="42.34976004788146" lon="14.072595189283632"><ele>79.0</ele><time>2026-03-22T10:32:05Z</time></trkpt><trkpt lat="42.349846205906424" lon="14.07272976151998"><ele>79.0</ele><time>2026-03-22T10:32:06Z</time></trkpt><trkpt lat="42.34987436372348" lon="14.072884701562067"><ele>79.0</ele><time>2026-03-22T10:32:08Z</time></trkpt><trkpt lat="42.34993667530628" lon="14.073174147721621"><ele>79.0</ele><time>2026-03-22T10:32:10Z</time></trkpt><trkpt lat="42.34995612045671" lon="14.073328539940537"><ele>78.60000000000001</ele><time>2026-03-22T10:32:12Z</time></trkpt><trkpt lat="42.34990140153785" lon="14.073394504339142"><ele>78.2</ele><time>2026-03-22T10:32:13Z</time></trkpt><trkpt lat="42.3499395582506" lon="14.073520034436902"><ele>77.80000000000001</ele><time>2026-03-22T10:32:15Z</time></trkpt><trkpt lat="42.350064284373445" lon="14.073564175978024"><ele>77.4</ele><time>2026-03-22T10:32:17Z</time></trkpt><trkpt lat="42.35010116846274" lon="14.073704948808773"><ele>77.0</ele><time>2026-03-22T10:32:19Z</time></trkpt><trkpt lat="42.350134309067634" lon="14.073822631676261"><ele>77.0</ele><time>2026-03-22T10:32:21Z</time></trkpt><trkpt lat="42.35014102633552" lon="14.073923970584131"><ele>77.0</ele><time>2026-03-22T10:32:22Z</time></trkpt><trkpt lat="42.3501248574264" lon="14.074036774580922"><ele>77.0</ele><time>2026-03-22T10:32:23Z</time></trkpt><trkpt lat="42.35014620647281" lon="14.074120905857631"><ele>77.0</ele><time>2026-03-22T10:32:25Z</time></trkpt><trkpt lat="42.35019074109065" lon="14.074216181265406"><ele>77.0</ele><time>2026-03-22T10:32:28Z</time></trkpt><trkpt lat="42.35021630979319" lon="14.074313737586001"><ele>77.0</ele><time>2026-03-22T10:32:32Z</time></trkpt><trkpt lat="42.350245338739875" lon="14.074403399940854"><ele>76.71428571428571</ele><time>2026-03-22T10:32:35Z</time></trkpt><trkpt lat="42.35023296200242" lon="14.074530247632596"><ele>76.42857142857143</ele><time>2026-03-22T10:32:37Z</time></trkpt><trkpt lat="42.35023026031819" lon="14.074630634312143"><ele>76.14285714285714</ele><time>2026-03-22T10:32:38Z</time></trkpt><trkpt lat="42.350234484698994" lon="14.074719713284427"><ele>75.85714285714286</ele><time>2026-03-22T10:32:39Z</time></trkpt><trkpt lat="42.35022909958655" lon="14.07480936697136"><ele>75.57142857142857</ele><time>2026-03-22T10:32:40Z</time></trkpt><trkpt lat="42.35022683505394" lon="14.074895615299074"><ele>75.28571428571428</ele><time>2026-03-22T10:32:40.999Z</time></trkpt><trkpt lat="42.35020213913673" lon="14.074986743224727"><ele>75.0</ele><time>2026-03-22T10:32:42.999Z</time></trkpt><trkpt lat="42.35020228134778" lon="14.075123424854873"><ele>74.5</ele><time>2026-03-22T10:32:44.999Z</time></trkpt><trkpt lat="42.350248917614955" lon="14.075231019801791"><ele>74.0</ele><time>2026-03-22T10:32:46.999Z</time></trkpt><trkpt lat="42.350231979770584" lon="14.075334175219586"><ele>73.5</ele><time>2026-03-22T10:32:48.999Z</time></trkpt><trkpt lat="42.35027314198028" lon="14.075416012180025"><ele>73.0</ele><time>2026-03-22T10:32:50.999Z</time></trkpt><trkpt lat="42.350335436835024" lon="14.075460748448027"><ele>72.5</ele><time>2026-03-22T10:32:52.999Z</time></trkpt><trkpt lat="42.35043264087855" lon="14.075465313858176"><ele>72.0</ele><time>2026-03-22T10:33:29Z</time></trkpt><trkpt lat="42.35043574364537" lon="14.075580638909873"><ele>72.0</ele><time>2026-03-22T10:36:11Z</time></trkpt><trkpt lat="42.350437492714406" lon="14.075678652901416"><ele>72.0</ele><time>2026-03-22T10:36:12Z</time></trkpt><trkpt lat="42.35044366368575" lon="14.075807585185476"><ele>72.0</ele><time>2026-03-22T10:36:13Z</time></trkpt><trkpt lat="42.35041114734676" lon="14.075949783681137"><ele>72.0</ele><time>2026-03-22T10:36:14Z</time></trkpt><trkpt lat="42.35042216474708" lon="14.076107716592036"><ele>72.0</ele><time>2026-03-22T10:36:15Z</time></trkpt><trkpt lat="42.35043280420174" lon="14.076278130487918"><ele>71.6</ele><time>2026-03-22T10:36:16Z</time></trkpt><trkpt lat="42.350438825421776" lon="14.076435184334565"><ele>71.2</ele><time>2026-03-22T10:36:17Z</time></trkpt><trkpt lat="42.350440145529475" lon="14.076570841445612"><ele>70.8</ele><time>2026-03-22T10:36:18Z</time></trkpt><trkpt lat="42.35043666366155" lon="14.076735445879647"><ele>70.4</ele><time>2026-03-22T10:36:19Z</time></trkpt><trkpt lat="42.35043253362143" lon="14.076862409857366"><ele>70.0</ele><time>2026-03-22T10:36:20Z</time></trkpt><trkpt lat="42.35042883911361" lon="14.077035955645634"><ele>69.5</ele><time>2026-03-22T10:36:21Z</time></trkpt><trkpt lat="42.3504259107679" lon="14.077198688085364"><ele>69.0</ele><time>2026-03-22T10:36:22Z</time></trkpt><trkpt lat="42.35043107220774" lon="14.077400304648481"><ele>68.5</ele><time>2026-03-22T10:36:23Z</time></trkpt><trkpt lat="42.35045292901878" lon="14.077548232048851"><ele>68.0</ele><time>2026-03-22T10:36:24Z</time></trkpt><trkpt lat="42.35046117150989" lon="14.07770222503978"><ele>67.8</ele><time>2026-03-22T10:36:25Z</time></trkpt><trkpt lat="42.35047461723695" lon="14.07781994442175"><ele>67.6</ele><time>2026-03-22T10:36:26Z</time></trkpt><trkpt lat="42.350484812848464" lon="14.077913324294395"><ele>67.4</ele><time>2026-03-22T10:36:27Z</time></trkpt><trkpt lat="42.350492343291926" lon="14.078073069580059"><ele>67.2</ele><time>2026-03-22T10:36:28Z</time></trkpt><trkpt lat="42.350510008779025" lon="14.078175935614878"><ele>67.0</ele><time>2026-03-22T10:36:28.999Z</time></trkpt><trkpt lat="42.35053136013376" lon="14.078378188924647"><ele>67.2</ele><time>2026-03-22T10:36:30.999Z</time></trkpt><trkpt lat="42.35055522944069" lon="14.078544793841806"><ele>67.4</ele><time>2026-03-22T10:36:31.999Z</time></trkpt><trkpt lat="42.35053160292163" lon="14.078686414305597"><ele>67.6</ele><time>2026-03-22T10:36:32.999Z</time></trkpt><trkpt lat="42.35049556240685" lon="14.07880238094486"><ele>67.8</ele><time>2026-03-22T10:36:33.999Z</time></trkpt><trkpt lat="42.35044518748891" lon="14.078904726232015"><ele>68.0</ele><time>2026-03-22T10:36:34.999Z</time></trkpt><trkpt lat="42.3504154578767" lon="14.079012596544414"><ele>67.6</ele><time>2026-03-22T10:36:35.999Z</time></trkpt><trkpt lat="42.35039686048753" lon="14.079137996610454"><ele>67.19999999999999</ele><time>2026-03-22T10:36:36.999Z</time></trkpt><trkpt lat="42.350376224169125" lon="14.079268154326272"><ele>66.8</ele><time>2026-03-22T10:36:37.999Z</time></trkpt><trkpt lat="42.35035233697731" lon="14.079409778119564"><ele>66.39999999999999</ele><time>2026-03-22T10:36:38.999Z</time></trkpt><trkpt lat="42.35032138738873" lon="14.079534587574237"><ele>66.0</ele><time>2026-03-22T10:36:39.999Z</time></trkpt><trkpt lat="42.350279664239665" lon="14.079663084880735"><ele>66.0</ele><time>2026-03-22T10:36:40.999Z</time></trkpt><trkpt lat="42.35023706792459" lon="14.079773192852146"><ele>66.0</ele><time>2026-03-22T10:36:41.999Z</time></trkpt><trkpt lat="42.35018778781923" lon="14.079882186442402"><ele>66.0</ele><time>2026-03-22T10:36:42.999Z</time></trkpt><trkpt lat="42.350126496272374" lon="14.079973603829396"><ele>66.0</ele><time>2026-03-22T10:36:43.999Z</time></trkpt><trkpt lat="42.35006648888067" lon="14.080023368854816"><ele>66.0</ele><time>2026-03-22T10:36:44.999Z</time></trkpt><trkpt lat="42.34998877176758" lon="14.080085304927021"><ele>66.0</ele><time>2026-03-22T10:36:45.999Z</time></trkpt><trkpt lat="42.34989955352067" lon="14.080172131535202"><ele>66.0</ele><time>2026-03-22T10:36:46.999Z</time></trkpt><trkpt lat="42.3498113971333" lon="14.08026050215322"><ele>66.0</ele><time>2026-03-22T10:36:47.999Z</time></trkpt><trkpt lat="42.349721052826645" lon="14.08035461095172"><ele>66.0</ele><time>2026-03-22T10:36:48.999Z</time></trkpt><trkpt lat="42.349642258919836" lon="14.080436849436214"><ele>66.0</ele><time>2026-03-22T10:36:49.999Z</time></trkpt><trkpt lat="42.34956006049165" lon="14.080528419583663"><ele>66.0</ele><time>2026-03-22T10:36:50.999Z</time></trkpt><trkpt lat="42.349511783942184" lon="14.080591291407433"><ele>66.0</ele><time>2026-03-22T10:36:51.999Z</time></trkpt><trkpt lat="42.34950944552744" lon="14.080761489267816"><ele>66.0</ele><time>2026-03-22T10:36:53.999Z</time></trkpt><trkpt lat="42.34959761804526" lon="14.080862891237487"><ele>66.0</ele><time>2026-03-22T10:36:54.999Z</time></trkpt><trkpt lat="42.34966681528318" lon="14.0809755199587"><ele>66.0</ele><time>2026-03-22T10:36:55.999Z</time></trkpt><trkpt lat="42.34970347273591" lon="14.081087840335726"><ele>66.0</ele><time>2026-03-22T10:36:56.999Z</time></trkpt><trkpt lat="42.34962957411475" lon="14.08117266156711"><ele>66.2</ele><time>2026-03-22T10:36:59.999Z</time></trkpt><trkpt lat="42.34956691965038" lon="14.08123460673448"><ele>66.39999999999999</ele><time>2026-03-22T10:37:01.999Z</time></trkpt><trkpt lat="42.349479598333275" lon="14.08125018244678"><ele>66.6</ele><time>2026-03-22T10:37:03.999Z</time></trkpt><trkpt lat="42.349332397958115" lon="14.081224787199671"><ele>66.8</ele><time>2026-03-22T10:37:05.999Z</time></trkpt><trkpt lat="42.34923053620849" lon="14.081198673546522"><ele>67.0</ele><time>2026-03-22T10:37:06.999Z</time></trkpt><trkpt lat="42.34912454021208" lon="14.08117953031895"><ele>67.0</ele><time>2026-03-22T10:37:07.999Z</time></trkpt><trkpt lat="42.34900184940892" lon="14.08119912326848"><ele>67.0</ele><time>2026-03-22T10:37:08.999Z</time></trkpt><trkpt lat="42.34888110217117" lon="14.081283576458691"><ele>67.0</ele><time>2026-03-22T10:37:09.999Z</time></trkpt><trkpt lat="42.34877070359278" lon="14.081375313570652"><ele>67.0</ele><time>2026-03-22T10:37:10.999Z</time></trkpt><trkpt lat="42.348682046636995" lon="14.081456924167231"><ele>67.0</ele><time>2026-03-22T10:37:11.999Z</time></trkpt><trkpt lat="42.34863364384418" lon="14.081537817409536"><ele>67.0</ele><time>2026-03-22T10:37:12.999Z</time></trkpt><trkpt lat="42.34856684953445" lon="14.081621029060042"><ele>67.0</ele><time>2026-03-22T10:37:13.999Z</time></trkpt><trkpt lat="42.34853843136945" lon="14.081717329698048"><ele>67.0</ele><time>2026-03-22T10:37:14.999Z</time></trkpt><trkpt lat="42.34853349171454" lon="14.08182421147212"><ele>67.0</ele><time>2026-03-22T10:37:15.999Z</time></trkpt><trkpt lat="42.34848579631204" lon="14.08197154857722"><ele>67.0</ele><time>2026-03-22T10:37:17.999Z</time></trkpt><trkpt lat="42.34840351871693" lon="14.081978396988488"><ele>67.0</ele><time>2026-03-22T10:37:20.999Z</time></trkpt><trkpt lat="42.3483367174874" lon="14.081954942856779"><ele>67.0</ele><time>2026-03-22T10:37:22.999Z</time></trkpt><trkpt lat="42.348330003172315" lon="14.081842256746217"><ele>67.0</ele><time>2026-03-22T10:37:50Z</time></trkpt><trkpt lat="42.348351224036065" lon="14.081748167203058"><ele>67.0</ele><time>2026-03-22T10:37:51Z</time></trkpt><trkpt lat="42.34838321155477" lon="14.081645141773295"><ele>67.0</ele><time>2026-03-22T10:37:52Z</time></trkpt><trkpt lat="42.348608041830495" lon="14.081580340461853"><ele>67.0</ele><time>2026-03-22T10:37:54Z</time></trkpt><trkpt lat="42.3486262663854" lon="14.081496507434665"><ele>67.0</ele><time>2026-03-22T10:37:57Z</time></trkpt><trkpt lat="42.34835973983664" lon="14.081267701224125"><ele>67.0</ele><time>2026-03-22T10:38:23Z</time></trkpt><trkpt lat="42.34838973464044" lon="14.08156639225332"><ele>66.6</ele><time>2026-03-22T10:38:31.999Z</time></trkpt><trkpt lat="42.348374733879574" lon="14.081652027371545"><ele>66.2</ele><time>2026-03-22T10:38:32.999Z</time></trkpt><trkpt lat="42.348522513667085" lon="14.081767772500218"><ele>65.8</ele><time>2026-03-22T10:38:33.999Z</time></trkpt><trkpt lat="42.34851048958411" lon="14.081867498926334"><ele>65.4</ele><time>2026-03-22T10:38:34.999Z</time></trkpt><trkpt lat="42.34849343046581" lon="14.08198947177497"><ele>65.0</ele><time>2026-03-22T10:38:35.999Z</time></trkpt><trkpt lat="42.34823437689542" lon="14.082015216562493"><ele>65.0</ele><time>2026-03-22T10:38:36.999Z</time></trkpt><trkpt lat="42.348187023692155" lon="14.082115546906724"><ele>65.0</ele><time>2026-03-22T10:38:37.999Z</time></trkpt><trkpt lat="42.348135024840914" lon="14.082225720246932"><ele>65.0</ele><time>2026-03-22T10:38:38.999Z</time></trkpt><trkpt lat="42.34807418795101" lon="14.082350521622052"><ele>65.0</ele><time>2026-03-22T10:38:39.999Z</time></trkpt><trkpt lat="42.348010089714954" lon="14.082486727284076"><ele>65.0</ele><time>2026-03-22T10:38:40.999Z</time></trkpt><trkpt lat="42.347947213911844" lon="14.082618312077768"><ele>65.6</ele><time>2026-03-22T10:38:41.999Z</time></trkpt><trkpt lat="42.34787778840432" lon="14.082735727207899"><ele>66.2</ele><time>2026-03-22T10:38:42.999Z</time></trkpt><trkpt lat="42.34779783346849" lon="14.082818431997639"><ele>66.8</ele><time>2026-03-22T10:38:43.999Z</time></trkpt><trkpt lat="42.34769835114319" lon="14.082910635367227"><ele>67.4</ele><time>2026-03-22T10:38:44.999Z</time></trkpt><trkpt lat="42.34763954710104" lon="14.083003189680197"><ele>68.0</ele><time>2026-03-22T10:38:45.999Z</time></trkpt><trkpt lat="42.34758552114472" lon="14.0831206255264"><ele>67.75</ele><time>2026-03-22T10:38:46.999Z</time></trkpt><trkpt lat="42.347565213224804" lon="14.083301712781452"><ele>67.5</ele><time>2026-03-22T10:38:47.999Z</time></trkpt><trkpt lat="42.34756281992442" lon="14.083472654913102"><ele>67.25</ele><time>2026-03-22T10:38:48.999Z</time></trkpt><trkpt lat="42.347565388755605" lon="14.083628201719161"><ele>67.0</ele><time>2026-03-22T10:38:49.999Z</time></trkpt><trkpt lat="42.34757257869919" lon="14.08374715809255"><ele>67.0</ele><time>2026-03-22T10:38:50.999Z</time></trkpt><trkpt lat="42.347582912188244" lon="14.083854931486483"><ele>67.0</ele><time>2026-03-22T10:38:51.999Z</time></trkpt><trkpt lat="42.3476072727945" lon="14.084046687358907"><ele>67.0</ele><time>2026-03-22T10:38:53.999Z</time></trkpt><trkpt lat="42.34762868834482" lon="14.084164259798824"><ele>67.0</ele><time>2026-03-22T10:38:54.999Z</time></trkpt><trkpt lat="42.347656612042584" lon="14.08427436601751"><ele>67.0</ele><time>2026-03-22T10:38:55.999Z</time></trkpt><trkpt lat="42.34768942574899" lon="14.08435901138701"><ele>67.2</ele><time>2026-03-22T10:38:56.999Z</time></trkpt><trkpt lat="42.34771484280647" lon="14.084484799244626"><ele>67.4</ele><time>2026-03-22T10:38:57.999Z</time></trkpt><trkpt lat="42.347761382311155" lon="14.08460657980924"><ele>67.6</ele><time>2026-03-22T10:38:58.999Z</time></trkpt><trkpt lat="42.34777720990179" lon="14.084729499253461"><ele>67.8</ele><time>2026-03-22T10:38:59.999Z</time></trkpt><trkpt lat="42.347793648315594" lon="14.084833765144294"><ele>68.0</ele><time>2026-03-22T10:39:00.999Z</time></trkpt><trkpt lat="42.34781414554779" lon="14.084965932774363"><ele>68.2</ele><time>2026-03-22T10:39:01.999Z</time></trkpt><trkpt lat="42.34783907849777" lon="14.085088274073534"><ele>68.4</ele><time>2026-03-22T10:39:02.999Z</time></trkpt><trkpt lat="42.34787770897498" lon="14.08520538889311"><ele>68.60000000000001</ele><time>2026-03-22T10:39:03.999Z</time></trkpt><trkpt lat="42.3479176754161" lon="14.085331630247673"><ele>68.8</ele><time>2026-03-22T10:39:04.999Z</time></trkpt><trkpt lat="42.347964620190204" lon="14.085435192867239"><ele>69.0</ele><time>2026-03-22T10:39:05.999Z</time></trkpt><trkpt lat="42.34798261777549" lon="14.08553719688111"><ele>69.0</ele><time>2026-03-22T10:39:06.999Z</time></trkpt><trkpt lat="42.347997516217944" lon="14.085656501950897"><ele>69.0</ele><time>2026-03-22T10:39:07.999Z</time></trkpt><trkpt lat="42.34799878070074" lon="14.085781076346793"><ele>69.0</ele><time>2026-03-22T10:39:08.999Z</time></trkpt><trkpt lat="42.3480454424597" lon="14.085934009119708"><ele>69.0</ele><time>2026-03-22T10:39:09.999Z</time></trkpt><trkpt lat="42.34807286562763" lon="14.086071975890773"><ele>69.0</ele><time>2026-03-22T10:39:10.999Z</time></trkpt><trkpt lat="42.34808252738772" lon="14.086200455796135"><ele>67.8</ele><time>2026-03-22T10:39:11.999Z</time></trkpt><trkpt lat="42.34810306062965" lon="14.086344446612708"><ele>66.60000000000001</ele><time>2026-03-22T10:39:12.999Z</time></trkpt><trkpt lat="42.34813858377557" lon="14.086472472224944"><ele>65.4</ele><time>2026-03-22T10:39:13.999Z</time></trkpt><trkpt lat="42.34816262299153" lon="14.08659220042682"><ele>64.2</ele><time>2026-03-22T10:39:14.999Z</time></trkpt><trkpt lat="42.34817337619841" lon="14.086705400882598"><ele>63.0</ele><time>2026-03-22T10:39:15.999Z</time></trkpt><trkpt lat="42.34822818633367" lon="14.086807654631706"><ele>63.0</ele><time>2026-03-22T10:39:17.999Z</time></trkpt><trkpt lat="42.34829753245267" lon="14.086889046381241"><ele>63.0</ele><time>2026-03-22T10:39:19.999Z</time></trkpt><trkpt lat="42.34839131693055" lon="14.086976593785613"><ele>63.0</ele><time>2026-03-22T10:39:21.999Z</time></trkpt><trkpt lat="42.348451241966885" lon="14.087014756373248"><ele>63.0</ele><time>2026-03-22T10:39:22.999Z</time></trkpt><trkpt lat="42.348536821446736" lon="14.087081943584591"><ele>63.0</ele><time>2026-03-22T10:39:24.999Z</time></trkpt><trkpt lat="42.348626741595574" lon="14.087231652556701"><ele>63.0</ele><time>2026-03-22T10:39:26.999Z</time></trkpt><trkpt lat="42.348630015250635" lon="14.08736349189066"><ele>63.0</ele><time>2026-03-22T10:39:27.999Z</time></trkpt><trkpt lat="42.34863357350935" lon="14.087490769635089"><ele>63.0</ele><time>2026-03-22T10:39:28.999Z</time></trkpt><trkpt lat="42.34864096020031" lon="14.087630691492588"><ele>63.0</ele><time>2026-03-22T10:39:29.999Z</time></trkpt><trkpt lat="42.34864916325609" lon="14.087756060765194"><ele>63.0</ele><time>2026-03-22T10:39:30.999Z</time></trkpt><trkpt lat="42.34868019705375" lon="14.087903174508948"><ele>62.75</ele><time>2026-03-22T10:39:31.999Z</time></trkpt><trkpt lat="42.34872800449634" lon="14.08805520732459"><ele>62.5</ele><time>2026-03-22T10:39:32.999Z</time></trkpt><trkpt lat="42.34873657676133" lon="14.088198720062055"><ele>62.25</ele><time>2026-03-22T10:39:33.999Z</time></trkpt><trkpt lat="42.348738602288236" lon="14.088368553806522"><ele>62.0</ele><time>2026-03-22T10:39:34.999Z</time></trkpt><trkpt lat="42.34874727549901" lon="14.088562245876131"><ele>62.75</ele><time>2026-03-22T10:39:35.999Z</time></trkpt><trkpt lat="42.34875604549973" lon="14.088762081490474"><ele>63.5</ele><time>2026-03-22T10:39:36.999Z</time></trkpt><trkpt lat="42.34875206449288" lon="14.088955030714208"><ele>64.25</ele><time>2026-03-22T10:39:37.999Z</time></trkpt><trkpt lat="42.34877488107088" lon="14.089163298016633"><ele>65.0</ele><time>2026-03-22T10:39:38.999Z</time></trkpt><trkpt lat="42.34881602117702" lon="14.089361302954051"><ele>65.33333333333334</ele><time>2026-03-22T10:39:40Z</time></trkpt><trkpt lat="42.34885399626811" lon="14.089564147075784"><ele>65.66666666666667</ele><time>2026-03-22T10:39:41Z</time></trkpt><trkpt lat="42.34887829882627" lon="14.089776605344808"><ele>66.0</ele><time>2026-03-22T10:39:42Z</time></trkpt><trkpt lat="42.34891198029855" lon="14.090008538749482"><ele>63.5</ele><time>2026-03-22T10:39:43Z</time></trkpt><trkpt lat="42.348941989435836" lon="14.090223858805373"><ele>61.0</ele><time>2026-03-22T10:39:44Z</time></trkpt><trkpt lat="42.34897496954233" lon="14.090405195743461"><ele>58.5</ele><time>2026-03-22T10:39:45Z</time></trkpt><trkpt lat="42.349009936352516" lon="14.090569295471346"><ele>56.0</ele><time>2026-03-22T10:39:46Z</time></trkpt><trkpt lat="42.349040177708034" lon="14.090731466182943"><ele>56.25</ele><time>2026-03-22T10:39:47Z</time></trkpt><trkpt lat="42.34906424915572" lon="14.090905064061817"><ele>56.5</ele><time>2026-03-22T10:39:48Z</time></trkpt><trkpt lat="42.34908539417929" lon="14.091077542420468"><ele>56.75</ele><time>2026-03-22T10:39:49Z</time></trkpt><trkpt lat="42.34910268481933" lon="14.091262017204121"><ele>57.0</ele><time>2026-03-22T10:39:50Z</time></trkpt><trkpt lat="42.34913511432427" lon="14.091461461959112"><ele>57.0</ele><time>2026-03-22T10:39:51Z</time></trkpt><trkpt lat="42.349157623490434" lon="14.091681337166504"><ele>57.0</ele><time>2026-03-22T10:39:52Z</time></trkpt><trkpt lat="42.34920210787652" lon="14.091909192506584"><ele>57.0</ele><time>2026-03-22T10:39:53Z</time></trkpt><trkpt lat="42.34926787736379" lon="14.092123641923799"><ele>57.0</ele><time>2026-03-22T10:39:54Z</time></trkpt><trkpt lat="42.34928212497161" lon="14.09233053475748"><ele>57.0</ele><time>2026-03-22T10:39:55Z</time></trkpt><trkpt lat="42.3493201697823" lon="14.092540200689896"><ele>57.0</ele><time>2026-03-22T10:39:56Z</time></trkpt><trkpt lat="42.34946245806588" lon="14.092639898259257"><ele>56.8</ele><time>2026-03-22T10:39:57Z</time></trkpt><trkpt lat="42.34951701035361" lon="14.092755184899502"><ele>56.6</ele><time>2026-03-22T10:39:59Z</time></trkpt><trkpt lat="42.349574422341796" lon="14.092818713190097"><ele>56.39999999999999</ele><time>2026-03-22T10:40:00Z</time></trkpt><trkpt lat="42.34958697685792" lon="14.09290738831127"><ele>56.199999999999996</ele><time>2026-03-22T10:40:01Z</time></trkpt><trkpt lat="42.34961968959245" lon="14.09306066674505"><ele>56.0</ele><time>2026-03-22T10:40:03Z</time></trkpt><trkpt lat="42.34960364231812" lon="14.093211296634276"><ele>56.00000000000001</ele><time>2026-03-22T10:40:04Z</time></trkpt><trkpt lat="42.34962403646451" lon="14.093343961614874"><ele>56.0</ele><time>2026-03-22T10:40:05Z</time></trkpt><trkpt lat="42.34964718618179" lon="14.093439985798424"><ele>56.0</ele><time>2026-03-22T10:40:06Z</time></trkpt><trkpt lat="42.349665875613866" lon="14.093522696509899"><ele>56.0</ele><time>2026-03-22T10:40:08Z</time></trkpt><trkpt lat="42.34971239234987" lon="14.093615112167873"><ele>56.00000000000001</ele><time>2026-03-22T10:40:10Z</time></trkpt><trkpt lat="42.34974548817252" lon="14.093694920938526"><ele>56.0</ele><time>2026-03-22T10:40:11Z</time></trkpt><trkpt lat="42.349772473614124" lon="14.093808227862707"><ele>55.0</ele><time>2026-03-22T10:40:12Z</time></trkpt><trkpt lat="42.34980439262628" lon="14.093951510008397"><ele>54.0</ele><time>2026-03-22T10:40:13Z</time></trkpt><trkpt lat="42.34983814902072" lon="14.094108964130324"><ele>53.0</ele><time>2026-03-22T10:40:14Z</time></trkpt><trkpt lat="42.34987089903303" lon="14.094275785709558"><ele>52.0</ele><time>2026-03-22T10:40:15Z</time></trkpt><trkpt lat="42.34991062624691" lon="14.094478147655462"><ele>52.0</ele><time>2026-03-22T10:40:16Z</time></trkpt><trkpt lat="42.34994980656438" lon="14.09469127137327"><ele>52.0</ele><time>2026-03-22T10:40:17Z</time></trkpt><trkpt lat="42.34998048167153" lon="14.094909845370207"><ele>52.0</ele><time>2026-03-22T10:40:18Z</time></trkpt><trkpt lat="42.34999014548964" lon="14.095134981396473"><ele>52.0</ele><time>2026-03-22T10:40:19Z</time></trkpt><trkpt lat="42.34998614638611" lon="14.095329776230134"><ele>52.0</ele><time>2026-03-22T10:40:20Z</time></trkpt><trkpt lat="42.34996682775178" lon="14.095537749414813"><ele>52.0</ele><time>2026-03-22T10:40:21Z</time></trkpt><trkpt lat="42.34994538444613" lon="14.095767014137426"><ele>52.0</ele><time>2026-03-22T10:40:22Z</time></trkpt><trkpt lat="42.34993184690178" lon="14.09596091753358"><ele>52.0</ele><time>2026-03-22T10:40:23Z</time></trkpt><trkpt lat="42.34992542824474" lon="14.09614591879837"><ele>52.0</ele><time>2026-03-22T10:40:24Z</time></trkpt><trkpt lat="42.349921301989255" lon="14.096300189143573"><ele>52.0</ele><time>2026-03-22T10:40:25Z</time></trkpt><trkpt lat="42.34991375813494" lon="14.096436369093185"><ele>52.0</ele><time>2026-03-22T10:40:26Z</time></trkpt><trkpt lat="42.349904446769486" lon="14.096545915761283"><ele>52.0</ele><time>2026-03-22T10:40:27Z</time></trkpt><trkpt lat="42.34989320414634" lon="14.096657881602283"><ele>52.0</ele><time>2026-03-22T10:40:28Z</time></trkpt><trkpt lat="42.3498800024103" lon="14.09678410871005"><ele>52.0</ele><time>2026-03-22T10:40:29Z</time></trkpt><trkpt lat="42.34986432402467" lon="14.09693401605902"><ele>52.0</ele><time>2026-03-22T10:40:30Z</time></trkpt><trkpt lat="42.34984685457972" lon="14.097080585266703"><ele>52.0</ele><time>2026-03-22T10:40:31Z</time></trkpt><trkpt lat="42.34982011533216" lon="14.097233386946582"><ele>52.0</ele><time>2026-03-22T10:40:32Z</time></trkpt><trkpt lat="42.34978530448335" lon="14.09738851608126"><ele>52.0</ele><time>2026-03-22T10:40:33Z</time></trkpt><trkpt lat="42.34974786689319" lon="14.097530548677263"><ele>52.0</ele><time>2026-03-22T10:40:34Z</time></trkpt><trkpt lat="42.34970609652859" lon="14.09766898759949"><ele>51.99999999999999</ele><time>2026-03-22T10:40:35Z</time></trkpt><trkpt lat="42.34966949688938" lon="14.09779131560813"><ele>52.0</ele><time>2026-03-22T10:40:35.999Z</time></trkpt><trkpt lat="42.3496372075342" lon="14.097904394893092"><ele>52.0</ele><time>2026-03-22T10:40:36.999Z</time></trkpt><trkpt lat="42.34961405216515" lon="14.097999149737571"><ele>52.0</ele><time>2026-03-22T10:40:37.999Z</time></trkpt><trkpt lat="42.34959653713883" lon="14.098085263698447"><ele>51.99999999999999</ele><time>2026-03-22T10:40:38.999Z</time></trkpt><trkpt lat="42.349569854697876" lon="14.09821926584086"><ele>52.0</ele><time>2026-03-22T10:40:40.999Z</time></trkpt><trkpt lat="42.34954834569014" lon="14.098333171676368"><ele>51.666666666666664</ele><time>2026-03-22T10:40:42.999Z</time></trkpt><trkpt lat="42.349526332765" lon="14.098449746106434"><ele>51.33333333333333</ele><time>2026-03-22T10:40:43.999Z</time></trkpt><trkpt lat="42.349503101726654" lon="14.098559651037114"><ele>51.0</ele><time>2026-03-22T10:40:44.999Z</time></trkpt><trkpt lat="42.349474407372256" lon="14.098688077103256"><ele>50.66666666666667</ele><time>2026-03-22T10:40:45.999Z</time></trkpt><trkpt lat="42.34944468897518" lon="14.09880016464082"><ele>50.333333333333336</ele><time>2026-03-22T10:40:46.999Z</time></trkpt><trkpt lat="42.34941703240836" lon="14.098885435368825"><ele>50.0</ele><time>2026-03-22T10:40:47.999Z</time></trkpt><trkpt lat="42.34936862344203" lon="14.099020022681698"><ele>49.5</ele><time>2026-03-22T10:40:49.999Z</time></trkpt><trkpt lat="42.349335402241714" lon="14.099112505969483"><ele>49.0</ele><time>2026-03-22T10:40:50.999Z</time></trkpt><trkpt lat="42.3492978292344" lon="14.099217104088135"><ele>48.5</ele><time>2026-03-22T10:40:51.999Z</time></trkpt><trkpt lat="42.34946385299607" lon="14.099450404602807"><ele>48.0</ele><time>2026-03-22T10:40:52.999Z</time></trkpt><trkpt lat="42.349513984357706" lon="14.099556094927072"><ele>48.0</ele><time>2026-03-22T10:40:53.999Z</time></trkpt><trkpt lat="42.34955411543302" lon="14.099635735581268"><ele>48.0</ele><time>2026-03-22T10:40:54.999Z</time></trkpt><trkpt lat="42.349594857785625" lon="14.099771055388215"><ele>48.0</ele><time>2026-03-22T10:40:56.999Z</time></trkpt><trkpt lat="42.34956783412448" lon="14.099670832621008"><ele>48.0</ele><time>2026-03-22T10:41:02.999Z</time></trkpt><trkpt lat="42.34954325859024" lon="14.09954916911958"><ele>48.0</ele><time>2026-03-22T10:41:03.999Z</time></trkpt><trkpt lat="42.34949372938387" lon="14.099436522774456"><ele>48.0</ele><time>2026-03-22T10:41:04.999Z</time></trkpt><trkpt lat="42.349464111685364" lon="14.099350296383767"><ele>48.0</ele><time>2026-03-22T10:41:05.999Z</time></trkpt><trkpt lat="42.34947368244464" lon="14.099241538797903"><ele>48.0</ele><time>2026-03-22T10:41:07.999Z</time></trkpt><trkpt lat="42.34945433889705" lon="14.099125862144227"><ele>48.0</ele><time>2026-03-22T10:41:34.999Z</time></trkpt><trkpt lat="42.349391885000486" lon="14.09909604529858"><ele>48.0</ele><time>2026-03-22T10:41:36.999Z</time></trkpt><trkpt lat="42.34929388803319" lon="14.099146992370732"><ele>48.0</ele><time>2026-03-22T10:41:38.999Z</time></trkpt><trkpt lat="42.34920051769105" lon="14.099128290084485"><ele>48.0</ele><time>2026-03-22T10:41:40.999Z</time></trkpt><trkpt lat="42.349142120348255" lon="14.099091186948954"><ele>48.166666666666664</ele><time>2026-03-22T10:41:41.999Z</time></trkpt><trkpt lat="42.34907945376776" lon="14.099068917334385"><ele>48.33333333333333</ele><time>2026-03-22T10:41:42.999Z</time></trkpt><trkpt lat="42.348953974298084" lon="14.099029171239255"><ele>48.5</ele><time>2026-03-22T10:41:44.999Z</time></trkpt><trkpt lat="42.34887558229135" lon="14.099047318925946"><ele>48.666666666666664</ele><time>2026-03-22T10:41:46Z</time></trkpt><trkpt lat="42.3488082471988" lon="14.099068145176295"><ele>48.83333333333333</ele><time>2026-03-22T10:41:47Z</time></trkpt><trkpt lat="42.348738467476515" lon="14.099090471068118"><ele>49.0</ele><time>2026-03-22T10:41:48Z</time></trkpt><trkpt lat="42.34866280100487" lon="14.099118045843369"><ele>49.0</ele><time>2026-03-22T10:41:49Z</time></trkpt><trkpt lat="42.3485756629729" lon="14.099149801148386"><ele>49.0</ele><time>2026-03-22T10:41:50Z</time></trkpt><trkpt lat="42.34848843918976" lon="14.0991785090157"><ele>49.0</ele><time>2026-03-22T10:41:51Z</time></trkpt><trkpt lat="42.3484070364959" lon="14.099267538416091"><ele>49.0</ele><time>2026-03-22T10:41:52Z</time></trkpt><trkpt lat="42.348313437808024" lon="14.0992802589946"><ele>49.0</ele><time>2026-03-22T10:41:53Z</time></trkpt><trkpt lat="42.34823359890388" lon="14.099292184801278"><ele>48.99999999999999</ele><time>2026-03-22T10:41:54Z</time></trkpt><trkpt lat="42.34816761826358" lon="14.099282850463572"><ele>49.0</ele><time>2026-03-22T10:41:55Z</time></trkpt><trkpt lat="42.34806948572561" lon="14.099292056058776"><ele>49.0</ele><time>2026-03-22T10:41:57Z</time></trkpt><trkpt lat="42.348002628358216" lon="14.099303831521436"><ele>49.0</ele><time>2026-03-22T10:41:58Z</time></trkpt><trkpt lat="42.34790747646267" lon="14.099272126631117"><ele>48.99999999999999</ele><time>2026-03-22T10:41:59Z</time></trkpt><trkpt lat="42.347800683200674" lon="14.099291054726969"><ele>49.0</ele><time>2026-03-22T10:42:00Z</time></trkpt><trkpt lat="42.34768253409915" lon="14.099335951168074"><ele>49.400000000000006</ele><time>2026-03-22T10:42:01Z</time></trkpt><trkpt lat="42.34757665218875" lon="14.099439839743766"><ele>49.8</ele><time>2026-03-22T10:42:02Z</time></trkpt><trkpt lat="42.34749876600721" lon="14.09950921328218"><ele>50.2</ele><time>2026-03-22T10:42:03Z</time></trkpt><trkpt lat="42.34743857084168" lon="14.09954201741936"><ele>50.599999999999994</ele><time>2026-03-22T10:42:04Z</time></trkpt><trkpt lat="42.347308683664146" lon="14.09945698092963"><ele>51.0</ele><time>2026-03-22T10:42:06Z</time></trkpt><trkpt lat="42.347232333903726" lon="14.09934249095545"><ele>51.75</ele><time>2026-03-22T10:42:07Z</time></trkpt><trkpt lat="42.34714901867223" lon="14.099226866730268"><ele>52.5</ele><time>2026-03-22T10:42:08Z</time></trkpt><trkpt lat="42.34705123965869" lon="14.099118131781951"><ele>53.25</ele><time>2026-03-22T10:42:09Z</time></trkpt><trkpt lat="42.34694420731881" lon="14.09901213687306"><ele>54.0</ele><time>2026-03-22T10:42:10Z</time></trkpt><trkpt lat="42.34683470243731" lon="14.098911464552746"><ele>54.0</ele><time>2026-03-22T10:42:11Z</time></trkpt><trkpt lat="42.34671441825465" lon="14.098833363235357"><ele>54.0</ele><time>2026-03-22T10:42:12Z</time></trkpt><trkpt lat="42.34656139498983" lon="14.09883036163431"><ele>54.0</ele><time>2026-03-22T10:42:13Z</time></trkpt><trkpt lat="42.34641285199499" lon="14.09882311810693"><ele>54.0</ele><time>2026-03-22T10:42:14Z</time></trkpt><trkpt lat="42.346273799802134" lon="14.098773807700397"><ele>54.0</ele><time>2026-03-22T10:42:15Z</time></trkpt><trkpt lat="42.34614276731323" lon="14.098694595909462"><ele>54.0</ele><time>2026-03-22T10:42:16Z</time></trkpt><trkpt lat="42.346018211199755" lon="14.098590290973661"><ele>54.0</ele><time>2026-03-22T10:42:17Z</time></trkpt><trkpt lat="42.34590434670363" lon="14.098471572391453"><ele>54.0</ele><time>2026-03-22T10:42:18Z</time></trkpt><trkpt lat="42.34579716384323" lon="14.098361948271855"><ele>54.0</ele><time>2026-03-22T10:42:19Z</time></trkpt><trkpt lat="42.3457003601641" lon="14.098267121202545"><ele>54.0</ele><time>2026-03-22T10:42:20Z</time></trkpt><trkpt lat="42.34559984567013" lon="14.09818688603258"><ele>54.0</ele><time>2026-03-22T10:42:21Z</time></trkpt><trkpt lat="42.345470981919625" lon="14.098138794969197"><ele>54.0</ele><time>2026-03-22T10:42:22Z</time></trkpt><trkpt lat="42.34536370368899" lon="14.098154909749283"><ele>54.5</ele><time>2026-03-22T10:42:23Z</time></trkpt><trkpt lat="42.345279403258836" lon="14.098228628914212"><ele>55.0</ele><time>2026-03-22T10:42:24Z</time></trkpt><trkpt lat="42.34521989217123" lon="14.098333102090978"><ele>55.5</ele><time>2026-03-22T10:42:25Z</time></trkpt><trkpt lat="42.345166699307164" lon="14.098444336891324"><ele>56.0</ele><time>2026-03-22T10:42:26Z</time></trkpt><trkpt lat="42.34511142124521" lon="14.098525108208841"><ele>56.5</ele><time>2026-03-22T10:42:27Z</time></trkpt><trkpt lat="42.34505320487338" lon="14.09856017991054"><ele>57.0</ele><time>2026-03-22T10:42:28Z</time></trkpt><trkpt lat="42.344990575227904" lon="14.098573347320027"><ele>57.0</ele><time>2026-03-22T10:42:32Z</time></trkpt><trkpt lat="42.34490441239614" lon="14.098683047720444"><ele>57.0</ele><time>2026-03-22T10:42:35Z</time></trkpt><trkpt lat="42.34490704752363" lon="14.098825265388989"><ele>57.0</ele><time>2026-03-22T10:42:36Z</time></trkpt><trkpt lat="42.34492169686594" lon="14.098983283972128"><ele>57.0</ele><time>2026-03-22T10:42:37Z</time></trkpt><trkpt lat="42.34493000810444" lon="14.09915683714302"><ele>56.5</ele><time>2026-03-22T10:42:38Z</time></trkpt><trkpt lat="42.344939021859965" lon="14.09934962202777"><ele>56.0</ele><time>2026-03-22T10:42:38.999Z</time></trkpt><trkpt lat="42.34494718364822" lon="14.099552700183487"><ele>55.5</ele><time>2026-03-22T10:42:39.999Z</time></trkpt><trkpt lat="42.34495455700507" lon="14.099756769446097"><ele>55.0</ele><time>2026-03-22T10:42:40.999Z</time></trkpt><trkpt lat="42.344960604260734" lon="14.099960412297953"><ele>54.5</ele><time>2026-03-22T10:42:41.999Z</time></trkpt><trkpt lat="42.34496431091661" lon="14.100127719296776"><ele>54.0</ele><time>2026-03-22T10:42:42.999Z</time></trkpt><trkpt lat="42.344961432891836" lon="14.100274896296431"><ele>53.5</ele><time>2026-03-22T10:42:43.999Z</time></trkpt><trkpt lat="42.34495175610983" lon="14.100424082113621"><ele>53.0</ele><time>2026-03-22T10:42:44.999Z</time></trkpt><trkpt lat="42.344934015829786" lon="14.100587413763188"><ele>53.0</ele><time>2026-03-22T10:42:45.999Z</time></trkpt><trkpt lat="42.344916922569375" lon="14.100729303609604"><ele>53.0</ele><time>2026-03-22T10:42:46.999Z</time></trkpt><trkpt lat="42.344906822998276" lon="14.100847478965909"><ele>53.0</ele><time>2026-03-22T10:42:47.999Z</time></trkpt><trkpt lat="42.34486599744075" lon="14.10098262868435"><ele>53.0</ele><time>2026-03-22T10:42:49.999Z</time></trkpt><trkpt lat="42.34479024504132" lon="14.101001959686066"><ele>53.0</ele><time>2026-03-22T10:42:50.999Z</time></trkpt><trkpt lat="42.344697060114456" lon="14.10099049550175"><ele>53.25</ele><time>2026-03-22T10:42:51.999Z</time></trkpt><trkpt lat="42.34458357219379" lon="14.1009606393163"><ele>53.5</ele><time>2026-03-22T10:42:52.999Z</time></trkpt><trkpt lat="42.34444956203489" lon="14.100959380712416"><ele>53.75</ele><time>2026-03-22T10:42:53.999Z</time></trkpt><trkpt lat="42.34430995898681" lon="14.100954613003768"><ele>54.0</ele><time>2026-03-22T10:42:54.999Z</time></trkpt><trkpt lat="42.34414983758044" lon="14.100950628988045"><ele>54.0</ele><time>2026-03-22T10:42:55.999Z</time></trkpt><trkpt lat="42.343989921984836" lon="14.100957719270303"><ele>54.0</ele><time>2026-03-22T10:42:56.999Z</time></trkpt><trkpt lat="42.343831498722054" lon="14.100976225119911"><ele>54.0</ele><time>2026-03-22T10:42:57.999Z</time></trkpt><trkpt lat="42.34371045979678" lon="14.100999238174865"><ele>54.0</ele><time>2026-03-22T10:42:58.999Z</time></trkpt><trkpt lat="42.3435963892795" lon="14.101029796485133"><ele>53.75</ele><time>2026-03-22T10:42:59.999Z</time></trkpt><trkpt lat="42.34348190587328" lon="14.101072017895888"><ele>53.5</ele><time>2026-03-22T10:43:00.999Z</time></trkpt><trkpt lat="42.343348952337884" lon="14.101069548644563"><ele>53.25</ele><time>2026-03-22T10:43:01.999Z</time></trkpt><trkpt lat="42.34322591133651" lon="14.101108357095423"><ele>53.0</ele><time>2026-03-22T10:43:02.999Z</time></trkpt><trkpt lat="42.34310853238892" lon="14.101138441015632"><ele>53.25</ele><time>2026-03-22T10:43:03.999Z</time></trkpt><trkpt lat="42.34299913214651" lon="14.101164920332112"><ele>53.5</ele><time>2026-03-22T10:43:04.999Z</time></trkpt><trkpt lat="42.34288048176353" lon="14.101194036965033"><ele>53.75</ele><time>2026-03-22T10:43:05.999Z</time></trkpt><trkpt lat="42.34276614578636" lon="14.10122446636936"><ele>54.0</ele><time>2026-03-22T10:43:06.999Z</time></trkpt><trkpt lat="42.34264995137942" lon="14.101255390298912"><ele>54.0</ele><time>2026-03-22T10:43:07.999Z</time></trkpt><trkpt lat="42.342526872361965" lon="14.101288146520895"><ele>54.0</ele><time>2026-03-22T10:43:08.999Z</time></trkpt><trkpt lat="42.34240069919393" lon="14.101321726239075"><ele>54.0</ele><time>2026-03-22T10:43:09.999Z</time></trkpt><trkpt lat="42.34227018665082" lon="14.101356566186874"><ele>54.0</ele><time>2026-03-22T10:43:10.999Z</time></trkpt><trkpt lat="42.34214030310517" lon="14.101391562707654"><ele>54.25</ele><time>2026-03-22T10:43:11.999Z</time></trkpt><trkpt lat="42.342003037536685" lon="14.101428548276647"><ele>54.5</ele><time>2026-03-22T10:43:12.999Z</time></trkpt><trkpt lat="42.341866410064256" lon="14.101465362010197"><ele>54.75</ele><time>2026-03-22T10:43:13.999Z</time></trkpt><trkpt lat="42.34173016564702" lon="14.101502084297714"><ele>55.0</ele><time>2026-03-22T10:43:14.999Z</time></trkpt><trkpt lat="42.3415946988569" lon="14.101538632011192"><ele>55.0</ele><time>2026-03-22T10:43:15.999Z</time></trkpt><trkpt lat="42.34145718322003" lon="14.101575732435736"><ele>55.0</ele><time>2026-03-22T10:43:16.999Z</time></trkpt><trkpt lat="42.34132205969614" lon="14.101611781129797"><ele>55.0</ele><time>2026-03-22T10:43:17.999Z</time></trkpt><trkpt lat="42.3411907201294" lon="14.10169487936399"><ele>55.0</ele><time>2026-03-22T10:43:18.999Z</time></trkpt><trkpt lat="42.341050917462354" lon="14.101729321167694"><ele>54.75</ele><time>2026-03-22T10:43:19.999Z</time></trkpt><trkpt lat="42.34092975180333" lon="14.10176101929834"><ele>54.5</ele><time>2026-03-22T10:43:20.999Z</time></trkpt><trkpt lat="42.34079124286176" lon="14.101806259771301"><ele>54.25</ele><time>2026-03-22T10:43:21.999Z</time></trkpt><trkpt lat="42.340625022236075" lon="14.101853384279956"><ele>54.0</ele><time>2026-03-22T10:43:22.999Z</time></trkpt><trkpt lat="42.34047193002965" lon="14.101901288408897"><ele>53.75</ele><time>2026-03-22T10:43:23.999Z</time></trkpt><trkpt lat="42.34032181485175" lon="14.10194068153446"><ele>53.5</ele><time>2026-03-22T10:43:24.999Z</time></trkpt><trkpt lat="42.34017921035556" lon="14.101977021290896"><ele>53.25</ele><time>2026-03-22T10:43:25.999Z</time></trkpt><trkpt lat="42.340047261971755" lon="14.102016856333176"><ele>53.0</ele><time>2026-03-22T10:43:26.999Z</time></trkpt><trkpt lat="42.33993428973336" lon="14.102049625411523"><ele>53.00000000000001</ele><time>2026-03-22T10:43:27.999Z</time></trkpt><trkpt lat="42.339841217058" lon="14.102075915284853"><ele>53.0</ele><time>2026-03-22T10:43:28.999Z</time></trkpt><trkpt lat="42.33975640731462" lon="14.102104560327973"><ele>53.0</ele><time>2026-03-22T10:43:29.999Z</time></trkpt><trkpt lat="42.3396751436876" lon="14.10213249828362"><ele>53.0</ele><time>2026-03-22T10:43:30.999Z</time></trkpt><trkpt lat="42.339599909198725" lon="14.102097165525953"><ele>53.00000000000001</ele><time>2026-03-22T10:43:31.999Z</time></trkpt><trkpt lat="42.33953261627165" lon="14.102117521977517"><ele>53.0</ele><time>2026-03-22T10:43:34.999Z</time></trkpt><trkpt lat="42.33939743398156" lon="14.102152867554018"><ele>52.25</ele><time>2026-03-22T10:43:37.999Z</time></trkpt><trkpt lat="42.33930555623201" lon="14.102177187040303"><ele>51.5</ele><time>2026-03-22T10:43:38.999Z</time></trkpt><trkpt lat="42.339186821689715" lon="14.102208481613507"><ele>50.75</ele><time>2026-03-22T10:43:39.999Z</time></trkpt><trkpt lat="42.33905401261894" lon="14.102243485804921"><ele>50.0</ele><time>2026-03-22T10:43:40.999Z</time></trkpt><trkpt lat="42.33891019742348" lon="14.102281390862636"><ele>50.0</ele><time>2026-03-22T10:43:41.999Z</time></trkpt><trkpt lat="42.338757385440815" lon="14.102321667163904"><ele>50.0</ele><time>2026-03-22T10:43:42.999Z</time></trkpt><trkpt lat="42.338604303040945" lon="14.10236201475149"><ele>50.0</ele><time>2026-03-22T10:43:43.999Z</time></trkpt><trkpt lat="42.3384621843946" lon="14.10239455435941"><ele>50.0</ele><time>2026-03-22T10:43:44.999Z</time></trkpt><trkpt lat="42.33831758520148" lon="14.102427081384052"><ele>50.0</ele><time>2026-03-22T10:43:45.999Z</time></trkpt><trkpt lat="42.33817502680159" lon="14.102459149349857"><ele>50.0</ele><time>2026-03-22T10:43:46.999Z</time></trkpt><trkpt lat="42.338048133402125" lon="14.102491181902334"><ele>50.0</ele><time>2026-03-22T10:43:47.999Z</time></trkpt><trkpt lat="42.33793738733826" lon="14.102521153278667"><ele>50.0</ele><time>2026-03-22T10:43:48.999Z</time></trkpt><trkpt lat="42.33786032259693" lon="14.102542009380967"><ele>50.0</ele><time>2026-03-22T10:43:49.999Z</time></trkpt><trkpt lat="42.337745530169634" lon="14.102572964833596"><ele>50.0</ele><time>2026-03-22T10:43:52Z</time></trkpt><trkpt lat="42.337671172601134" lon="14.102599443833201"><ele>50.0</ele><time>2026-03-22T10:43:53Z</time></trkpt><trkpt lat="42.33758815059736" lon="14.102662437676644"><ele>50.0</ele><time>2026-03-22T10:43:54Z</time></trkpt><trkpt lat="42.33752615406278" lon="14.102761201708695"><ele>50.0</ele><time>2026-03-22T10:43:55Z</time></trkpt><trkpt lat="42.33749132087196" lon="14.102889344226275"><ele>50.0</ele><time>2026-03-22T10:43:56Z</time></trkpt><trkpt lat="42.33747525204677" lon="14.103006569026736"><ele>50.0</ele><time>2026-03-22T10:43:57Z</time></trkpt><trkpt lat="42.33747686848902" lon="14.10316173021879"><ele>50.0</ele><time>2026-03-22T10:43:58Z</time></trkpt><trkpt lat="42.33747843216658" lon="14.103291811914747"><ele>50.0</ele><time>2026-03-22T10:43:59Z</time></trkpt><trkpt lat="42.33746141652183" lon="14.10343416791707"><ele>49.75</ele><time>2026-03-22T10:44:00Z</time></trkpt><trkpt lat="42.33743629539724" lon="14.103585780482806"><ele>49.5</ele><time>2026-03-22T10:44:01Z</time></trkpt><trkpt lat="42.33740404212972" lon="14.103741544910593"><ele>49.25</ele><time>2026-03-22T10:44:02Z</time></trkpt><trkpt lat="42.33736834879684" lon="14.103896864641362"><ele>49.0</ele><time>2026-03-22T10:44:03Z</time></trkpt><trkpt lat="42.33733107554495" lon="14.104055539667414"><ele>49.0</ele><time>2026-03-22T10:44:04Z</time></trkpt><trkpt lat="42.337292415073605" lon="14.104220966032551"><ele>49.0</ele><time>2026-03-22T10:44:05Z</time></trkpt><trkpt lat="42.33725854943298" lon="14.104378487883615"><ele>49.0</ele><time>2026-03-22T10:44:06Z</time></trkpt><trkpt lat="42.33722849438706" lon="14.104509032442493"><ele>49.0</ele><time>2026-03-22T10:44:07Z</time></trkpt><trkpt lat="42.3371972339887" lon="14.104611501086056"><ele>49.0</ele><time>2026-03-22T10:44:08Z</time></trkpt><trkpt lat="42.33715959692876" lon="14.104681695503853"><ele>48.800000000000004</ele><time>2026-03-22T10:44:09Z</time></trkpt><trkpt lat="42.33703442514011" lon="14.10475257505229"><ele>48.6</ele><time>2026-03-22T10:44:11Z</time></trkpt><trkpt lat="42.33695192527793" lon="14.104790046041748"><ele>48.4</ele><time>2026-03-22T10:44:12Z</time></trkpt><trkpt lat="42.336885591083856" lon="14.104818300046945"><ele>48.2</ele><time>2026-03-22T10:44:13Z</time></trkpt><trkpt lat="42.33677678650077" lon="14.104864131581524"><ele>48.0</ele><time>2026-03-22T10:44:15Z</time></trkpt><trkpt lat="42.33667881397218" lon="14.104955304350364"><ele>48.0</ele><time>2026-03-22T10:44:17Z</time></trkpt><trkpt lat="42.3367608189067" lon="14.105495418053872"><ele>48.0</ele><time>2026-03-22T10:44:18Z</time></trkpt><trkpt lat="42.33673885204032" lon="14.105623304472472"><ele>47.833333333333336</ele><time>2026-03-22T10:44:19Z</time></trkpt><trkpt lat="42.33671619101152" lon="14.105745381422702"><ele>47.666666666666664</ele><time>2026-03-22T10:44:20Z</time></trkpt><trkpt lat="42.336681360302734" lon="14.105833060273278"><ele>47.5</ele><time>2026-03-22T10:44:21Z</time></trkpt><trkpt lat="42.336615385236726" lon="14.105937169890852"><ele>47.33333333333333</ele><time>2026-03-22T10:44:23Z</time></trkpt><trkpt lat="42.336536201637024" lon="14.106026400083692"><ele>47.166666666666664</ele><time>2026-03-22T10:44:25Z</time></trkpt><trkpt lat="42.336491470415766" lon="14.106088391739597"><ele>47.0</ele><time>2026-03-22T10:44:26Z</time></trkpt><trkpt lat="42.33643681395326" lon="14.106197746013203"><ele>47.0</ele><time>2026-03-22T10:44:28Z</time></trkpt><trkpt lat="42.336382241535176" lon="14.106308080522043"><ele>47.0</ele><time>2026-03-22T10:44:30Z</time></trkpt><trkpt lat="42.336439909144374" lon="14.10626036125429"><ele>47.0</ele><time>2026-03-22T10:47:14.999Z</time></trkpt><trkpt lat="42.336478712793024" lon="14.106188579419427"><ele>47.0</ele><time>2026-03-22T10:47:15.999Z</time></trkpt><trkpt lat="42.33653418072213" lon="14.106081384313665"><ele>47.0</ele><time>2026-03-22T10:47:16.999Z</time></trkpt><trkpt lat="42.33659897371364" lon="14.105976200646849"><ele>47.0</ele><time>2026-03-22T10:47:17.999Z</time></trkpt><trkpt lat="42.3366682954972" lon="14.105863888534907"><ele>47.0</ele><time>2026-03-22T10:47:18.999Z</time></trkpt><trkpt lat="42.33673724557113" lon="14.105748722916644"><ele>47.0</ele><time>2026-03-22T10:47:19.999Z</time></trkpt><trkpt lat="42.33676316654353" lon="14.105603856264361"><ele>47.0</ele><time>2026-03-22T10:47:21.999Z</time></trkpt><trkpt lat="42.336770936396405" lon="14.105472263044062"><ele>47.0</ele><time>2026-03-22T10:47:22.999Z</time></trkpt><trkpt lat="42.336777069184855" lon="14.105336436124556"><ele>47.0</ele><time>2026-03-22T10:47:23.999Z</time></trkpt><trkpt lat="42.336789205879825" lon="14.105208444400056"><ele>47.2</ele><time>2026-03-22T10:47:24.999Z</time></trkpt><trkpt lat="42.336798287471" lon="14.105083127176064"><ele>47.400000000000006</ele><time>2026-03-22T10:47:25.999Z</time></trkpt><trkpt lat="42.3368146418445" lon="14.104975823647639"><ele>47.599999999999994</ele><time>2026-03-22T10:47:26.999Z</time></trkpt><trkpt lat="42.33686937276025" lon="14.104872218780175"><ele>47.8</ele><time>2026-03-22T10:47:28.999Z</time></trkpt><trkpt lat="42.337009681031645" lon="14.104828070352442"><ele>48.0</ele><time>2026-03-22T10:47:30.999Z</time></trkpt><trkpt lat="42.33709573315797" lon="14.104797053702866"><ele>48.2</ele><time>2026-03-22T10:47:31.999Z</time></trkpt><trkpt lat="42.337176590024484" lon="14.104756573540323"><ele>48.4</ele><time>2026-03-22T10:47:32.999Z</time></trkpt><trkpt lat="42.33725060106401" lon="14.10468437325669"><ele>48.6</ele><time>2026-03-22T10:47:33.999Z</time></trkpt><trkpt lat="42.3372726249121" lon="14.10454620272399"><ele>48.800000000000004</ele><time>2026-03-22T10:47:34.999Z</time></trkpt><trkpt lat="42.337308807612395" lon="14.104386678649522"><ele>49.0</ele><time>2026-03-22T10:47:35.999Z</time></trkpt><trkpt lat="42.33734229183169" lon="14.104230896441132"><ele>49.0</ele><time>2026-03-22T10:47:36.999Z</time></trkpt><trkpt lat="42.3373967408703" lon="14.104069821496502"><ele>49.0</ele><time>2026-03-22T10:47:37.999Z</time></trkpt><trkpt lat="42.337438176706776" lon="14.103899783042895"><ele>49.0</ele><time>2026-03-22T10:47:38.999Z</time></trkpt><trkpt lat="42.33747577083053" lon="14.103732721007182"><ele>49.0</ele><time>2026-03-22T10:47:39.999Z</time></trkpt><trkpt lat="42.33750769436425" lon="14.10356625359534"><ele>49.0</ele><time>2026-03-22T10:47:40.999Z</time></trkpt><trkpt lat="42.337533807615166" lon="14.10339650186668"><ele>49.0</ele><time>2026-03-22T10:47:41.999Z</time></trkpt><trkpt lat="42.33754622829047" lon="14.10324568487147"><ele>49.0</ele><time>2026-03-22T10:47:42.999Z</time></trkpt><trkpt lat="42.33754256645208" lon="14.103113335422146"><ele>49.0</ele><time>2026-03-22T10:47:43.999Z</time></trkpt><trkpt lat="42.33753946734547" lon="14.102984935294627"><ele>49.0</ele><time>2026-03-22T10:47:44.999Z</time></trkpt><trkpt lat="42.33755619323141" lon="14.102853097397148"><ele>49.166666666666664</ele><time>2026-03-22T10:47:45.999Z</time></trkpt><trkpt lat="42.33759714543318" lon="14.10274164210683"><ele>49.33333333333333</ele><time>2026-03-22T10:47:46.999Z</time></trkpt><trkpt lat="42.33764574007777" lon="14.102675933643612"><ele>49.5</ele><time>2026-03-22T10:47:47.999Z</time></trkpt><trkpt lat="42.33770942253831" lon="14.102633783725341"><ele>49.66666666666667</ele><time>2026-03-22T10:47:48.999Z</time></trkpt><trkpt lat="42.33779088438713" lon="14.102605151837082"><ele>49.833333333333336</ele><time>2026-03-22T10:47:49.999Z</time></trkpt><trkpt lat="42.33788253570468" lon="14.102576717166386"><ele>50.0</ele><time>2026-03-22T10:47:50.999Z</time></trkpt><trkpt lat="42.33798273872709" lon="14.102541115702444"><ele>49.8</ele><time>2026-03-22T10:47:51.999Z</time></trkpt><trkpt lat="42.33808533295501" lon="14.102528617172759"><ele>49.6</ele><time>2026-03-22T10:47:52.999Z</time></trkpt><trkpt lat="42.33818959048521" lon="14.102505609937099"><ele>49.400000000000006</ele><time>2026-03-22T10:47:53.999Z</time></trkpt><trkpt lat="42.33829735297355" lon="14.10248922031137"><ele>49.2</ele><time>2026-03-22T10:47:54.999Z</time></trkpt><trkpt lat="42.33841028848255" lon="14.102469858415496"><ele>49.0</ele><time>2026-03-22T10:47:55.999Z</time></trkpt><trkpt lat="42.3385227257798" lon="14.10244112323629"><ele>49.2</ele><time>2026-03-22T10:47:56.999Z</time></trkpt><trkpt lat="42.33863871120269" lon="14.102410150907794"><ele>49.400000000000006</ele><time>2026-03-22T10:47:57.999Z</time></trkpt><trkpt lat="42.33874772922839" lon="14.102385136470959"><ele>49.6</ele><time>2026-03-22T10:47:58.999Z</time></trkpt><trkpt lat="42.33885383821198" lon="14.102361289116022"><ele>49.8</ele><time>2026-03-22T10:47:59.999Z</time></trkpt><trkpt lat="42.338959732111" lon="14.102336433016493"><ele>50.0</ele><time>2026-03-22T10:48:00.999Z</time></trkpt><trkpt lat="42.33906470873052" lon="14.102306286235756"><ele>50.0</ele><time>2026-03-22T10:48:01.999Z</time></trkpt><trkpt lat="42.33916751120549" lon="14.10227344274216"><ele>50.0</ele><time>2026-03-22T10:48:02.999Z</time></trkpt><trkpt lat="42.33927077250854" lon="14.102245848871453"><ele>50.0</ele><time>2026-03-22T10:48:04Z</time></trkpt><trkpt lat="42.33935639045512" lon="14.102230386408444"><ele>50.0</ele><time>2026-03-22T10:48:05Z</time></trkpt><trkpt lat="42.339437158440894" lon="14.102213599698706"><ele>50.0</ele><time>2026-03-22T10:48:07Z</time></trkpt><trkpt lat="42.339531142071074" lon="14.102212379191336"><ele>50.0</ele><time>2026-03-22T10:48:14Z</time></trkpt><trkpt lat="42.33962184821232" lon="14.10217402612594"><ele>50.0</ele><time>2026-03-22T10:48:15Z</time></trkpt><trkpt lat="42.33973072383521" lon="14.102089288517664"><ele>50.0</ele><time>2026-03-22T10:48:16Z</time></trkpt><trkpt lat="42.33986248028313" lon="14.102048064648702"><ele>50.0</ele><time>2026-03-22T10:48:17Z</time></trkpt><trkpt lat="42.34002000969911" lon="14.102015529007042"><ele>51.0</ele><time>2026-03-22T10:48:18Z</time></trkpt><trkpt lat="42.340180798455705" lon="14.101972931687177"><ele>52.0</ele><time>2026-03-22T10:48:19Z</time></trkpt><trkpt lat="42.34034777564528" lon="14.101922924270436"><ele>53.0</ele><time>2026-03-22T10:48:20Z</time></trkpt><trkpt lat="42.340524750663064" lon="14.101882623221595"><ele>53.333333333333336</ele><time>2026-03-22T10:48:21Z</time></trkpt><trkpt lat="42.34071862829342" lon="14.101832946760863"><ele>53.66666666666667</ele><time>2026-03-22T10:48:22Z</time></trkpt><trkpt lat="42.34089933462392" lon="14.101779965695588"><ele>54.0</ele><time>2026-03-22T10:48:23Z</time></trkpt><trkpt lat="42.34104304243156" lon="14.101741682949113"><ele>54.0</ele><time>2026-03-22T10:48:24Z</time></trkpt><trkpt lat="42.34117318525525" lon="14.101711420804028"><ele>54.0</ele><time>2026-03-22T10:48:25Z</time></trkpt><trkpt lat="42.341316988422776" lon="14.101681226778128"><ele>54.0</ele><time>2026-03-22T10:48:26Z</time></trkpt><trkpt lat="42.34144659151227" lon="14.101641180566508"><ele>54.0</ele><time>2026-03-22T10:48:27Z</time></trkpt><trkpt lat="42.341582953037516" lon="14.101606151396052"><ele>54.33333333333333</ele><time>2026-03-22T10:48:28Z</time></trkpt><trkpt lat="42.341729683224116" lon="14.1015678268935"><ele>54.666666666666664</ele><time>2026-03-22T10:48:29Z</time></trkpt><trkpt lat="42.341879384905404" lon="14.101524814560122"><ele>55.0</ele><time>2026-03-22T10:48:30Z</time></trkpt><trkpt lat="42.34204272126612" lon="14.101486530603848"><ele>55.0</ele><time>2026-03-22T10:48:31Z</time></trkpt><trkpt lat="42.342204407567706" lon="14.101448827501095"><ele>55.0</ele><time>2026-03-22T10:48:32Z</time></trkpt><trkpt lat="42.34236755869231" lon="14.101405876228016"><ele>55.0</ele><time>2026-03-22T10:48:33Z</time></trkpt><trkpt lat="42.34254020852925" lon="14.101357274562183"><ele>54.666666666666664</ele><time>2026-03-22T10:48:34Z</time></trkpt><trkpt lat="42.34271432751679" lon="14.101312414291703"><ele>54.33333333333333</ele><time>2026-03-22T10:48:35Z</time></trkpt><trkpt lat="42.34289194594439" lon="14.101263021261026"><ele>54.0</ele><time>2026-03-22T10:48:36Z</time></trkpt><trkpt lat="42.3430686642065" lon="14.101214590815305"><ele>53.66666666666667</ele><time>2026-03-22T10:48:37Z</time></trkpt><trkpt lat="42.34324591922469" lon="14.101164381871836"><ele>53.333333333333336</ele><time>2026-03-22T10:48:38Z</time></trkpt><trkpt lat="42.34340781821213" lon="14.101116321194642"><ele>53.0</ele><time>2026-03-22T10:48:39Z</time></trkpt><trkpt lat="42.34354685598601" lon="14.10107082543335"><ele>53.0</ele><time>2026-03-22T10:48:40Z</time></trkpt><trkpt lat="42.34366912180169" lon="14.101025505087907"><ele>53.0</ele><time>2026-03-22T10:48:41Z</time></trkpt><trkpt lat="42.34378238053799" lon="14.10099196396159"><ele>53.0</ele><time>2026-03-22T10:48:41.999Z</time></trkpt><trkpt lat="42.343905016376354" lon="14.100968695192709"><ele>53.0</ele><time>2026-03-22T10:48:42.999Z</time></trkpt><trkpt lat="42.344024140983024" lon="14.10096222693414"><ele>53.25</ele><time>2026-03-22T10:48:43.999Z</time></trkpt><trkpt lat="42.34415038509526" lon="14.100962227726823"><ele>53.5</ele><time>2026-03-22T10:48:44.999Z</time></trkpt><trkpt lat="42.344279881165626" lon="14.100970329503639"><ele>53.75</ele><time>2026-03-22T10:48:45.999Z</time></trkpt><trkpt lat="42.344403364964975" lon="14.100968203954912"><ele>54.0</ele><time>2026-03-22T10:48:46.999Z</time></trkpt><trkpt lat="42.3445062100453" lon="14.100967951809531"><ele>54.0</ele><time>2026-03-22T10:48:47.999Z</time></trkpt><trkpt lat="42.34460602881605" lon="14.100971378593051"><ele>54.0</ele><time>2026-03-22T10:48:48.999Z</time></trkpt><trkpt lat="42.3446947970957" lon="14.10097516053182"><ele>54.0</ele><time>2026-03-22T10:48:49.999Z</time></trkpt><trkpt lat="42.344774314953554" lon="14.100982134346781"><ele>54.0</ele><time>2026-03-22T10:48:50.999Z</time></trkpt><trkpt lat="42.34486543970154" lon="14.100990955856055"><ele>54.0</ele><time>2026-03-22T10:48:52.999Z</time></trkpt><trkpt lat="42.34494767616208" lon="14.100958166429649"><ele>54.0</ele><time>2026-03-22T10:48:58.999Z</time></trkpt><trkpt lat="42.34496494905088" lon="14.100770335625022"><ele>53.75</ele><time>2026-03-22T10:48:59.999Z</time></trkpt><trkpt lat="42.344978321318735" lon="14.100628198200148"><ele>53.5</ele><time>2026-03-22T10:49:00.999Z</time></trkpt><trkpt lat="42.34499748579058" lon="14.100473235702653"><ele>53.25</ele><time>2026-03-22T10:49:01.999Z</time></trkpt><trkpt lat="42.34501329356169" lon="14.100300681130312"><ele>53.0</ele><time>2026-03-22T10:49:02.999Z</time></trkpt><trkpt lat="42.34501967864336" lon="14.10012468672117"><ele>53.0</ele><time>2026-03-22T10:49:03.999Z</time></trkpt><trkpt lat="42.345015347015924" lon="14.099939586858152"><ele>53.0</ele><time>2026-03-22T10:49:04.999Z</time></trkpt><trkpt lat="42.34500676727587" lon="14.099739905635857"><ele>53.0</ele><time>2026-03-22T10:49:05.999Z</time></trkpt><trkpt lat="42.34499357695626" lon="14.099531628691631"><ele>53.0</ele><time>2026-03-22T10:49:06.999Z</time></trkpt><trkpt lat="42.344984572926734" lon="14.099324200348203"><ele>53.5</ele><time>2026-03-22T10:49:07.999Z</time></trkpt><trkpt lat="42.34497877848414" lon="14.099144614274438"><ele>54.0</ele><time>2026-03-22T10:49:08.999Z</time></trkpt><trkpt lat="42.344968978691114" lon="14.098979428087766"><ele>54.5</ele><time>2026-03-22T10:49:09.999Z</time></trkpt><trkpt lat="42.344960248578985" lon="14.098841858083901"><ele>55.0</ele><time>2026-03-22T10:49:10.999Z</time></trkpt><trkpt lat="42.344949116301486" lon="14.098708207157989"><ele>55.5</ele><time>2026-03-22T10:49:11.999Z</time></trkpt><trkpt lat="42.34494403847788" lon="14.098587818318707"><ele>56.0</ele><time>2026-03-22T10:49:12.999Z</time></trkpt><trkpt lat="42.34513899415418" lon="14.098480548715658"><ele>56.5</ele><time>2026-03-22T10:49:13.999Z</time></trkpt><trkpt lat="42.34523538732016" lon="14.098344637745425"><ele>57.0</ele><time>2026-03-22T10:49:14.999Z</time></trkpt><trkpt lat="42.34530978169361" lon="14.098226745520591"><ele>57.2</ele><time>2026-03-22T10:49:15.999Z</time></trkpt><trkpt lat="42.34538659918709" lon="14.098160565087113"><ele>57.400000000000006</ele><time>2026-03-22T10:49:16.999Z</time></trkpt><trkpt lat="42.345497974718846" lon="14.098137716853666"><ele>57.599999999999994</ele><time>2026-03-22T10:49:17.999Z</time></trkpt><trkpt lat="42.34558847359773" lon="14.09824433234148"><ele>57.8</ele><time>2026-03-22T10:49:18.999Z</time></trkpt><trkpt lat="42.34567060007622" lon="14.098312522156602"><ele>58.0</ele><time>2026-03-22T10:49:19.999Z</time></trkpt><trkpt lat="42.345762333550994" lon="14.09840023423219"><ele>57.2</ele><time>2026-03-22T10:49:20.999Z</time></trkpt><trkpt lat="42.345867334962364" lon="14.098500500563905"><ele>56.4</ele><time>2026-03-22T10:49:21.999Z</time></trkpt><trkpt lat="42.34595783609821" lon="14.098586955057224"><ele>55.60000000000001</ele><time>2026-03-22T10:49:22.999Z</time></trkpt><trkpt lat="42.34603650497096" lon="14.098656918100785"><ele>54.800000000000004</ele><time>2026-03-22T10:49:23.999Z</time></trkpt><trkpt lat="42.346104633671224" lon="14.098709734891484"><ele>54.0</ele><time>2026-03-22T10:49:24.999Z</time></trkpt><trkpt lat="42.34617526132733" lon="14.098756607137052"><ele>54.0</ele><time>2026-03-22T10:49:25.999Z</time></trkpt><trkpt lat="42.346260026010114" lon="14.0987665019848"><ele>54.0</ele><time>2026-03-22T10:49:26.999Z</time></trkpt><trkpt lat="42.346340698263944" lon="14.09881217770925"><ele>54.0</ele><time>2026-03-22T10:49:27.999Z</time></trkpt><trkpt lat="42.34642629956415" lon="14.098842842996868"><ele>54.0</ele><time>2026-03-22T10:49:28.999Z</time></trkpt><trkpt lat="42.34651376293382" lon="14.09885602035"><ele>54.0</ele><time>2026-03-22T10:49:29.999Z</time></trkpt><trkpt lat="42.346598266803085" lon="14.098863652633401"><ele>54.0</ele><time>2026-03-22T10:49:30.999Z</time></trkpt><trkpt lat="42.34667435905584" lon="14.098878268190852"><ele>54.0</ele><time>2026-03-22T10:49:31.999Z</time></trkpt><trkpt lat="42.34674030083074" lon="14.098904948949981"><ele>54.00000000000001</ele><time>2026-03-22T10:49:32.999Z</time></trkpt><trkpt lat="42.34680395987327" lon="14.098930180544322"><ele>54.00000000000001</ele><time>2026-03-22T10:49:33.999Z</time></trkpt><trkpt lat="42.34690954609919" lon="14.098995402124126"><ele>54.0</ele><time>2026-03-22T10:49:35.999Z</time></trkpt><trkpt lat="42.34700802977942" lon="14.09910390195023"><ele>54.0</ele><time>2026-03-22T10:49:37.999Z</time></trkpt><trkpt lat="42.34707883552128" lon="14.099173050347122"><ele>54.0</ele><time>2026-03-22T10:49:38.999Z</time></trkpt><trkpt lat="42.34715409575501" lon="14.09926126645936"><ele>54.00000000000001</ele><time>2026-03-22T10:49:39.999Z</time></trkpt><trkpt lat="42.34724574907748" lon="14.099344172583892"><ele>54.00000000000001</ele><time>2026-03-22T10:49:40.999Z</time></trkpt><trkpt lat="42.347323106679866" lon="14.099432328519427"><ele>54.0</ele><time>2026-03-22T10:49:41.999Z</time></trkpt><trkpt lat="42.34738674092077" lon="14.099514779111876"><ele>54.0</ele><time>2026-03-22T10:49:42.999Z</time></trkpt><trkpt lat="42.347454808982896" lon="14.099572713670861"><ele>53.5</ele><time>2026-03-22T10:49:43.999Z</time></trkpt><trkpt lat="42.34753110941715" lon="14.099595876616203"><ele>53.0</ele><time>2026-03-22T10:49:44.999Z</time></trkpt><trkpt lat="42.34759667994054" lon="14.099553336620325"><ele>52.5</ele><time>2026-03-22T10:49:45.999Z</time></trkpt><trkpt lat="42.347653674534854" lon="14.099471819570125"><ele>52.0</ele><time>2026-03-22T10:49:46.999Z</time></trkpt><trkpt lat="42.34770365954523" lon="14.099379244544085"><ele>51.5</ele><time>2026-03-22T10:49:47.999Z</time></trkpt><trkpt lat="42.34775609979475" lon="14.099318738986915"><ele>51.0</ele><time>2026-03-22T10:49:48.999Z</time></trkpt><trkpt lat="42.347835078905106" lon="14.099312798552152"><ele>51.0</ele><time>2026-03-22T10:49:49.999Z</time></trkpt><trkpt lat="42.34792570434623" lon="14.09930871155773"><ele>51.0</ele><time>2026-03-22T10:49:50.999Z</time></trkpt><trkpt lat="42.34803026522888" lon="14.09929947503522"><ele>51.0</ele><time>2026-03-22T10:49:51.999Z</time></trkpt><trkpt lat="42.3481467735496" lon="14.099294045070373"><ele>51.0</ele><time>2026-03-22T10:49:52.999Z</time></trkpt><trkpt lat="42.34826684238541" lon="14.099280886398484"><ele>51.0</ele><time>2026-03-22T10:49:53.999Z</time></trkpt><trkpt lat="42.34838262206601" lon="14.099270222561888"><ele>51.166666666666664</ele><time>2026-03-22T10:49:54.999Z</time></trkpt><trkpt lat="42.348489790003335" lon="14.099247195044386"><ele>51.33333333333333</ele><time>2026-03-22T10:49:55.999Z</time></trkpt><trkpt lat="42.348578392816556" lon="14.09920861488436"><ele>51.5</ele><time>2026-03-22T10:49:56.999Z</time></trkpt><trkpt lat="42.348659859020195" lon="14.099171725077507"><ele>51.666666666666664</ele><time>2026-03-22T10:49:57.999Z</time></trkpt><trkpt lat="42.348718251327774" lon="14.099112681119646"><ele>51.83333333333333</ele><time>2026-03-22T10:49:58.999Z</time></trkpt><trkpt lat="42.348760472124326" lon="14.09900740514944"><ele>52.0</ele><time>2026-03-22T10:49:59.999Z</time></trkpt><trkpt lat="42.34881249968417" lon="14.098874212432143"><ele>52.0</ele><time>2026-03-22T10:50:00.999Z</time></trkpt><trkpt lat="42.34884454703726" lon="14.098718728634996"><ele>52.0</ele><time>2026-03-22T10:50:01.999Z</time></trkpt><trkpt lat="42.3489030058339" lon="14.09858457847646"><ele>52.0</ele><time>2026-03-22T10:50:02.999Z</time></trkpt><trkpt lat="42.3489529702676" lon="14.098442506622696"><ele>52.0</ele><time>2026-03-22T10:50:03.999Z</time></trkpt><trkpt lat="42.348997017861834" lon="14.098286701821054"><ele>52.0</ele><time>2026-03-22T10:50:04.999Z</time></trkpt><trkpt lat="42.349046930297774" lon="14.098110530637017"><ele>52.0</ele><time>2026-03-22T10:50:05.999Z</time></trkpt><trkpt lat="42.349084426850936" lon="14.09793831809699"><ele>52.0</ele><time>2026-03-22T10:50:06.999Z</time></trkpt><trkpt lat="42.34911256914866" lon="14.097755958745221"><ele>52.0</ele><time>2026-03-22T10:50:07.999Z</time></trkpt><trkpt lat="42.34912979790579" lon="14.097570837250217"><ele>52.0</ele><time>2026-03-22T10:50:08.999Z</time></trkpt><trkpt lat="42.34913153159696" lon="14.097423129531554"><ele>52.0</ele><time>2026-03-22T10:50:10Z</time></trkpt><trkpt lat="42.349122920151146" lon="14.097311222225288"><ele>52.0</ele><time>2026-03-22T10:50:11Z</time></trkpt><trkpt lat="42.349093933032286" lon="14.097165745023988"><ele>52.0</ele><time>2026-03-22T10:50:13Z</time></trkpt><trkpt lat="42.348971276858016" lon="14.09708977705734"><ele>52.0</ele><time>2026-03-22T10:50:17Z</time></trkpt><trkpt lat="42.348938035431416" lon="14.09701092083704"><ele>52.0</ele><time>2026-03-22T10:50:20Z</time></trkpt><trkpt lat="42.34901351004071" lon="14.097072250522901"><ele>52.0</ele><time>2026-03-22T10:50:34Z</time></trkpt><trkpt lat="42.34907600124425" lon="14.097169330119774"><ele>52.0</ele><time>2026-03-22T10:50:35Z</time></trkpt><trkpt lat="42.349125623865206" lon="14.097230060427188"><ele>52.0</ele><time>2026-03-22T10:50:36Z</time></trkpt><trkpt lat="42.349182772323815" lon="14.097353538790145"><ele>52.0</ele><time>2026-03-22T10:50:38Z</time></trkpt><trkpt lat="42.34909897219274" lon="14.097477895245609"><ele>52.0</ele><time>2026-03-22T10:50:39Z</time></trkpt><trkpt lat="42.34909274448426" lon="14.09761763272188"><ele>52.0</ele><time>2026-03-22T10:50:40Z</time></trkpt><trkpt lat="42.34907628757703" lon="14.097775440379518"><ele>52.0</ele><time>2026-03-22T10:50:41Z</time></trkpt><trkpt lat="42.349050158996604" lon="14.097938922250984"><ele>52.0</ele><time>2026-03-22T10:50:42Z</time></trkpt><trkpt lat="42.34901446770813" lon="14.0980992593245"><ele>51.5</ele><time>2026-03-22T10:50:43Z</time></trkpt><trkpt lat="42.34903487147104" lon="14.098310165975922"><ele>51.0</ele><time>2026-03-22T10:50:44Z</time></trkpt><trkpt lat="42.34898397711614" lon="14.098483441135567"><ele>50.5</ele><time>2026-03-22T10:50:45Z</time></trkpt><trkpt lat="42.34894280280174" lon="14.098669962142994"><ele>50.0</ele><time>2026-03-22T10:50:46Z</time></trkpt><trkpt lat="42.34888079715541" lon="14.098847023318147"><ele>49.8</ele><time>2026-03-22T10:50:46.999Z</time></trkpt><trkpt lat="42.34880158506187" lon="14.098978702570149"><ele>49.6</ele><time>2026-03-22T10:50:47.999Z</time></trkpt><trkpt lat="42.34875314961513" lon="14.099051121841455"><ele>49.400000000000006</ele><time>2026-03-22T10:50:48.999Z</time></trkpt><trkpt lat="42.348783714973514" lon="14.09914335774807"><ele>49.2</ele><time>2026-03-22T10:50:50.999Z</time></trkpt><trkpt lat="42.3489003616823" lon="14.09914856820752"><ele>49.0</ele><time>2026-03-22T10:50:52.999Z</time></trkpt><trkpt lat="42.3489949829342" lon="14.09912974628423"><ele>48.83333333333333</ele><time>2026-03-22T10:50:53.999Z</time></trkpt><trkpt lat="42.349096214949846" lon="14.099105357138324"><ele>48.666666666666664</ele><time>2026-03-22T10:50:54.999Z</time></trkpt><trkpt lat="42.34916590204672" lon="14.099141414098872"><ele>48.5</ele><time>2026-03-22T10:50:55.999Z</time></trkpt><trkpt lat="42.349224504372835" lon="14.099186951866084"><ele>48.33333333333333</ele><time>2026-03-22T10:50:57.999Z</time></trkpt><trkpt lat="42.349289700709754" lon="14.099166336150653"><ele>48.166666666666664</ele><time>2026-03-22T10:51:00.999Z</time></trkpt><trkpt lat="42.34935769097273" lon="14.099139870106313"><ele>48.0</ele><time>2026-03-22T10:51:01.999Z</time></trkpt><trkpt lat="42.34943104833303" lon="14.099080432966026"><ele>48.5</ele><time>2026-03-22T10:51:02.999Z</time></trkpt><trkpt lat="42.349491992686936" lon="14.098982381690679"><ele>49.0</ele><time>2026-03-22T10:51:03.999Z</time></trkpt><trkpt lat="42.349537910390865" lon="14.09884922327132"><ele>49.5</ele><time>2026-03-22T10:51:04.999Z</time></trkpt><trkpt lat="42.34957818164138" lon="14.098692353134037"><ele>50.0</ele><time>2026-03-22T10:51:05.999Z</time></trkpt><trkpt lat="42.349620142786065" lon="14.098531189106318"><ele>50.0</ele><time>2026-03-22T10:51:06.999Z</time></trkpt><trkpt lat="42.34966046817712" lon="14.098358849980679"><ele>50.0</ele><time>2026-03-22T10:51:07.999Z</time></trkpt><trkpt lat="42.34963484658486" lon="14.098150933438367"><ele>50.0</ele><time>2026-03-22T10:51:08.999Z</time></trkpt><trkpt lat="42.349675359906065" lon="14.097961339329554"><ele>50.0</ele><time>2026-03-22T10:51:09.999Z</time></trkpt><trkpt lat="42.34976994406309" lon="14.09780139292184"><ele>50.25</ele><time>2026-03-22T10:51:10.999Z</time></trkpt><trkpt lat="42.34983019160105" lon="14.097625515811496"><ele>50.5</ele><time>2026-03-22T10:51:11.999Z</time></trkpt><trkpt lat="42.349879804451405" lon="14.097437264738184"><ele>50.75</ele><time>2026-03-22T10:51:12.999Z</time></trkpt><trkpt lat="42.349913061703006" lon="14.097249260904933"><ele>51.0</ele><time>2026-03-22T10:51:13.999Z</time></trkpt><trkpt lat="42.34994483838121" lon="14.097064408626386"><ele>51.0</ele><time>2026-03-22T10:51:14.999Z</time></trkpt><trkpt lat="42.34996855173479" lon="14.096882479787954"><ele>51.0</ele><time>2026-03-22T10:51:15.999Z</time></trkpt><trkpt lat="42.34998384134975" lon="14.096700081467455"><ele>51.0</ele><time>2026-03-22T10:51:16.999Z</time></trkpt><trkpt lat="42.34999781491164" lon="14.09651680413876"><ele>51.0</ele><time>2026-03-22T10:51:17.999Z</time></trkpt><trkpt lat="42.35000627717224" lon="14.096328411943535"><ele>51.25</ele><time>2026-03-22T10:51:18.999Z</time></trkpt><trkpt lat="42.35002185162332" lon="14.096144793418512"><ele>51.5</ele><time>2026-03-22T10:51:19.999Z</time></trkpt><trkpt lat="42.35003237878869" lon="14.095954096765805"><ele>51.75</ele><time>2026-03-22T10:51:20.999Z</time></trkpt><trkpt lat="42.35004280920352" lon="14.095760436184289"><ele>52.0</ele><time>2026-03-22T10:51:21.999Z</time></trkpt><trkpt lat="42.3500519095429" lon="14.095562575925275"><ele>52.0</ele><time>2026-03-22T10:51:22.999Z</time></trkpt><trkpt lat="42.35006557815669" lon="14.095360581416704"><ele>52.0</ele><time>2026-03-22T10:51:23.999Z</time></trkpt><trkpt lat="42.35007835368408" lon="14.095164469258204"><ele>52.0</ele><time>2026-03-22T10:51:24.999Z</time></trkpt><trkpt lat="42.35007884791202" lon="14.094971016117814"><ele>52.0</ele><time>2026-03-22T10:51:25.999Z</time></trkpt><trkpt lat="42.350052943036516" lon="14.094774915190278"><ele>52.0</ele><time>2026-03-22T10:51:26.999Z</time></trkpt><trkpt lat="42.350017543556554" lon="14.094583788144343"><ele>52.0</ele><time>2026-03-22T10:51:27.999Z</time></trkpt><trkpt lat="42.34998215270852" lon="14.094397098560854"><ele>52.0</ele><time>2026-03-22T10:51:28.999Z</time></trkpt><trkpt lat="42.349938104670095" lon="14.094217458070402"><ele>52.0</ele><time>2026-03-22T10:51:29.999Z</time></trkpt><trkpt lat="42.34989072640123" lon="14.094050042035157"><ele>51.75</ele><time>2026-03-22T10:51:30.999Z</time></trkpt><trkpt lat="42.349865289932225" lon="14.093904212192585"><ele>51.5</ele><time>2026-03-22T10:51:31.999Z</time></trkpt><trkpt lat="42.34984205740107" lon="14.093721105804237"><ele>51.25</ele><time>2026-03-22T10:51:32.999Z</time></trkpt><trkpt lat="42.3497916087876" lon="14.093551609170973"><ele>51.0</ele><time>2026-03-22T10:51:33.999Z</time></trkpt><trkpt lat="42.34972996788348" lon="14.093441112667204"><ele>51.833333333333336</ele><time>2026-03-22T10:51:34.999Z</time></trkpt><trkpt lat="42.3496576191843" lon="14.093376638585026"><ele>52.66666666666667</ele><time>2026-03-22T10:51:35.999Z</time></trkpt><trkpt lat="42.34965592487375" lon="14.093279661880278"><ele>53.5</ele><time>2026-03-22T10:51:37.999Z</time></trkpt><trkpt lat="42.349643287322564" lon="14.093179362211282"><ele>54.333333333333336</ele><time>2026-03-22T10:51:38.999Z</time></trkpt><trkpt lat="42.34967305432378" lon="14.093074338867506"><ele>55.16666666666667</ele><time>2026-03-22T10:51:42.999Z</time></trkpt><trkpt lat="42.34968125278759" lon="14.092982059702246"><ele>56.0</ele><time>2026-03-22T10:51:43.999Z</time></trkpt><trkpt lat="42.34965030034229" lon="14.092880120588449"><ele>56.0</ele><time>2026-03-22T10:51:44.999Z</time></trkpt><trkpt lat="42.34959413094897" lon="14.092755181682673"><ele>55.99999999999999</ele><time>2026-03-22T10:51:45.999Z</time></trkpt><trkpt lat="42.34954737874536" lon="14.092631276118011"><ele>55.99999999999999</ele><time>2026-03-22T10:51:46.999Z</time></trkpt><trkpt lat="42.34948068467394" lon="14.09253088560358"><ele>56.0</ele><time>2026-03-22T10:51:47.999Z</time></trkpt><trkpt lat="42.3493860555926" lon="14.092527993137116"><ele>56.0</ele><time>2026-03-22T10:51:48.999Z</time></trkpt><trkpt lat="42.34932955020971" lon="14.092447008173771"><ele>56.25</ele><time>2026-03-22T10:51:49.999Z</time></trkpt><trkpt lat="42.34933099318731" lon="14.092293682623326"><ele>56.5</ele><time>2026-03-22T10:51:50.999Z</time></trkpt><trkpt lat="42.34930901623096" lon="14.092148488146796"><ele>56.75</ele><time>2026-03-22T10:51:51.999Z</time></trkpt><trkpt lat="42.34927535767113" lon="14.092002553512799"><ele>57.0</ele><time>2026-03-22T10:51:52.999Z</time></trkpt><trkpt lat="42.34925296846441" lon="14.09184080430545"><ele>57.0</ele><time>2026-03-22T10:51:53.999Z</time></trkpt><trkpt lat="42.34920724459273" lon="14.091704462977953"><ele>57.0</ele><time>2026-03-22T10:51:54.999Z</time></trkpt><trkpt lat="42.349187425159776" lon="14.091557105205137"><ele>57.0</ele><time>2026-03-22T10:51:55.999Z</time></trkpt><trkpt lat="42.34917060391484" lon="14.091420335706145"><ele>57.0</ele><time>2026-03-22T10:51:56.999Z</time></trkpt><trkpt lat="42.349154886103236" lon="14.091289746714677"><ele>57.0</ele><time>2026-03-22T10:51:57.999Z</time></trkpt><trkpt lat="42.34914755846022" lon="14.091153016094639"><ele>57.0</ele><time>2026-03-22T10:51:58.999Z</time></trkpt><trkpt lat="42.34914152354136" lon="14.091002936924323"><ele>57.0</ele><time>2026-03-22T10:51:59.999Z</time></trkpt><trkpt lat="42.34913161231871" lon="14.090863230423707"><ele>57.0</ele><time>2026-03-22T10:52:00.999Z</time></trkpt><trkpt lat="42.34912959988551" lon="14.09074124714209"><ele>57.0</ele><time>2026-03-22T10:52:01.999Z</time></trkpt><trkpt lat="42.34909544130161" lon="14.090631757152746"><ele>57.0</ele><time>2026-03-22T10:52:02.999Z</time></trkpt><trkpt lat="42.34905776635425" lon="14.090496167439817"><ele>57.0</ele><time>2026-03-22T10:52:03.999Z</time></trkpt><trkpt lat="42.34902893457531" lon="14.090335688190596"><ele>57.0</ele><time>2026-03-22T10:52:04.999Z</time></trkpt><trkpt lat="42.34900075394332" lon="14.090164011723493"><ele>57.0</ele><time>2026-03-22T10:52:05.999Z</time></trkpt><trkpt lat="42.34897080882925" lon="14.089993504030195"><ele>57.0</ele><time>2026-03-22T10:52:06.999Z</time></trkpt><trkpt lat="42.348947516496615" lon="14.08982602643763"><ele>57.0</ele><time>2026-03-22T10:52:07.999Z</time></trkpt><trkpt lat="42.34892843964233" lon="14.089671890715417"><ele>57.0</ele><time>2026-03-22T10:52:08.999Z</time></trkpt><trkpt lat="42.348918407028776" lon="14.089533601363849"><ele>57.0</ele><time>2026-03-22T10:52:09.999Z</time></trkpt><trkpt lat="42.34890882387209" lon="14.089401927611426"><ele>57.0</ele><time>2026-03-22T10:52:10.999Z</time></trkpt><trkpt lat="42.348879078961474" lon="14.089279755501687"><ele>57.0</ele><time>2026-03-22T10:52:11.999Z</time></trkpt><trkpt lat="42.34883643341791" lon="14.089149436831626"><ele>58.6</ele><time>2026-03-22T10:52:12.999Z</time></trkpt><trkpt lat="42.34880892884465" lon="14.089017092715222"><ele>60.2</ele><time>2026-03-22T10:52:13.999Z</time></trkpt><trkpt lat="42.348794744858665" lon="14.088886306238363"><ele>61.8</ele><time>2026-03-22T10:52:14.999Z</time></trkpt><trkpt lat="42.34879653761967" lon="14.088755809929484"><ele>63.4</ele><time>2026-03-22T10:52:16Z</time></trkpt><trkpt lat="42.34880528955661" lon="14.088644217228458"><ele>65.0</ele><time>2026-03-22T10:52:17Z</time></trkpt><trkpt lat="42.348821918998624" lon="14.088508553969005"><ele>65.0</ele><time>2026-03-22T10:52:18Z</time></trkpt><trkpt lat="42.34881596743044" lon="14.08835405548449"><ele>65.0</ele><time>2026-03-22T10:52:19Z</time></trkpt><trkpt lat="42.34880060277984" lon="14.088214357671076"><ele>65.0</ele><time>2026-03-22T10:52:20Z</time></trkpt><trkpt lat="42.34878774755976" lon="14.088068491675227"><ele>65.0</ele><time>2026-03-22T10:52:21Z</time></trkpt><trkpt lat="42.3487885165531" lon="14.087940908995302"><ele>65.0</ele><time>2026-03-22T10:52:22Z</time></trkpt><trkpt lat="42.34874053773565" lon="14.087812624745114"><ele>64.6</ele><time>2026-03-22T10:52:23Z</time></trkpt><trkpt lat="42.34868328378736" lon="14.08769215602772"><ele>64.2</ele><time>2026-03-22T10:52:24Z</time></trkpt><trkpt lat="42.34865826442318" lon="14.087558503418487"><ele>63.8</ele><time>2026-03-22T10:52:25Z</time></trkpt><trkpt lat="42.34867402964681" lon="14.087419961516817"><ele>63.4</ele><time>2026-03-22T10:52:26Z</time></trkpt><trkpt lat="42.348688019360665" lon="14.087284608729709"><ele>63.0</ele><time>2026-03-22T10:52:27Z</time></trkpt><trkpt lat="42.34867512692164" lon="14.087190253593366"><ele>63.0</ele><time>2026-03-22T10:52:28Z</time></trkpt><trkpt lat="42.3486211456844" lon="14.087107658070122"><ele>63.0</ele><time>2026-03-22T10:52:29Z</time></trkpt><trkpt lat="42.34854081913414" lon="14.087014196847008"><ele>63.0</ele><time>2026-03-22T10:52:30Z</time></trkpt><trkpt lat="42.34845644293462" lon="14.086948279255576"><ele>63.0</ele><time>2026-03-22T10:52:31Z</time></trkpt><trkpt lat="42.34839484709809" lon="14.086885614095682"><ele>63.0</ele><time>2026-03-22T10:52:32Z</time></trkpt><trkpt lat="42.34832389156775" lon="14.086815010947541"><ele>63.0</ele><time>2026-03-22T10:52:34Z</time></trkpt><trkpt lat="42.348266655438685" lon="14.086775933523706"><ele>63.0</ele><time>2026-03-22T10:52:37Z</time></trkpt><trkpt lat="42.348220101745234" lon="14.086684216112078"><ele>63.0</ele><time>2026-03-22T10:52:40Z</time></trkpt><trkpt lat="42.3481944419226" lon="14.0865531732751"><ele>63.0</ele><time>2026-03-22T10:52:42Z</time></trkpt><trkpt lat="42.348171010741616" lon="14.086464562633326"><ele>63.0</ele><time>2026-03-22T10:52:43Z</time></trkpt><trkpt lat="42.34813210643225" lon="14.086314128793125"><ele>63.0</ele><time>2026-03-22T10:52:44.999Z</time></trkpt><trkpt lat="42.34812248375016" lon="14.086221151127935"><ele>63.0</ele><time>2026-03-22T10:52:45.999Z</time></trkpt><trkpt lat="42.34812096484541" lon="14.086099696862288"><ele>63.0</ele><time>2026-03-22T10:52:46.999Z</time></trkpt><trkpt lat="42.34810519914624" lon="14.085967840912396"><ele>63.0</ele><time>2026-03-22T10:52:47.999Z</time></trkpt><trkpt lat="42.348076294402716" lon="14.085846188804657"><ele>63.0</ele><time>2026-03-22T10:52:48.999Z</time></trkpt><trkpt lat="42.348059238843575" lon="14.085724396440593"><ele>63.0</ele><time>2026-03-22T10:52:49.999Z</time></trkpt><trkpt lat="42.3480432750062" lon="14.085586430794566"><ele>64.2</ele><time>2026-03-22T10:52:50.999Z</time></trkpt><trkpt lat="42.34802607640155" lon="14.085425637262055"><ele>65.4</ele><time>2026-03-22T10:52:51.999Z</time></trkpt><trkpt lat="42.34800888346778" lon="14.085296154063084"><ele>66.60000000000001</ele><time>2026-03-22T10:52:52.999Z</time></trkpt><trkpt lat="42.347966604175795" lon="14.085210118257715"><ele>67.8</ele><time>2026-03-22T10:52:53.999Z</time></trkpt><trkpt lat="42.34790545537227" lon="14.085133026084785"><ele>69.0</ele><time>2026-03-22T10:52:54.999Z</time></trkpt><trkpt lat="42.34785536341344" lon="14.085045080903088"><ele>68.8</ele><time>2026-03-22T10:52:55.999Z</time></trkpt><trkpt lat="42.34782779278491" lon="14.0849252604641"><ele>68.60000000000001</ele><time>2026-03-22T10:52:56.999Z</time></trkpt><trkpt lat="42.34782628741049" lon="14.084781549181772"><ele>68.4</ele><time>2026-03-22T10:52:57.999Z</time></trkpt><trkpt lat="42.34783458636807" lon="14.084643064739081"><ele>68.2</ele><time>2026-03-22T10:52:58.999Z</time></trkpt><trkpt lat="42.347822526442954" lon="14.084520854870743"><ele>68.0</ele><time>2026-03-22T10:52:59.999Z</time></trkpt><trkpt lat="42.34778668448311" lon="14.084395788912708"><ele>68.0</ele><time>2026-03-22T10:53:00.999Z</time></trkpt><trkpt lat="42.34773750866024" lon="14.084275056888004"><ele>68.0</ele><time>2026-03-22T10:53:01.999Z</time></trkpt><trkpt lat="42.34770787489389" lon="14.084145453786018"><ele>68.0</ele><time>2026-03-22T10:53:02.999Z</time></trkpt><trkpt lat="42.34766960385991" lon="14.084033625550877"><ele>68.0</ele><time>2026-03-22T10:53:03.999Z</time></trkpt><trkpt lat="42.34764868682161" lon="14.083908069152928"><ele>68.0</ele><time>2026-03-22T10:53:04.999Z</time></trkpt><trkpt lat="42.34765774225476" lon="14.083809904721326"><ele>68.0</ele><time>2026-03-22T10:53:05.999Z</time></trkpt><trkpt lat="42.347656478249675" lon="14.08372378946052"><ele>68.0</ele><time>2026-03-22T10:53:06.999Z</time></trkpt><trkpt lat="42.34765405855772" lon="14.083595706450117"><ele>68.0</ele><time>2026-03-22T10:53:08.999Z</time></trkpt><trkpt lat="42.347623950043925" lon="14.083480092946404"><ele>68.0</ele><time>2026-03-22T10:53:09.999Z</time></trkpt><trkpt lat="42.3476240091058" lon="14.083341367453686"><ele>68.0</ele><time>2026-03-22T10:53:10.999Z</time></trkpt><trkpt lat="42.34764754502958" lon="14.083192358128727"><ele>68.0</ele><time>2026-03-22T10:53:11.999Z</time></trkpt><trkpt lat="42.34769387684376" lon="14.083040070649648"><ele>68.0</ele><time>2026-03-22T10:53:12.999Z</time></trkpt><trkpt lat="42.34774780144416" lon="14.082942008965986"><ele>68.0</ele><time>2026-03-22T10:53:13.999Z</time></trkpt><trkpt lat="42.34781575944124" lon="14.082871855481594"><ele>68.0</ele><time>2026-03-22T10:53:14.999Z</time></trkpt><trkpt lat="42.347902518143044" lon="14.08279788834081"><ele>68.0</ele><time>2026-03-22T10:53:15.999Z</time></trkpt><trkpt lat="42.34799479660874" lon="14.082719269593932"><ele>67.25</ele><time>2026-03-22T10:53:16.999Z</time></trkpt><trkpt lat="42.34806184981911" lon="14.082596916759693"><ele>66.5</ele><time>2026-03-22T10:53:17.999Z</time></trkpt><trkpt lat="42.34811431420237" lon="14.082456980765611"><ele>65.75</ele><time>2026-03-22T10:53:18.999Z</time></trkpt><trkpt lat="42.3481688368932" lon="14.082317335902845"><ele>65.0</ele><time>2026-03-22T10:53:19.999Z</time></trkpt><trkpt lat="42.348225299813" lon="14.082176365245548"><ele>65.0</ele><time>2026-03-22T10:53:20.999Z</time></trkpt><trkpt lat="42.348284545197885" lon="14.082063562010909"><ele>65.0</ele><time>2026-03-22T10:53:21.999Z</time></trkpt><trkpt lat="42.34833916389548" lon="14.081981697091328"><ele>65.0</ele><time>2026-03-22T10:53:22.999Z</time></trkpt><trkpt lat="42.348401457270896" lon="14.081900519935228"><ele>65.0</ele><time>2026-03-22T10:53:24.999Z</time></trkpt><trkpt lat="42.34845014667413" lon="14.081958609686117"><ele>65.0</ele><time>2026-03-22T10:53:25.999Z</time></trkpt><trkpt lat="42.348504263628215" lon="14.082028331475671"><ele>65.0</ele><time>2026-03-22T10:53:26.999Z</time></trkpt><trkpt lat="42.348570626993165" lon="14.082017134747943"><ele>65.0</ele><time>2026-03-22T10:53:27.999Z</time></trkpt><trkpt lat="42.34860150762437" lon="14.08192271254476"><ele>65.0</ele><time>2026-03-22T10:53:28.999Z</time></trkpt><trkpt lat="42.34860265613776" lon="14.081827645437647"><ele>65.0</ele><time>2026-03-22T10:53:29.999Z</time></trkpt><trkpt lat="42.34861053769261" lon="14.081742774034174"><ele>65.0</ele><time>2026-03-22T10:53:30.999Z</time></trkpt><trkpt lat="42.348599638740986" lon="14.0816506127983"><ele>65.0</ele><time>2026-03-22T10:53:31.999Z</time></trkpt><trkpt lat="42.34866492280254" lon="14.081573011553072"><ele>65.0</ele><time>2026-03-22T10:53:32.999Z</time></trkpt><trkpt lat="42.34877123456845" lon="14.081508457023205"><ele>65.66666666666667</ele><time>2026-03-22T10:53:33.999Z</time></trkpt><trkpt lat="42.34894399832507" lon="14.081375071517972"><ele>66.33333333333333</ele><time>2026-03-22T10:53:34.999Z</time></trkpt><trkpt lat="42.34906837568422" lon="14.081246539895606"><ele>67.0</ele><time>2026-03-22T10:53:35.999Z</time></trkpt><trkpt lat="42.34916335969057" lon="14.081196350910755"><ele>67.0</ele><time>2026-03-22T10:53:36.999Z</time></trkpt><trkpt lat="42.349277088120864" lon="14.081225258128127"><ele>67.0</ele><time>2026-03-22T10:53:37.999Z</time></trkpt><trkpt lat="42.34941060527435" lon="14.081286088791728"><ele>67.0</ele><time>2026-03-22T10:53:38.999Z</time></trkpt><trkpt lat="42.34950586433839" lon="14.081326765497778"><ele>67.0</ele><time>2026-03-22T10:53:39.999Z</time></trkpt><trkpt lat="42.34960255176183" lon="14.081294487635747"><ele>67.0</ele><time>2026-03-22T10:53:41.999Z</time></trkpt><trkpt lat="42.34964573724469" lon="14.081219781095019"><ele>67.0</ele><time>2026-03-22T10:53:42.999Z</time></trkpt><trkpt lat="42.349707234552994" lon="14.081057986424046"><ele>67.0</ele><time>2026-03-22T10:53:44.999Z</time></trkpt><trkpt lat="42.34966963278203" lon="14.080884386944776"><ele>67.0</ele><time>2026-03-22T10:53:46.999Z</time></trkpt><trkpt lat="42.34961906671205" lon="14.080781996793386"><ele>67.0</ele><time>2026-03-22T10:53:48.999Z</time></trkpt><trkpt lat="42.34955136592593" lon="14.080669228562398"><ele>66.83333333333333</ele><time>2026-03-22T10:53:50.999Z</time></trkpt><trkpt lat="42.34955079510936" lon="14.080576726626433"><ele>66.66666666666666</ele><time>2026-03-22T10:53:51.999Z</time></trkpt><trkpt lat="42.349605707439984" lon="14.080520863171913"><ele>66.5</ele><time>2026-03-22T10:53:52.999Z</time></trkpt><trkpt lat="42.34966814467645" lon="14.080493201925352"><ele>66.33333333333333</ele><time>2026-03-22T10:53:53.999Z</time></trkpt><trkpt lat="42.349728243763614" lon="14.080445113610628"><ele>66.16666666666667</ele><time>2026-03-22T10:53:54.999Z</time></trkpt><trkpt lat="42.349821800527415" lon="14.080357851327882"><ele>66.0</ele><time>2026-03-22T10:53:55.999Z</time></trkpt><trkpt lat="42.349916834391294" lon="14.080238745844893"><ele>66.0</ele><time>2026-03-22T10:53:56.999Z</time></trkpt><trkpt lat="42.35004819021134" lon="14.08013764309624"><ele>66.0</ele><time>2026-03-22T10:53:57.999Z</time></trkpt><trkpt lat="42.35015524293107" lon="14.080041672774323"><ele>66.0</ele><time>2026-03-22T10:53:58.999Z</time></trkpt><trkpt lat="42.3502327283184" lon="14.079920787585289"><ele>66.0</ele><time>2026-03-22T10:53:59.999Z</time></trkpt><trkpt lat="42.350284805755116" lon="14.079800700541163"><ele>66.0</ele><time>2026-03-22T10:54:00.999Z</time></trkpt><trkpt lat="42.35034910167952" lon="14.079624261989023"><ele>66.0</ele><time>2026-03-22T10:54:01.999Z</time></trkpt><trkpt lat="42.35039890725365" lon="14.079438989047562"><ele>66.0</ele><time>2026-03-22T10:54:02.999Z</time></trkpt><trkpt lat="42.35044232768708" lon="14.079241952337847"><ele>66.0</ele><time>2026-03-22T10:54:03.999Z</time></trkpt><trkpt lat="42.350483162290125" lon="14.079009497883261"><ele>66.0</ele><time>2026-03-22T10:54:04.999Z</time></trkpt><trkpt lat="42.35052905672303" lon="14.078774762815241"><ele>66.0</ele><time>2026-03-22T10:54:05.999Z</time></trkpt><trkpt lat="42.35057895701641" lon="14.078636132455415"><ele>66.0</ele><time>2026-03-22T10:54:06.999Z</time></trkpt><trkpt lat="42.35061540144338" lon="14.078493339700865"><ele>66.0</ele><time>2026-03-22T10:54:07.999Z</time></trkpt><trkpt lat="42.3505980281742" lon="14.078365168300524"><ele>66.2</ele><time>2026-03-22T10:54:08.999Z</time></trkpt><trkpt lat="42.35060226817659" lon="14.078155851950912"><ele>66.39999999999999</ele><time>2026-03-22T10:54:09.999Z</time></trkpt><trkpt lat="42.35058433753711" lon="14.078010305859124"><ele>66.6</ele><time>2026-03-22T10:54:10.999Z</time></trkpt><trkpt lat="42.350543070788675" lon="14.077888163290785"><ele>66.8</ele><time>2026-03-22T10:54:11.999Z</time></trkpt><trkpt lat="42.350535265697275" lon="14.077791476999616"><ele>67.0</ele><time>2026-03-22T10:54:12.999Z</time></trkpt><trkpt lat="42.35053677469304" lon="14.077704008434296"><ele>67.0</ele><time>2026-03-22T10:54:13.999Z</time></trkpt><trkpt lat="42.35049215360755" lon="14.077517642684928"><ele>67.0</ele><time>2026-03-22T10:54:15.999Z</time></trkpt><trkpt lat="42.3504924034934" lon="14.077374091664947"><ele>67.0</ele><time>2026-03-22T10:54:16.999Z</time></trkpt><trkpt lat="42.350504355640346" lon="14.077219516356674"><ele>67.0</ele><time>2026-03-22T10:54:17.999Z</time></trkpt><trkpt lat="42.35049700074702" lon="14.077042602428492"><ele>67.25</ele><time>2026-03-22T10:54:18.999Z</time></trkpt><trkpt lat="42.35048958257625" lon="14.076880005490883"><ele>67.5</ele><time>2026-03-22T10:54:19.998Z</time></trkpt><trkpt lat="42.350477389507894" lon="14.076719409053771"><ele>67.75</ele><time>2026-03-22T10:54:20.998Z</time></trkpt><trkpt lat="42.35047790174894" lon="14.076554020385966"><ele>68.0</ele><time>2026-03-22T10:54:22Z</time></trkpt><trkpt lat="42.350516717169924" lon="14.07638021849784"><ele>68.5</ele><time>2026-03-22T10:54:23Z</time></trkpt><trkpt lat="42.35055472446056" lon="14.076214736692767"><ele>69.0</ele><time>2026-03-22T10:54:24Z</time></trkpt><trkpt lat="42.35058181423621" lon="14.076085553648312"><ele>69.5</ele><time>2026-03-22T10:54:25Z</time></trkpt><trkpt lat="42.35050107165194" lon="14.075896427526043"><ele>70.0</ele><time>2026-03-22T10:54:26Z</time></trkpt><trkpt lat="42.35046951655182" lon="14.075705057356963"><ele>70.2</ele><time>2026-03-22T10:54:27Z</time></trkpt><trkpt lat="42.350449149725684" lon="14.075545184602444"><ele>70.4</ele><time>2026-03-22T10:54:28Z</time></trkpt><trkpt lat="42.350432554518115" lon="14.07542946771656"><ele>70.6</ele><time>2026-03-22T10:54:29Z</time></trkpt><trkpt lat="42.35050525774309" lon="14.075330184633183"><ele>70.8</ele><time>2026-03-22T10:54:31Z</time></trkpt><trkpt lat="42.35062772069581" lon="14.075260118231803"><ele>71.0</ele><time>2026-03-22T10:54:33Z</time></trkpt><trkpt lat="42.35072290912126" lon="14.075249318093281"><ele>71.0</ele><time>2026-03-22T10:54:34Z</time></trkpt><trkpt lat="42.350874606963025" lon="14.075242194817818"><ele>71.0</ele><time>2026-03-22T10:54:35Z</time></trkpt><trkpt lat="42.35099685401797" lon="14.075204871063892"><ele>71.0</ele><time>2026-03-22T10:54:36Z</time></trkpt><trkpt lat="42.35112239721428" lon="14.075168847292492"><ele>71.0</ele><time>2026-03-22T10:54:37Z</time></trkpt><trkpt lat="42.351269879358114" lon="14.075130686015058"><ele>71.66666666666667</ele><time>2026-03-22T10:54:38Z</time></trkpt><trkpt lat="42.35142817808359" lon="14.075081850914206"><ele>72.33333333333333</ele><time>2026-03-22T10:54:39Z</time></trkpt><trkpt lat="42.351575516694005" lon="14.075043128132773"><ele>73.0</ele><time>2026-03-22T10:54:40Z</time></trkpt><trkpt lat="42.351712857346705" lon="14.075043510085846"><ele>73.0</ele><time>2026-03-22T10:54:41Z</time></trkpt><trkpt lat="42.35184320187339" lon="14.075067443956916"><ele>73.0</ele><time>2026-03-22T10:54:42Z</time></trkpt><trkpt lat="42.35198853515845" lon="14.075098170967777"><ele>73.0</ele><time>2026-03-22T10:54:43Z</time></trkpt><trkpt lat="42.352142881877164" lon="14.075143905148101"><ele>73.0</ele><time>2026-03-22T10:54:44Z</time></trkpt><trkpt lat="42.35233642192086" lon="14.075171638853645"><ele>74.33333333333333</ele><time>2026-03-22T10:54:45Z</time></trkpt><trkpt lat="42.35249385758241" lon="14.07519928604638"><ele>75.66666666666667</ele><time>2026-03-22T10:54:46Z</time></trkpt><trkpt lat="42.3526513927343" lon="14.075219957791045"><ele>77.0</ele><time>2026-03-22T10:54:46.999Z</time></trkpt><trkpt lat="42.35280601323854" lon="14.07523490502981"><ele>77.0</ele><time>2026-03-22T10:54:47.999Z</time></trkpt><trkpt lat="42.35295650699991" lon="14.075256763200667"><ele>77.0</ele><time>2026-03-22T10:54:48.999Z</time></trkpt><trkpt lat="42.35310284911875" lon="14.075295852814293"><ele>77.0</ele><time>2026-03-22T10:54:49.999Z</time></trkpt><trkpt lat="42.353246029859996" lon="14.075359647683124"><ele>80.5</ele><time>2026-03-22T10:54:50.999Z</time></trkpt><trkpt lat="42.353386961198844" lon="14.075406992793488"><ele>84.0</ele><time>2026-03-22T10:54:51.999Z</time></trkpt><trkpt lat="42.353537074481586" lon="14.075399785750685"><ele>87.5</ele><time>2026-03-22T10:54:52.999Z</time></trkpt><trkpt lat="42.35368890763123" lon="14.07536761455415"><ele>91.0</ele><time>2026-03-22T10:54:53.999Z</time></trkpt><trkpt lat="42.35384738568919" lon="14.075325824387289"><ele>93.0</ele><time>2026-03-22T10:54:54.999Z</time></trkpt><trkpt lat="42.35400540225108" lon="14.075282927685034"><ele>95.0</ele><time>2026-03-22T10:54:55.999Z</time></trkpt><trkpt lat="42.35415344088344" lon="14.075237018348071"><ele>97.0</ele><time>2026-03-22T10:54:56.999Z</time></trkpt><trkpt lat="42.35429796319988" lon="14.07519209904295"><ele>97.0</ele><time>2026-03-22T10:54:57.999Z</time></trkpt><trkpt lat="42.354439554919644" lon="14.075165728845114"><ele>97.0</ele><time>2026-03-22T10:54:58.999Z</time></trkpt><trkpt lat="42.35456010892824" lon="14.07511144971371"><ele>97.0</ele><time>2026-03-22T10:54:59.999Z</time></trkpt><trkpt lat="42.35469087572699" lon="14.075075482459939"><ele>97.0</ele><time>2026-03-22T10:55:00.999Z</time></trkpt><trkpt lat="42.354816925395774" lon="14.07504769879485"><ele>100.25</ele><time>2026-03-22T10:55:01.999Z</time></trkpt><trkpt lat="42.35495254850722" lon="14.07501370217629"><ele>103.5</ele><time>2026-03-22T10:55:02.999Z</time></trkpt><trkpt lat="42.35508125439143" lon="14.074985295837399"><ele>106.75</ele><time>2026-03-22T10:55:03.999Z</time></trkpt><trkpt lat="42.35521890660638" lon="14.074968655917509"><ele>110.0</ele><time>2026-03-22T10:55:04.999Z</time></trkpt><trkpt lat="42.355349592517214" lon="14.07495714183648"><ele>110.75</ele><time>2026-03-22T10:55:05.999Z</time></trkpt><trkpt lat="42.355479924741154" lon="14.074935443727055"><ele>111.5</ele><time>2026-03-22T10:55:06.999Z</time></trkpt><trkpt lat="42.3556025769288" lon="14.074913435241346"><ele>112.25</ele><time>2026-03-22T10:55:07.999Z</time></trkpt><trkpt lat="42.35572255280464" lon="14.074890317341879"><ele>113.0</ele><time>2026-03-22T10:55:08.999Z</time></trkpt><trkpt lat="42.35585085352572" lon="14.074878189655797"><ele>114.75</ele><time>2026-03-22T10:55:09.999Z</time></trkpt><trkpt lat="42.355986240215174" lon="14.074877603347513"><ele>116.5</ele><time>2026-03-22T10:55:10.999Z</time></trkpt><trkpt lat="42.35612947826083" lon="14.074876199201249"><ele>118.25</ele><time>2026-03-22T10:55:11.999Z</time></trkpt><trkpt lat="42.356273604737375" lon="14.074883602989493"><ele>120.0</ele><time>2026-03-22T10:55:12.999Z</time></trkpt><trkpt lat="42.35641604831016" lon="14.074909462318903"><ele>120.75</ele><time>2026-03-22T10:55:13.999Z</time></trkpt><trkpt lat="42.35656471750836" lon="14.074940208350041"><ele>121.5</ele><time>2026-03-22T10:55:14.999Z</time></trkpt><trkpt lat="42.35671212265584" lon="14.074972069269334"><ele>122.25</ele><time>2026-03-22T10:55:15.999Z</time></trkpt><trkpt lat="42.35685340112037" lon="14.074995656391295"><ele>123.0</ele><time>2026-03-22T10:55:16.999Z</time></trkpt><trkpt lat="42.356995625050736" lon="14.075020060026628"><ele>123.0</ele><time>2026-03-22T10:55:17.999Z</time></trkpt><trkpt lat="42.357137847640665" lon="14.075048042849419"><ele>123.0</ele><time>2026-03-22T10:55:18.999Z</time></trkpt><trkpt lat="42.3572846631516" lon="14.075088104055123"><ele>123.0</ele><time>2026-03-22T10:55:19.999Z</time></trkpt><trkpt lat="42.35742735418849" lon="14.075120953737521"><ele>123.0</ele><time>2026-03-22T10:55:20.999Z</time></trkpt><trkpt lat="42.35756939316343" lon="14.075150635961553"><ele>122.75</ele><time>2026-03-22T10:55:21.999Z</time></trkpt><trkpt lat="42.357716520174904" lon="14.075182641973893"><ele>122.5</ele><time>2026-03-22T10:55:22.999Z</time></trkpt><trkpt lat="42.3578573920326" lon="14.07522064508471"><ele>122.25</ele><time>2026-03-22T10:55:23.999Z</time></trkpt><trkpt lat="42.35799243993634" lon="14.075263994284445"><ele>122.0</ele><time>2026-03-22T10:55:24.999Z</time></trkpt><trkpt lat="42.35810733594094" lon="14.075309075124787"><ele>121.8</ele><time>2026-03-22T10:55:25.999Z</time></trkpt><trkpt lat="42.35820533164882" lon="14.07534567097836"><ele>121.6</ele><time>2026-03-22T10:55:26.999Z</time></trkpt><trkpt lat="42.35829685654908" lon="14.075375657218702"><ele>121.39999999999999</ele><time>2026-03-22T10:55:27.999Z</time></trkpt><trkpt lat="42.35838368028169" lon="14.075407731667028"><ele>121.19999999999999</ele><time>2026-03-22T10:55:28.999Z</time></trkpt><trkpt lat="42.358476676481516" lon="14.07545197426214"><ele>121.0</ele><time>2026-03-22T10:55:29.999Z</time></trkpt><trkpt lat="42.358573114706836" lon="14.075493156132467"><ele>121.0</ele><time>2026-03-22T10:55:30.999Z</time></trkpt><trkpt lat="42.3586436391892" lon="14.075534207562711"><ele>121.0</ele><time>2026-03-22T10:55:31.999Z</time></trkpt><trkpt lat="42.35871944771536" lon="14.075589728323774"><ele>121.0</ele><time>2026-03-22T10:55:33.999Z</time></trkpt><trkpt lat="42.35865992963764" lon="14.075774269172395"><ele>121.0</ele><time>2026-03-22T10:55:34.999Z</time></trkpt><trkpt lat="42.35861701172178" lon="14.075879265798857"><ele>121.0</ele><time>2026-03-22T10:55:35.999Z</time></trkpt><trkpt lat="42.35856844054708" lon="14.076009837032828"><ele>121.25</ele><time>2026-03-22T10:55:36.999Z</time></trkpt><trkpt lat="42.35855403888925" lon="14.076158521539092"><ele>121.5</ele><time>2026-03-22T10:55:37.999Z</time></trkpt><trkpt lat="42.358581668920586" lon="14.076325037959991"><ele>121.75</ele><time>2026-03-22T10:55:38.999Z</time></trkpt><trkpt lat="42.35859006049422" lon="14.076530200432261"><ele>122.0</ele><time>2026-03-22T10:55:39.999Z</time></trkpt><trkpt lat="42.35861755985559" lon="14.076713471839957"><ele>122.0</ele><time>2026-03-22T10:55:40.999Z</time></trkpt><trkpt lat="42.35865673837691" lon="14.076929641479618"><ele>122.0</ele><time>2026-03-22T10:55:41.999Z</time></trkpt><trkpt lat="42.358710869047236" lon="14.07713732993662"><ele>122.0</ele><time>2026-03-22T10:55:42.999Z</time></trkpt><trkpt lat="42.35876418631536" lon="14.077343111775749"><ele>121.66666666666666</ele><time>2026-03-22T10:55:43.999Z</time></trkpt><trkpt lat="42.35881456772276" lon="14.07754511045082"><ele>121.33333333333334</ele><time>2026-03-22T10:55:44.999Z</time></trkpt><trkpt lat="42.35886167641999" lon="14.077733987525823"><ele>121.0</ele><time>2026-03-22T10:55:45.999Z</time></trkpt><trkpt lat="42.358910944496735" lon="14.077928939544991"><ele>120.75</ele><time>2026-03-22T10:55:46.999Z</time></trkpt><trkpt lat="42.35901655411849" lon="14.078082493798677"><ele>120.5</ele><time>2026-03-22T10:55:47.999Z</time></trkpt><trkpt lat="42.35904042580239" lon="14.078245858842521"><ele>120.25</ele><time>2026-03-22T10:55:48.999Z</time></trkpt><trkpt lat="42.35903246083045" lon="14.078395640583599"><ele>120.0</ele><time>2026-03-22T10:55:49.999Z</time></trkpt><trkpt lat="42.35899284518346" lon="14.078547269816834"><ele>120.0</ele><time>2026-03-22T10:55:50.999Z</time></trkpt><trkpt lat="42.35896165360838" lon="14.07872361943094"><ele>120.0</ele><time>2026-03-22T10:55:51.999Z</time></trkpt><trkpt lat="42.358991470312525" lon="14.078901659763106"><ele>120.0</ele><time>2026-03-22T10:55:52.999Z</time></trkpt><trkpt lat="42.35903827108233" lon="14.079086915556418"><ele>120.0</ele><time>2026-03-22T10:55:53.999Z</time></trkpt><trkpt lat="42.35909358947429" lon="14.0792666252636"><ele>119.5</ele><time>2026-03-22T10:55:54.999Z</time></trkpt><trkpt lat="42.359141717229434" lon="14.079450976584036"><ele>119.0</ele><time>2026-03-22T10:55:55.999Z</time></trkpt><trkpt lat="42.359188669715" lon="14.0796365761888"><ele>118.5</ele><time>2026-03-22T10:55:56.999Z</time></trkpt><trkpt lat="42.35923302000683" lon="14.079807836164996"><ele>118.0</ele><time>2026-03-22T10:55:57.999Z</time></trkpt><trkpt lat="42.35927201114051" lon="14.079962007769046"><ele>118.0</ele><time>2026-03-22T10:55:58.999Z</time></trkpt><trkpt lat="42.35929539399207" lon="14.080115168815954"><ele>118.00000000000001</ele><time>2026-03-22T10:55:59.999Z</time></trkpt><trkpt lat="42.35930635346338" lon="14.080262302016703"><ele>118.00000000000001</ele><time>2026-03-22T10:56:00.999Z</time></trkpt><trkpt lat="42.35925907293443" lon="14.080422737311508"><ele>118.0</ele><time>2026-03-22T10:56:01.999Z</time></trkpt><trkpt lat="42.359285952060944" lon="14.080537931120713"><ele>118.0</ele><time>2026-03-22T10:56:02.999Z</time></trkpt><trkpt lat="42.359308346695016" lon="14.080635727173338"><ele>118.00000000000001</ele><time>2026-03-22T10:56:03.999Z</time></trkpt><trkpt lat="42.35932734820776" lon="14.080720693461794"><ele>118.0</ele><time>2026-03-22T10:56:04.999Z</time></trkpt><trkpt lat="42.35935517253346" lon="14.080858656603608"><ele>118.0</ele><time>2026-03-22T10:56:06.999Z</time></trkpt><trkpt lat="42.35937360135202" lon="14.080955383799354"><ele>118.0</ele><time>2026-03-22T10:56:08.999Z</time></trkpt><trkpt lat="42.35939270330766" lon="14.081055644089624"><ele>118.00000000000001</ele><time>2026-03-22T10:56:12.999Z</time></trkpt><trkpt lat="42.35946892218022" lon="14.081138772688792"><ele>118.0</ele><time>2026-03-22T10:56:57.999Z</time></trkpt><trkpt lat="42.35949546193657" lon="14.081033927085048"><ele>118.00000000000001</ele><time>2026-03-22T10:57:01.999Z</time></trkpt><trkpt lat="42.359472777573835" lon="14.080954383879105"><ele>118.0</ele><time>2026-03-22T10:57:02.999Z</time></trkpt><trkpt lat="42.359449244204804" lon="14.080869654233096"><ele>118.0</ele><time>2026-03-22T10:57:03.999Z</time></trkpt><trkpt lat="42.35942801810896" lon="14.080766050406707"><ele>118.0</ele><time>2026-03-22T10:57:04.999Z</time></trkpt><trkpt lat="42.35936856986079" lon="14.080671299668273"><ele>118.00000000000001</ele><time>2026-03-22T10:57:05.999Z</time></trkpt><trkpt lat="42.35934093380441" lon="14.08054968466949"><ele>118.0</ele><time>2026-03-22T10:57:06.999Z</time></trkpt><trkpt lat="42.35930949722531" lon="14.080412402880821"><ele>118.0</ele><time>2026-03-22T10:57:07.999Z</time></trkpt><trkpt lat="42.35928488037676" lon="14.080296693382659"><ele>118.00000000000001</ele><time>2026-03-22T10:57:08.999Z</time></trkpt><trkpt lat="42.35926237362058" lon="14.080165712689727"><ele>118.00000000000001</ele><time>2026-03-22T10:57:10.999Z</time></trkpt><trkpt lat="42.35925285153901" lon="14.080021172265681"><ele>118.0</ele><time>2026-03-22T10:57:12.999Z</time></trkpt><trkpt lat="42.359233061971004" lon="14.079890974488048"><ele>118.0</ele><time>2026-03-22T10:57:13.999Z</time></trkpt><trkpt lat="42.359198655892406" lon="14.079737708798998"><ele>118.0</ele><time>2026-03-22T10:57:14.999Z</time></trkpt><trkpt lat="42.35915779400117" lon="14.079569819110725"><ele>118.0</ele><time>2026-03-22T10:57:15.999Z</time></trkpt><trkpt lat="42.35912934844012" lon="14.07938545073631"><ele>118.0</ele><time>2026-03-22T10:57:16.999Z</time></trkpt><trkpt lat="42.35908525228887" lon="14.079206401447172"><ele>118.0</ele><time>2026-03-22T10:57:17.999Z</time></trkpt><trkpt lat="42.359041421124495" lon="14.079013420713807"><ele>118.5</ele><time>2026-03-22T10:57:18.999Z</time></trkpt><trkpt lat="42.35900089527424" lon="14.07883519041543"><ele>119.0</ele><time>2026-03-22T10:57:19.999Z</time></trkpt><trkpt lat="42.358970838173335" lon="14.078681171488496"><ele>119.5</ele><time>2026-03-22T10:57:20.999Z</time></trkpt><trkpt lat="42.358960492856816" lon="14.078533280340265"><ele>120.0</ele><time>2026-03-22T10:57:21.999Z</time></trkpt><trkpt lat="42.35898390722601" lon="14.0783689380862"><ele>120.0</ele><time>2026-03-22T10:57:22.999Z</time></trkpt><trkpt lat="42.3590255134022" lon="14.078204058782106"><ele>120.0</ele><time>2026-03-22T10:57:23.999Z</time></trkpt><trkpt lat="42.359029975950605" lon="14.078041463472532"><ele>120.0</ele><time>2026-03-22T10:57:24.999Z</time></trkpt><trkpt lat="42.35897689728833" lon="14.077853405779843"><ele>120.0</ele><time>2026-03-22T10:57:25.999Z</time></trkpt><trkpt lat="42.35891215996626" lon="14.077654504859618"><ele>120.25</ele><time>2026-03-22T10:57:26.999Z</time></trkpt><trkpt lat="42.358861069031896" lon="14.077467741160813"><ele>120.5</ele><time>2026-03-22T10:57:27.999Z</time></trkpt><trkpt lat="42.35882018827619" lon="14.077304587023914"><ele>120.75</ele><time>2026-03-22T10:57:28.999Z</time></trkpt><trkpt lat="42.35877861808142" lon="14.0771479837495"><ele>121.0</ele><time>2026-03-22T10:57:29.999Z</time></trkpt><trkpt lat="42.35874641812991" lon="14.077010537008759"><ele>121.16666666666667</ele><time>2026-03-22T10:57:30.999Z</time></trkpt><trkpt lat="42.35871574118627" lon="14.076889357734903"><ele>121.33333333333334</ele><time>2026-03-22T10:57:31.999Z</time></trkpt><trkpt lat="42.358686118696454" lon="14.076800353708395"><ele>121.5</ele><time>2026-03-22T10:57:32.999Z</time></trkpt><trkpt lat="42.35862044338726" lon="14.076761738840794"><ele>121.66666666666666</ele><time>2026-03-22T10:57:34.999Z</time></trkpt><trkpt lat="42.35854774375985" lon="14.076796542917075"><ele>121.83333333333333</ele><time>2026-03-22T10:57:35.999Z</time></trkpt><trkpt lat="42.358451809813324" lon="14.076880089890606"><ele>122.0</ele><time>2026-03-22T10:57:36.999Z</time></trkpt><trkpt lat="42.35834351916963" lon="14.07698855352581"><ele>122.0</ele><time>2026-03-22T10:57:37.999Z</time></trkpt><trkpt lat="42.35822348397279" lon="14.077097799661274"><ele>122.0</ele><time>2026-03-22T10:57:38.999Z</time></trkpt><trkpt lat="42.358092578409696" lon="14.077188195637433"><ele>122.0</ele><time>2026-03-22T10:57:39.999Z</time></trkpt><trkpt lat="42.357957140434" lon="14.077281975994136"><ele>122.0</ele><time>2026-03-22T10:57:40.999Z</time></trkpt><trkpt lat="42.35782293208311" lon="14.077388687719415"><ele>121.33333333333333</ele><time>2026-03-22T10:57:41.999Z</time></trkpt><trkpt lat="42.35768003885351" lon="14.077493865616775"><ele>120.66666666666666</ele><time>2026-03-22T10:57:42.999Z</time></trkpt><trkpt lat="42.35753216075516" lon="14.077596814332532"><ele>120.0</ele><time>2026-03-22T10:57:43.999Z</time></trkpt><trkpt lat="42.35738390144269" lon="14.077705336816635"><ele>120.0</ele><time>2026-03-22T10:57:44.999Z</time></trkpt><trkpt lat="42.357230063348844" lon="14.077807852623295"><ele>120.0</ele><time>2026-03-22T10:57:45.999Z</time></trkpt><trkpt lat="42.3570874460407" lon="14.077905008484997"><ele>120.0</ele><time>2026-03-22T10:57:46.999Z</time></trkpt><trkpt lat="42.35696521821345" lon="14.077992550078715"><ele>120.0</ele><time>2026-03-22T10:57:47.999Z</time></trkpt><trkpt lat="42.35684916924423" lon="14.078070857485901"><ele>120.0</ele><time>2026-03-22T10:57:48.999Z</time></trkpt><trkpt lat="42.35670942204392" lon="14.078101257220967"><ele>120.0</ele><time>2026-03-22T10:57:49.999Z</time></trkpt><trkpt lat="42.3565990398483" lon="14.078178964616853"><ele>120.0</ele><time>2026-03-22T10:57:50.999Z</time></trkpt><trkpt lat="42.356512014080955" lon="14.07824022938386"><ele>120.25</ele><time>2026-03-22T10:57:51.999Z</time></trkpt><trkpt lat="42.356430297515736" lon="14.078297225773886"><ele>120.5</ele><time>2026-03-22T10:57:52.999Z</time></trkpt><trkpt lat="42.35633272538525" lon="14.078356138407425"><ele>120.75</ele><time>2026-03-22T10:57:53.999Z</time></trkpt><trkpt lat="42.35621204899685" lon="14.07840089920358"><ele>121.0</ele><time>2026-03-22T10:57:54.999Z</time></trkpt><trkpt lat="42.35606458716159" lon="14.078451407862635"><ele>119.0</ele><time>2026-03-22T10:57:55.999Z</time></trkpt><trkpt lat="42.355919130865274" lon="14.078525996773523"><ele>117.0</ele><time>2026-03-22T10:57:56.999Z</time></trkpt><trkpt lat="42.35576913692057" lon="14.078610582560792"><ele>115.0</ele><time>2026-03-22T10:57:57.999Z</time></trkpt><trkpt lat="42.35561141490469" lon="14.078699526467725"><ele>112.0</ele><time>2026-03-22T10:57:58.999Z</time></trkpt><trkpt lat="42.35547041215547" lon="14.07877759996966"><ele>109.0</ele><time>2026-03-22T10:57:59.999Z</time></trkpt><trkpt lat="42.355332659343624" lon="14.07885074987147"><ele>106.0</ele><time>2026-03-22T10:58:00.999Z</time></trkpt><trkpt lat="42.35519134371748" lon="14.078917174716604"><ele>106.0</ele><time>2026-03-22T10:58:01.999Z</time></trkpt><trkpt lat="42.35504633634038" lon="14.078966109957376"><ele>106.0</ele><time>2026-03-22T10:58:02.999Z</time></trkpt><trkpt lat="42.35488902649104" lon="14.078991861864033"><ele>106.0</ele><time>2026-03-22T10:58:03.999Z</time></trkpt><trkpt lat="42.35473687430264" lon="14.079013327648203"><ele>106.0</ele><time>2026-03-22T10:58:04.999Z</time></trkpt><trkpt lat="42.354603558301946" lon="14.07901922593183"><ele>106.0</ele><time>2026-03-22T10:58:05.999Z</time></trkpt><trkpt lat="42.35447962818676" lon="14.07902544643109"><ele>106.0</ele><time>2026-03-22T10:58:06.999Z</time></trkpt><trkpt lat="42.35437236280779" lon="14.07905343853743"><ele>106.0</ele><time>2026-03-22T10:58:07.999Z</time></trkpt><trkpt lat="42.35427920875769" lon="14.079112250243272"><ele>108.0</ele><time>2026-03-22T10:58:08.999Z</time></trkpt><trkpt lat="42.354206851882175" lon="14.079229429426116"><ele>110.0</ele><time>2026-03-22T10:58:09.999Z</time></trkpt><trkpt lat="42.354160252613" lon="14.079366250704542"><ele>112.0</ele><time>2026-03-22T10:58:10.999Z</time></trkpt><trkpt lat="42.35411979587464" lon="14.079499697627973"><ele>114.0</ele><time>2026-03-22T10:58:11.999Z</time></trkpt><trkpt lat="42.354090721683754" lon="14.079633981956588"><ele>116.0</ele><time>2026-03-22T10:58:12.999Z</time></trkpt><trkpt lat="42.354079027619015" lon="14.07979996221449"><ele>116.75</ele><time>2026-03-22T10:58:13.999Z</time></trkpt><trkpt lat="42.35407693549483" lon="14.079974606263978"><ele>117.5</ele><time>2026-03-22T10:58:14.999Z</time></trkpt><trkpt lat="42.35407990933651" lon="14.080161098176987"><ele>118.25</ele><time>2026-03-22T10:58:15.999Z</time></trkpt><trkpt lat="42.35408188698893" lon="14.08034878024178"><ele>119.0</ele><time>2026-03-22T10:58:16.999Z</time></trkpt><trkpt lat="42.3540829456827" lon="14.080536982224224"><ele>119.0</ele><time>2026-03-22T10:58:17.999Z</time></trkpt><trkpt lat="42.35407804209945" lon="14.080721209236879"><ele>119.0</ele><time>2026-03-22T10:58:18.999Z</time></trkpt><trkpt lat="42.35406213670305" lon="14.08090744991235"><ele>119.0</ele><time>2026-03-22T10:58:19.999Z</time></trkpt><trkpt lat="42.35403475931924" lon="14.08108557885218"><ele>119.0</ele><time>2026-03-22T10:58:20.999Z</time></trkpt><trkpt lat="42.35400276892608" lon="14.081271870111664"><ele>119.0</ele><time>2026-03-22T10:58:21.999Z</time></trkpt><trkpt lat="42.35396882697486" lon="14.081469172473728"><ele>119.0</ele><time>2026-03-22T10:58:22.999Z</time></trkpt><trkpt lat="42.353936665151245" lon="14.081670810508655"><ele>119.0</ele><time>2026-03-22T10:58:23.999Z</time></trkpt><trkpt lat="42.35390532909567" lon="14.081873173325759"><ele>119.0</ele><time>2026-03-22T10:58:24.999Z</time></trkpt><trkpt lat="42.35387280206389" lon="14.082083226786834"><ele>119.0</ele><time>2026-03-22T10:58:25.999Z</time></trkpt><trkpt lat="42.35384066273779" lon="14.082282358274291"><ele>119.0</ele><time>2026-03-22T10:58:26.999Z</time></trkpt><trkpt lat="42.35381277128065" lon="14.082451583892757"><ele>119.0</ele><time>2026-03-22T10:58:27.999Z</time></trkpt><trkpt lat="42.3537865671134" lon="14.082590948679245"><ele>118.0</ele><time>2026-03-22T10:58:28.999Z</time></trkpt><trkpt lat="42.35372303487197" lon="14.082647490017054"><ele>117.0</ele><time>2026-03-22T10:58:30.998Z</time></trkpt><trkpt lat="42.35359407431199" lon="14.082652325108388"><ele>116.0</ele><time>2026-03-22T10:58:32.998Z</time></trkpt><trkpt lat="42.35351415023791" lon="14.082662024589395"><ele>115.0</ele><time>2026-03-22T10:58:34Z</time></trkpt><trkpt lat="42.35341166137821" lon="14.082711757872014"><ele>114.0</ele><time>2026-03-22T10:58:35Z</time></trkpt><trkpt lat="42.353324814512014" lon="14.082807524298898"><ele>114.0</ele><time>2026-03-22T10:58:36Z</time></trkpt><trkpt lat="42.353250745944884" lon="14.082931427138085"><ele>114.0</ele><time>2026-03-22T10:58:37Z</time></trkpt><trkpt lat="42.35322103816824" lon="14.083080556642539"><ele>114.0</ele><time>2026-03-22T10:58:38Z</time></trkpt><trkpt lat="42.35323141800856" lon="14.083242908909796"><ele>114.0</ele><time>2026-03-22T10:58:39Z</time></trkpt><trkpt lat="42.35323751010228" lon="14.083370693885094"><ele>114.0</ele><time>2026-03-22T10:58:40Z</time></trkpt><trkpt lat="42.35321584448979" lon="14.083518317659244"><ele>114.75</ele><time>2026-03-22T10:58:41Z</time></trkpt><trkpt lat="42.35320024143877" lon="14.083690703255819"><ele>115.5</ele><time>2026-03-22T10:58:42Z</time></trkpt><trkpt lat="42.35322086189035" lon="14.083882642769952"><ele>116.25</ele><time>2026-03-22T10:58:43Z</time></trkpt><trkpt lat="42.3532527509305" lon="14.08406899261707"><ele>117.0</ele><time>2026-03-22T10:58:44Z</time></trkpt><trkpt lat="42.353278450745606" lon="14.084270420044632"><ele>117.0</ele><time>2026-03-22T10:58:45Z</time></trkpt><trkpt lat="42.35332408754476" lon="14.084466511707143"><ele>117.0</ele><time>2026-03-22T10:58:46Z</time></trkpt><trkpt lat="42.35339185308436" lon="14.084653930126079"><ele>117.0</ele><time>2026-03-22T10:58:47Z</time></trkpt><trkpt lat="42.35344427418603" lon="14.084839035181865"><ele>115.5</ele><time>2026-03-22T10:58:48Z</time></trkpt><trkpt lat="42.35348024895718" lon="14.08503297207932"><ele>114.0</ele><time>2026-03-22T10:58:49Z</time></trkpt><trkpt lat="42.35351737870123" lon="14.08522631648953"><ele>112.5</ele><time>2026-03-22T10:58:50Z</time></trkpt><trkpt lat="42.353543758043116" lon="14.085389108425963"><ele>111.0</ele><time>2026-03-22T10:58:51Z</time></trkpt><trkpt lat="42.353537998518895" lon="14.085541991942003"><ele>111.0</ele><time>2026-03-22T10:58:52Z</time></trkpt><trkpt lat="42.3535034311347" lon="14.085729194549051"><ele>111.0</ele><time>2026-03-22T10:58:52.999Z</time></trkpt><trkpt lat="42.353480738711156" lon="14.085942375242745"><ele>111.0</ele><time>2026-03-22T10:58:53.999Z</time></trkpt><trkpt lat="42.35347634566491" lon="14.086170124182125"><ele>110.0</ele><time>2026-03-22T10:58:54.999Z</time></trkpt><trkpt lat="42.35349018519736" lon="14.086399253067063"><ele>109.0</ele><time>2026-03-22T10:58:55.999Z</time></trkpt><trkpt lat="42.35350844857411" lon="14.086590722042514"><ele>108.0</ele><time>2026-03-22T10:58:56.999Z</time></trkpt><trkpt lat="42.35353447244238" lon="14.086768866678979"><ele>107.0</ele><time>2026-03-22T10:58:57.999Z</time></trkpt><trkpt lat="42.35357059268104" lon="14.086915694260277"><ele>106.49999999999999</ele><time>2026-03-22T10:58:58.999Z</time></trkpt><trkpt lat="42.35362374882245" lon="14.087037277766186"><ele>106.0</ele><time>2026-03-22T10:58:59.999Z</time></trkpt><trkpt lat="42.35368923358148" lon="14.087113437260392"><ele>105.5</ele><time>2026-03-22T10:59:00.999Z</time></trkpt><trkpt lat="42.35376816669591" lon="14.087135456618677"><ele>105.0</ele><time>2026-03-22T10:59:01.999Z</time></trkpt><trkpt lat="42.35383210132833" lon="14.087164827704816"><ele>104.49999999999999</ele><time>2026-03-22T10:59:02.999Z</time></trkpt><trkpt lat="42.35392256368157" lon="14.087179572380693"><ele>104.0</ele><time>2026-03-22T10:59:03.999Z</time></trkpt><trkpt lat="42.354025170925674" lon="14.087171372304748"><ele>106.5</ele><time>2026-03-22T10:59:04.999Z</time></trkpt><trkpt lat="42.35413495464553" lon="14.087151769185486"><ele>109.0</ele><time>2026-03-22T10:59:05.999Z</time></trkpt><trkpt lat="42.35426176590124" lon="14.087132773272483"><ele>111.5</ele><time>2026-03-22T10:59:06.999Z</time></trkpt><trkpt lat="42.35439254981344" lon="14.087112108412489"><ele>114.0</ele><time>2026-03-22T10:59:07.999Z</time></trkpt><trkpt lat="42.354529899402074" lon="14.087090913825179"><ele>114.0</ele><time>2026-03-22T10:59:08.999Z</time></trkpt><trkpt lat="42.354672386214055" lon="14.087069666577424"><ele>114.0</ele><time>2026-03-22T10:59:09.999Z</time></trkpt><trkpt lat="42.35481716007239" lon="14.087039404462526"><ele>114.0</ele><time>2026-03-22T10:59:10.999Z</time></trkpt><trkpt lat="42.35496314468056" lon="14.0870086584689"><ele>114.0</ele><time>2026-03-22T10:59:11.999Z</time></trkpt><trkpt lat="42.35511096836506" lon="14.086985952345053"><ele>113.75</ele><time>2026-03-22T10:59:12.999Z</time></trkpt><trkpt lat="42.35526044891024" lon="14.086970404370948"><ele>113.5</ele><time>2026-03-22T10:59:13.999Z</time></trkpt><trkpt lat="42.35540613287014" lon="14.086952414502667"><ele>113.25</ele><time>2026-03-22T10:59:14.999Z</time></trkpt><trkpt lat="42.35555251225661" lon="14.08692840611881"><ele>113.0</ele><time>2026-03-22T10:59:15.999Z</time></trkpt><trkpt lat="42.35569719847816" lon="14.086907505958225"><ele>112.75</ele><time>2026-03-22T10:59:16.999Z</time></trkpt><trkpt lat="42.355843722963066" lon="14.086884343255363"><ele>112.5</ele><time>2026-03-22T10:59:17.999Z</time></trkpt><trkpt lat="42.35599052048934" lon="14.086864196766301"><ele>112.25</ele><time>2026-03-22T10:59:18.999Z</time></trkpt><trkpt lat="42.35613713950753" lon="14.086847437752493"><ele>112.0</ele><time>2026-03-22T10:59:19.999Z</time></trkpt><trkpt lat="42.356279696907436" lon="14.08682664492473"><ele>111.5</ele><time>2026-03-22T10:59:20.999Z</time></trkpt><trkpt lat="42.35642281012017" lon="14.086791086711562"><ele>111.0</ele><time>2026-03-22T10:59:21.999Z</time></trkpt><trkpt lat="42.356572580303" lon="14.08675928816233"><ele>110.5</ele><time>2026-03-22T10:59:22.999Z</time></trkpt><trkpt lat="42.35671503798777" lon="14.08673675673127"><ele>110.0</ele><time>2026-03-22T10:59:23.999Z</time></trkpt><trkpt lat="42.356840312282486" lon="14.086719217043782"><ele>110.0</ele><time>2026-03-22T10:59:24.999Z</time></trkpt><trkpt lat="42.356952445602715" lon="14.086698427305285"><ele>110.0</ele><time>2026-03-22T10:59:25.999Z</time></trkpt><trkpt lat="42.35705982842975" lon="14.086675929535225"><ele>110.0</ele><time>2026-03-22T10:59:26.999Z</time></trkpt><trkpt lat="42.35715510864058" lon="14.086661816316813"><ele>110.0</ele><time>2026-03-22T10:59:27.999Z</time></trkpt><trkpt lat="42.357243173522434" lon="14.08665883895744"><ele>110.0</ele><time>2026-03-22T10:59:28.999Z</time></trkpt><trkpt lat="42.35732193553082" lon="14.086661716458543"><ele>110.49999999999999</ele><time>2026-03-22T10:59:29.999Z</time></trkpt><trkpt lat="42.35739853411513" lon="14.08664857355715"><ele>111.0</ele><time>2026-03-22T10:59:30.999Z</time></trkpt><trkpt lat="42.35747977117103" lon="14.086630950270171"><ele>111.5</ele><time>2026-03-22T10:59:31.999Z</time></trkpt><trkpt lat="42.35756603181091" lon="14.086611947856342"><ele>112.0</ele><time>2026-03-22T10:59:32.999Z</time></trkpt><trkpt lat="42.357659489317165" lon="14.08659563415455"><ele>112.49999999999999</ele><time>2026-03-22T10:59:33.999Z</time></trkpt><trkpt lat="42.35775209242727" lon="14.086579781029902"><ele>113.0</ele><time>2026-03-22T10:59:34.999Z</time></trkpt><trkpt lat="42.35785108752538" lon="14.086569564901867"><ele>112.99999999999999</ele><time>2026-03-22T10:59:35.999Z</time></trkpt><trkpt lat="42.35794168437334" lon="14.086571510229822"><ele>113.0</ele><time>2026-03-22T10:59:36.999Z</time></trkpt><trkpt lat="42.35802183190911" lon="14.086543595674899"><ele>113.0</ele><time>2026-03-22T10:59:37.999Z</time></trkpt><trkpt lat="42.358093528136564" lon="14.08655336277245"><ele>113.0</ele><time>2026-03-22T10:59:38.999Z</time></trkpt><trkpt lat="42.35816110824673" lon="14.086540463328467"><ele>112.99999999999999</ele><time>2026-03-22T10:59:39.999Z</time></trkpt><trkpt lat="42.358272047062194" lon="14.086524024275692"><ele>113.0</ele><time>2026-03-22T10:59:41.999Z</time></trkpt><trkpt lat="42.358340405417266" lon="14.086530852460163"><ele>113.0</ele><time>2026-03-22T10:59:44.999Z</time></trkpt><trkpt lat="42.358436715598096" lon="14.08652801216919"><ele>113.00000000000001</ele><time>2026-03-22T10:59:46.999Z</time></trkpt><trkpt lat="42.35851552893321" lon="14.086580853300756"><ele>113.00000000000001</ele><time>2026-03-22T10:59:47.999Z</time></trkpt><trkpt lat="42.35852737104635" lon="14.086737751230835"><ele>113.0</ele><time>2026-03-22T10:59:48.999Z</time></trkpt><trkpt lat="42.35859205975921" lon="14.086880959346713"><ele>113.0</ele><time>2026-03-22T10:59:49.999Z</time></trkpt><trkpt lat="42.358667423043926" lon="14.08704488417518"><ele>113.0</ele><time>2026-03-22T10:59:50.999Z</time></trkpt><trkpt lat="42.35875026376453" lon="14.087224456385107"><ele>113.0</ele><time>2026-03-22T10:59:51.999Z</time></trkpt><trkpt lat="42.35883908889727" lon="14.087406121521747"><ele>113.0</ele><time>2026-03-22T10:59:52.999Z</time></trkpt><trkpt lat="42.35892846484437" lon="14.087585082325365"><ele>113.0</ele><time>2026-03-22T10:59:53.999Z</time></trkpt><trkpt lat="42.35901226820194" lon="14.08777571689734"><ele>113.0</ele><time>2026-03-22T10:59:54.999Z</time></trkpt><trkpt lat="42.359088020958175" lon="14.087979086038386"><ele>113.0</ele><time>2026-03-22T10:59:55.999Z</time></trkpt><trkpt lat="42.35916059566457" lon="14.08819196382419"><ele>112.66666666666666</ele><time>2026-03-22T10:59:56.999Z</time></trkpt><trkpt lat="42.35922672417839" lon="14.088398438026605"><ele>112.33333333333334</ele><time>2026-03-22T10:59:57.999Z</time></trkpt><trkpt lat="42.35928417976376" lon="14.088579482547757"><ele>112.0</ele><time>2026-03-22T10:59:58.999Z</time></trkpt><trkpt lat="42.359342910393174" lon="14.088765478117272"><ele>112.0</ele><time>2026-03-22T10:59:59.999Z</time></trkpt><trkpt lat="42.359402736342865" lon="14.088954942547073"><ele>112.0</ele><time>2026-03-22T11:00:00.999Z</time></trkpt><trkpt lat="42.35946345992993" lon="14.089147250589539"><ele>112.0</ele><time>2026-03-22T11:00:01.999Z</time></trkpt><trkpt lat="42.35952217105085" lon="14.089336184194762"><ele>112.33333333333334</ele><time>2026-03-22T11:00:02.999Z</time></trkpt><trkpt lat="42.35957265115378" lon="14.089526520655726"><ele>112.66666666666666</ele><time>2026-03-22T11:00:03.999Z</time></trkpt><trkpt lat="42.35961920736905" lon="14.089726099069845"><ele>113.0</ele><time>2026-03-22T11:00:04.999Z</time></trkpt><trkpt lat="42.35966454849013" lon="14.089931692111028"><ele>112.60000000000001</ele><time>2026-03-22T11:00:05.999Z</time></trkpt><trkpt lat="42.35970913979564" lon="14.090120153385811"><ele>112.20000000000002</ele><time>2026-03-22T11:00:06.999Z</time></trkpt><trkpt lat="42.35974623219081" lon="14.090273974208378"><ele>111.8</ele><time>2026-03-22T11:00:07.999Z</time></trkpt><trkpt lat="42.35977594172895" lon="14.090386866641873"><ele>111.4</ele><time>2026-03-22T11:00:08.999Z</time></trkpt><trkpt lat="42.35980103044361" lon="14.09047609050734"><ele>111.0</ele><time>2026-03-22T11:00:09.999Z</time></trkpt><trkpt lat="42.35982532268436" lon="14.09056244873986"><ele>111.0</ele><time>2026-03-22T11:00:10.999Z</time></trkpt><trkpt lat="42.359857285773685" lon="14.090676076571713"><ele>111.0</ele><time>2026-03-22T11:00:11.999Z</time></trkpt><trkpt lat="42.35989061732804" lon="14.090794569215292"><ele>111.0</ele><time>2026-03-22T11:00:12.999Z</time></trkpt><trkpt lat="42.35992631867542" lon="14.090926305503102"><ele>111.0</ele><time>2026-03-22T11:00:13.999Z</time></trkpt><trkpt lat="42.35996788730081" lon="14.091085552698772"><ele>111.0</ele><time>2026-03-22T11:00:14.999Z</time></trkpt><trkpt lat="42.360015360152595" lon="14.091267418716871"><ele>111.0</ele><time>2026-03-22T11:00:15.999Z</time></trkpt><trkpt lat="42.360066820027996" lon="14.091462498894133"><ele>111.0</ele><time>2026-03-22T11:00:16.999Z</time></trkpt><trkpt lat="42.36012347802827" lon="14.091669212038868"><ele>111.0</ele><time>2026-03-22T11:00:17.999Z</time></trkpt><trkpt lat="42.36018348884179" lon="14.09188815772257"><ele>110.33333333333334</ele><time>2026-03-22T11:00:18.999Z</time></trkpt><trkpt lat="42.3602460069961" lon="14.09211271442897"><ele>109.66666666666667</ele><time>2026-03-22T11:00:19.999Z</time></trkpt><trkpt lat="42.36032555056851" lon="14.092348446363685"><ele>109.0</ele><time>2026-03-22T11:00:20.999Z</time></trkpt><trkpt lat="42.36040703191882" lon="14.092575034346943"><ele>109.0</ele><time>2026-03-22T11:00:21.999Z</time></trkpt><trkpt lat="42.3604835068028" lon="14.09280917486796"><ele>109.0</ele><time>2026-03-22T11:00:22.999Z</time></trkpt><trkpt lat="42.36054371374817" lon="14.093045000746457"><ele>109.0</ele><time>2026-03-22T11:00:23.999Z</time></trkpt><trkpt lat="42.36058682033844" lon="14.093261046126075"><ele>108.25</ele><time>2026-03-22T11:00:24.999Z</time></trkpt><trkpt lat="42.36061167283814" lon="14.093464786218467"><ele>107.5</ele><time>2026-03-22T11:00:25.999Z</time></trkpt><trkpt lat="42.36061098351802" lon="14.093655427613518"><ele>106.75</ele><time>2026-03-22T11:00:26.998Z</time></trkpt><trkpt lat="42.36057728189793" lon="14.093835420979987"><ele>106.0</ele><time>2026-03-22T11:00:27.998Z</time></trkpt><trkpt lat="42.36052928898956" lon="14.094032069441075"><ele>105.66666666666667</ele><time>2026-03-22T11:00:28.998Z</time></trkpt><trkpt lat="42.36048330893944" lon="14.094257795653414"><ele>105.33333333333334</ele><time>2026-03-22T11:00:29.998Z</time></trkpt><trkpt lat="42.36049955518848" lon="14.094516947625529"><ele>105.0</ele><time>2026-03-22T11:00:30.998Z</time></trkpt><trkpt lat="42.36054280736853" lon="14.094737494715881"><ele>105.33333333333334</ele><time>2026-03-22T11:00:31.998Z</time></trkpt><trkpt lat="42.36059298732472" lon="14.094967991888886"><ele>105.66666666666667</ele><time>2026-03-22T11:00:32.998Z</time></trkpt><trkpt lat="42.36067337756983" lon="14.095202845349837"><ele>106.0</ele><time>2026-03-22T11:00:33.998Z</time></trkpt><trkpt lat="42.36075828985034" lon="14.095421598382977"><ele>106.0</ele><time>2026-03-22T11:00:34.998Z</time></trkpt><trkpt lat="42.36084076189977" lon="14.09564407223631"><ele>106.0</ele><time>2026-03-22T11:00:35.998Z</time></trkpt><trkpt lat="42.36092666498358" lon="14.095872072533043"><ele>106.0</ele><time>2026-03-22T11:00:36.998Z</time></trkpt><trkpt lat="42.361017202200266" lon="14.09609843957561"><ele>105.0</ele><time>2026-03-22T11:00:37.998Z</time></trkpt><trkpt lat="42.36110154188126" lon="14.096309311347216"><ele>104.0</ele><time>2026-03-22T11:00:38.998Z</time></trkpt><trkpt lat="42.361174045473646" lon="14.096498757226659"><ele>103.0</ele><time>2026-03-22T11:00:39.999Z</time></trkpt><trkpt lat="42.36124850941378" lon="14.09667706617987"><ele>102.80000000000001</ele><time>2026-03-22T11:00:40.999Z</time></trkpt><trkpt lat="42.36131369205341" lon="14.096821928325904"><ele>102.6</ele><time>2026-03-22T11:00:41.999Z</time></trkpt><trkpt lat="42.36137954764326" lon="14.09694591830565"><ele>102.4</ele><time>2026-03-22T11:00:42.999Z</time></trkpt><trkpt lat="42.361432550647855" lon="14.097043876165984"><ele>102.19999999999999</ele><time>2026-03-22T11:00:43.999Z</time></trkpt><trkpt lat="42.36147275116696" lon="14.09711817350668"><ele>102.0</ele><time>2026-03-22T11:00:44.999Z</time></trkpt><trkpt lat="42.36158124408316" lon="14.097084328626616"><ele>102.33333333333333</ele><time>2026-03-22T11:00:45.999Z</time></trkpt><trkpt lat="42.36165781797072" lon="14.09707514318611"><ele>102.66666666666666</ele><time>2026-03-22T11:00:46.999Z</time></trkpt><trkpt lat="42.36172948642144" lon="14.09708638922046"><ele>103.0</ele><time>2026-03-22T11:00:47.999Z</time></trkpt><trkpt lat="42.36178304093349" lon="14.096992433997977"><ele>103.33333333333333</ele><time>2026-03-22T11:00:48.999Z</time></trkpt><trkpt lat="42.3618480909736" lon="14.09689096665924"><ele>103.66666666666666</ele><time>2026-03-22T11:00:49.999Z</time></trkpt><trkpt lat="42.36191722571082" lon="14.096790300743397"><ele>104.0</ele><time>2026-03-22T11:00:50.999Z</time></trkpt><trkpt lat="42.36199643720262" lon="14.09667496222097"><ele>104.0</ele><time>2026-03-22T11:00:51.999Z</time></trkpt><trkpt lat="42.36207923346599" lon="14.096564332182634"><ele>104.0</ele><time>2026-03-22T11:00:53Z</time></trkpt><trkpt lat="42.3621515290208" lon="14.096438760078698"><ele>104.0</ele><time>2026-03-22T11:00:53.999Z</time></trkpt><trkpt lat="42.36222364135747" lon="14.096290179612781"><ele>104.0</ele><time>2026-03-22T11:00:54.999Z</time></trkpt><trkpt lat="42.362293082168506" lon="14.096144035385327"><ele>104.0</ele><time>2026-03-22T11:00:55.999Z</time></trkpt><trkpt lat="42.36236677208557" lon="14.095994264660165"><ele>104.0</ele><time>2026-03-22T11:00:56.999Z</time></trkpt><trkpt lat="42.36243997456638" lon="14.095846237984277"><ele>104.0</ele><time>2026-03-22T11:00:57.999Z</time></trkpt><trkpt lat="42.362490832125225" lon="14.095724754433407"><ele>104.0</ele><time>2026-03-22T11:00:58.999Z</time></trkpt><trkpt lat="42.36250874130442" lon="14.095607465029733"><ele>104.2</ele><time>2026-03-22T11:00:59.999Z</time></trkpt><trkpt lat="42.3625215944284" lon="14.095493527361603"><ele>104.4</ele><time>2026-03-22T11:01:00.999Z</time></trkpt><trkpt lat="42.36255636167237" lon="14.095384108131626"><ele>104.6</ele><time>2026-03-22T11:01:01.999Z</time></trkpt><trkpt lat="42.36264231237985" lon="14.095287321459027"><ele>104.8</ele><time>2026-03-22T11:01:02.999Z</time></trkpt><trkpt lat="42.3627323271932" lon="14.095209954452473"><ele>105.0</ele><time>2026-03-22T11:01:03.999Z</time></trkpt><trkpt lat="42.362839660580676" lon="14.095149521206348"><ele>105.0</ele><time>2026-03-22T11:01:04.999Z</time></trkpt><trkpt lat="42.36296101791788" lon="14.095137312736457"><ele>105.0</ele><time>2026-03-22T11:01:05.999Z</time></trkpt><trkpt lat="42.36308363452067" lon="14.095118684291757"><ele>105.0</ele><time>2026-03-22T11:01:06.999Z</time></trkpt><trkpt lat="42.36321175342839" lon="14.095113187233746"><ele>105.0</ele><time>2026-03-22T11:01:07.999Z</time></trkpt><trkpt lat="42.36333468031307" lon="14.095101688922922"><ele>104.25</ele><time>2026-03-22T11:01:08.999Z</time></trkpt><trkpt lat="42.36345807292122" lon="14.095096802203997"><ele>103.5</ele><time>2026-03-22T11:01:09.999Z</time></trkpt><trkpt lat="42.36358376684439" lon="14.09509458282623"><ele>102.75</ele><time>2026-03-22T11:01:10.999Z</time></trkpt><trkpt lat="42.36371223880694" lon="14.095089921661295"><ele>102.0</ele><time>2026-03-22T11:01:11.999Z</time></trkpt><trkpt lat="42.363843863402714" lon="14.095088447527573"><ele>101.5</ele><time>2026-03-22T11:01:12.999Z</time></trkpt><trkpt lat="42.36397672209356" lon="14.09508547458298"><ele>101.0</ele><time>2026-03-22T11:01:13.999Z</time></trkpt><trkpt lat="42.364113702265264" lon="14.095087269564699"><ele>100.5</ele><time>2026-03-22T11:01:14.999Z</time></trkpt><trkpt lat="42.364251441540624" lon="14.095087399762116"><ele>100.0</ele><time>2026-03-22T11:01:15.999Z</time></trkpt><trkpt lat="42.36437948522116" lon="14.095084184461818"><ele>100.00000000000001</ele><time>2026-03-22T11:01:16.999Z</time></trkpt><trkpt lat="42.36448836779935" lon="14.095077633969598"><ele>100.0</ele><time>2026-03-22T11:01:17.999Z</time></trkpt><trkpt lat="42.36457392736529" lon="14.095075979029211"><ele>100.0</ele><time>2026-03-22T11:01:18.999Z</time></trkpt><trkpt lat="42.36464386489463" lon="14.095072863900487"><ele>100.0</ele><time>2026-03-22T11:01:19.999Z</time></trkpt><trkpt lat="42.36474723770341" lon="14.095073834090982"><ele>100.00000000000001</ele><time>2026-03-22T11:01:21.999Z</time></trkpt><trkpt lat="42.36482679103981" lon="14.095075608279169"><ele>100.0</ele><time>2026-03-22T11:01:23.999Z</time></trkpt><trkpt lat="42.364922295110674" lon="14.095059939124479"><ele>100.2</ele><time>2026-03-22T11:01:26.999Z</time></trkpt><trkpt lat="42.36498710369422" lon="14.095059037110335"><ele>100.4</ele><time>2026-03-22T11:01:28.999Z</time></trkpt><trkpt lat="42.36505114994402" lon="14.095028269644782"><ele>100.6</ele><time>2026-03-22T11:01:31.999Z</time></trkpt><trkpt lat="42.36512387114261" lon="14.09499244185785"><ele>100.8</ele><time>2026-03-22T11:01:32.999Z</time></trkpt><trkpt lat="42.36522150221539" lon="14.09477450741646"><ele>101.0</ele><time>2026-03-22T11:01:34.999Z</time></trkpt><trkpt lat="42.36523768314789" lon="14.09460078992804"><ele>100.75</ele><time>2026-03-22T11:01:35.999Z</time></trkpt><trkpt lat="42.3652481712017" lon="14.094406547286152"><ele>100.5</ele><time>2026-03-22T11:01:36.999Z</time></trkpt><trkpt lat="42.36526880993475" lon="14.094219724253472"><ele>100.25</ele><time>2026-03-22T11:01:37.999Z</time></trkpt><trkpt lat="42.36529336779855" lon="14.094064403762696"><ele>100.0</ele><time>2026-03-22T11:01:38.999Z</time></trkpt><trkpt lat="42.365319296817596" lon="14.093933524157123"><ele>100.00000000000001</ele><time>2026-03-22T11:01:39.999Z</time></trkpt><trkpt lat="42.36535541742813" lon="14.093835604117823"><ele>100.0</ele><time>2026-03-22T11:01:40.999Z</time></trkpt><trkpt lat="42.365371713763864" lon="14.093742697186492"><ele>100.0</ele><time>2026-03-22T11:01:41.999Z</time></trkpt><trkpt lat="42.36542562099132" lon="14.093661370478456"><ele>100.0</ele><time>2026-03-22T11:01:43.999Z</time></trkpt><trkpt lat="42.365460387854704" lon="14.093573828799816"><ele>100.00000000000001</ele><time>2026-03-22T11:01:44.999Z</time></trkpt><trkpt lat="42.36555502013212" lon="14.093485193967236"><ele>100.0</ele><time>2026-03-22T11:01:45.999Z</time></trkpt><trkpt lat="42.36566831989897" lon="14.093377468390097"><ele>100.33333333333334</ele><time>2026-03-22T11:01:46.999Z</time></trkpt><trkpt lat="42.36578439480545" lon="14.093256600779391"><ele>100.66666666666666</ele><time>2026-03-22T11:01:47.999Z</time></trkpt><trkpt lat="42.3658907530321" lon="14.093105219289958"><ele>101.0</ele><time>2026-03-22T11:01:48.999Z</time></trkpt><trkpt lat="42.36601314414274" lon="14.092978447650733"><ele>101.66666666666666</ele><time>2026-03-22T11:01:49.999Z</time></trkpt><trkpt lat="42.3661388717348" lon="14.09284733093487"><ele>102.33333333333334</ele><time>2026-03-22T11:01:50.999Z</time></trkpt><trkpt lat="42.36625856283017" lon="14.092719697016138"><ele>103.0</ele><time>2026-03-22T11:01:51.999Z</time></trkpt><trkpt lat="42.366385433313035" lon="14.092584407323585"><ele>103.0</ele><time>2026-03-22T11:01:52.999Z</time></trkpt><trkpt lat="42.366519998294" lon="14.09244321097028"><ele>103.0</ele><time>2026-03-22T11:01:53.999Z</time></trkpt><trkpt lat="42.366658666937745" lon="14.092299663351909"><ele>103.0</ele><time>2026-03-22T11:01:54.999Z</time></trkpt><trkpt lat="42.366801253750005" lon="14.092153331456988"><ele>103.0</ele><time>2026-03-22T11:01:55.999Z</time></trkpt><trkpt lat="42.3669439636735" lon="14.092007121151555"><ele>103.0</ele><time>2026-03-22T11:01:56.999Z</time></trkpt><trkpt lat="42.36709980374958" lon="14.091874869120188"><ele>103.0</ele><time>2026-03-22T11:01:57.999Z</time></trkpt><trkpt lat="42.36724293103704" lon="14.091726554780337"><ele>103.33333333333334</ele><time>2026-03-22T11:01:58.999Z</time></trkpt><trkpt lat="42.367371160043255" lon="14.091557665205375"><ele>103.66666666666666</ele><time>2026-03-22T11:01:59.999Z</time></trkpt><trkpt lat="42.3675114553508" lon="14.091403713093827"><ele>104.0</ele><time>2026-03-22T11:02:00.999Z</time></trkpt><trkpt lat="42.3676574124817" lon="14.091258011285278"><ele>104.0</ele><time>2026-03-22T11:02:01.999Z</time></trkpt><trkpt lat="42.36780121012085" lon="14.091116457867859"><ele>104.0</ele><time>2026-03-22T11:02:02.999Z</time></trkpt><trkpt lat="42.367943746082304" lon="14.090972175771666"><ele>104.0</ele><time>2026-03-22T11:02:03.999Z</time></trkpt><trkpt lat="42.368095364814664" lon="14.09083577439244"><ele>103.33333333333333</ele><time>2026-03-22T11:02:04.999Z</time></trkpt><trkpt lat="42.368235237018034" lon="14.090678449938626"><ele>102.66666666666666</ele><time>2026-03-22T11:02:05.999Z</time></trkpt><trkpt lat="42.3683745490239" lon="14.090519175497384"><ele>102.0</ele><time>2026-03-22T11:02:06.999Z</time></trkpt><trkpt lat="42.36850740454861" lon="14.090338869861577"><ele>102.0</ele><time>2026-03-22T11:02:07.999Z</time></trkpt><trkpt lat="42.36865734070996" lon="14.090190202995606"><ele>102.0</ele><time>2026-03-22T11:02:08.999Z</time></trkpt><trkpt lat="42.36879277370029" lon="14.090015672837874"><ele>102.0</ele><time>2026-03-22T11:02:09.999Z</time></trkpt><trkpt lat="42.36894774727328" lon="14.08987386610517"><ele>102.33333333333334</ele><time>2026-03-22T11:02:10.999Z</time></trkpt><trkpt lat="42.36908161258133" lon="14.089709025026234"><ele>102.66666666666667</ele><time>2026-03-22T11:02:11.999Z</time></trkpt><trkpt lat="42.36921426912763" lon="14.089562909164606"><ele>103.0</ele><time>2026-03-22T11:02:12.999Z</time></trkpt><trkpt lat="42.369325612557375" lon="14.089440268842724"><ele>103.0</ele><time>2026-03-22T11:02:13.999Z</time></trkpt><trkpt lat="42.36942436200991" lon="14.089331296882605"><ele>103.0</ele><time>2026-03-22T11:02:14.999Z</time></trkpt><trkpt lat="42.36950677829189" lon="14.089240239595602"><ele>103.0</ele><time>2026-03-22T11:02:15.999Z</time></trkpt><trkpt lat="42.369589943743954" lon="14.08917611733257"><ele>103.0</ele><time>2026-03-22T11:02:16.999Z</time></trkpt><trkpt lat="42.369651025903806" lon="14.089107803157278"><ele>103.0</ele><time>2026-03-22T11:02:17.999Z</time></trkpt><trkpt lat="42.36972621982557" lon="14.089038908742323"><ele>103.66666666666667</ele><time>2026-03-22T11:02:19.999Z</time></trkpt><trkpt lat="42.36977936798102" lon="14.088962168037968"><ele>104.33333333333334</ele><time>2026-03-22T11:02:49.999Z</time></trkpt><trkpt lat="42.369742888994956" lon="14.088891404452026"><ele>105.0</ele><time>2026-03-22T11:02:50.999Z</time></trkpt><trkpt lat="42.369726674703635" lon="14.088785937162672"><ele>105.66666666666666</ele><time>2026-03-22T11:02:51.999Z</time></trkpt><trkpt lat="42.36970945949126" lon="14.08867395930517"><ele>106.33333333333333</ele><time>2026-03-22T11:02:53Z</time></trkpt><trkpt lat="42.36970299247564" lon="14.088564485197749"><ele>107.0</ele><time>2026-03-22T11:02:54Z</time></trkpt><trkpt lat="42.369674833127455" lon="14.088447034074232"><ele>107.0</ele><time>2026-03-22T11:02:55Z</time></trkpt><trkpt lat="42.369658518804656" lon="14.08833451535412"><ele>106.99999999999999</ele><time>2026-03-22T11:02:56Z</time></trkpt><trkpt lat="42.36964408632113" lon="14.088234975563708"><ele>106.99999999999999</ele><time>2026-03-22T11:02:57Z</time></trkpt><trkpt lat="42.36964347093731" lon="14.088119348705083"><ele>107.0</ele><time>2026-03-22T11:02:58Z</time></trkpt><trkpt lat="42.36962587485027" lon="14.087993088799214"><ele>107.0</ele><time>2026-03-22T11:02:59Z</time></trkpt><trkpt lat="42.3696031366468" lon="14.087843863941371"><ele>107.5</ele><time>2026-03-22T11:03:00Z</time></trkpt><trkpt lat="42.36957506741846" lon="14.087686765930025"><ele>108.0</ele><time>2026-03-22T11:03:01Z</time></trkpt><trkpt lat="42.36954883468226" lon="14.087517017673445"><ele>108.5</ele><time>2026-03-22T11:03:02Z</time></trkpt><trkpt lat="42.36951035917404" lon="14.08733306361923"><ele>109.0</ele><time>2026-03-22T11:03:03Z</time></trkpt><trkpt lat="42.369480915521535" lon="14.087138893589591"><ele>109.75</ele><time>2026-03-22T11:03:04Z</time></trkpt><trkpt lat="42.36945206324731" lon="14.08694656155448"><ele>110.5</ele><time>2026-03-22T11:03:05Z</time></trkpt><trkpt lat="42.36942323365689" lon="14.08675676335914"><ele>111.25</ele><time>2026-03-22T11:03:06Z</time></trkpt><trkpt lat="42.36939119703901" lon="14.086592093420602"><ele>112.0</ele><time>2026-03-22T11:03:07Z</time></trkpt><trkpt lat="42.369365500797315" lon="14.086447149078325"><ele>112.25</ele><time>2026-03-22T11:03:08Z</time></trkpt><trkpt lat="42.369337929448584" lon="14.086294786216076"><ele>112.5</ele><time>2026-03-22T11:03:09Z</time></trkpt><trkpt lat="42.36931024368422" lon="14.086142562792068"><ele>112.75</ele><time>2026-03-22T11:03:10Z</time></trkpt><trkpt lat="42.36928429274807" lon="14.085979719046891"><ele>113.0</ele><time>2026-03-22T11:03:11Z</time></trkpt><trkpt lat="42.369255338633266" lon="14.085809497875005"><ele>114.0</ele><time>2026-03-22T11:03:12Z</time></trkpt><trkpt lat="42.36922339623265" lon="14.085647039253173"><ele>115.0</ele><time>2026-03-22T11:03:13Z</time></trkpt><trkpt lat="42.369187385832525" lon="14.085485821287362"><ele>116.0</ele><time>2026-03-22T11:03:14Z</time></trkpt><trkpt lat="42.36915113048032" lon="14.085319218561514"><ele>117.0</ele><time>2026-03-22T11:03:15Z</time></trkpt><trkpt lat="42.36911809921181" lon="14.085154970689203"><ele>117.0</ele><time>2026-03-22T11:03:16Z</time></trkpt><trkpt lat="42.36908755534487" lon="14.08499138204833"><ele>117.0</ele><time>2026-03-22T11:03:17Z</time></trkpt><trkpt lat="42.36905338097284" lon="14.084823479957858"><ele>117.0</ele><time>2026-03-22T11:03:18Z</time></trkpt><trkpt lat="42.36901965893884" lon="14.084661045199224"><ele>117.0</ele><time>2026-03-22T11:03:19Z</time></trkpt><trkpt lat="42.36898508981437" lon="14.084505418080715"><ele>117.25</ele><time>2026-03-22T11:03:20Z</time></trkpt><trkpt lat="42.36895151220304" lon="14.084353834919492"><ele>117.5</ele><time>2026-03-22T11:03:21Z</time></trkpt><trkpt lat="42.36891716955733" lon="14.084200079659768"><ele>117.75</ele><time>2026-03-22T11:03:22Z</time></trkpt><trkpt lat="42.36888181013521" lon="14.084044981731164"><ele>118.0</ele><time>2026-03-22T11:03:23Z</time></trkpt><trkpt lat="42.36884747311714" lon="14.08390978594434"><ele>121.0</ele><time>2026-03-22T11:03:24Z</time></trkpt><trkpt lat="42.36881314273533" lon="14.083781533940842"><ele>121.0</ele><time>2026-03-22T11:03:25Z</time></trkpt><trkpt lat="42.36878792101429" lon="14.083661801699858"><ele>121.0</ele><time>2026-03-22T11:03:26Z</time></trkpt><trkpt lat="42.36875994163073" lon="14.083525118172584"><ele>121.0</ele><time>2026-03-22T11:03:27Z</time></trkpt></trkseg></trk></gpx>